     2.10           OBSERVATION DATA    G (GPS)             RINEX VERSION / TYPE
teqc 2002Apr3 20050812 22:29:21UTC                          PGM / RUN BY / DATE
                                                            COMMENT
L2: 1 -> 1; 5 -> 5; 40 -> 9                                 COMMENT
L2: 1 -> 1; 5 -> 5; 40 -> 9                                 COMMENT
L2: 1 -> 1; 5 -> 5; 40 -> 9                                 COMMENT
L2: 1 -> 1; 5 -> 5; 40 -> 9                                 COMMENT
Original Marker Name: CAHU                                  COMMENT
Campaign Name: USGS Coachella Subsidence 1996-2000          COMMENT
4-Character Station Name: CAHU                              COMMENT
6-Character Antenna Code: DMRCHT                            COMMENT
Vertical Measurement Point: BPA                             COMMENT
Vertical Offset to Rinex Ref. Point: 0.0000                 COMMENT
Radial Measurement Point: RRP                               COMMENT
Radial Offset to Rinex Ref. Point: 0.0000                   COMMENT
Antenna Height from Field Measurement: 2.0000 m             COMMENT
Additional Antenna Identification Info.:                    COMMENT
Turborogue and Ashtech Choke Ring                           COMMENT
Original XYZ: -2352972.7900 -4766367.6500 3513119.0000      COMMENT
New XYZ position is based on association with SCEC monument COMMENT
E1D0L0H4+0011. Position of that monument is believed to be  COMMENT
valid to within 1 m horizontally; vertical accuracy         COMMENT
should be no worse than 3-times this value.                 COMMENT
                                                            COMMENT
Revised Rinex header created by UCSD GPS archive for        COMMENT
GSAC on 20-Apr-2005 (2005:110) 16:14:44 GMT                 COMMENT
For assistance contact dagnew@ucsd.edu                      COMMENT
or anderson@python.ucsd.edu                                 COMMENT
                                                            COMMENT
CAHU                                                        MARKER NAME
KER US GEOLOGICAL SURVEY WATER RESOURC.                     OBSERVER / AGENCY
108 ASHTECH L-XII 7A                                        REC # / TYPE / VERS
026 DORNE-MARGOL. TYPE T                                    ANT # / TYPE
 -2352973.0000 -4766391.0000  3513129.0000                  APPROX POSITION XYZ
        2.0000        0.0000        0.0000                  ANTENNA: DELTA H/E/N
     1     1     0                                          WAVELENGTH FACT L1/2
     4    C1    L1    L2    S1                              # / TYPES OF OBSERV
     0                                                      INTERVAL
  1996     6     8    14    36   45.000000                  TIME OF FIRST OBS
  1996     6     8    17    16   45.000000                  TIME OF LAST OBS
                                                            END OF HEADER
 96  6  8 14 36 45.0000000  0  4G 2G19G 7G15
  21339595.306    -3381189.297 9    -57639.66021       104.000
  21770846.307   -19719095.263 8    104252.88621        76.000
  21662770.556    -1098259.957 8   -235639.53725        82.000
  23976204.079    12443551.924 7   -150935.54722        44.000
 96  6  8 14 37  0.0000000  0  4G 2G19G 7G15
  21337869.191    -3390271.498 9    -64723.57521       108.000
  21775852.451   -19692810.188 8    124734.74224        76.000
  21654779.588    -1140261.419 8   -268367.95226        80.000
  23971310.537    12417894.981 7   -170927.98422        42.000
 96  6  8 14 37 15.0000000  0  5G 2G27G19G 7G15
  21336162.622    -3399227.817 9    -71703.49221       106.000
  20297707.749    21334207.293 9    -10487.66821        96.000
  21780885.936   -19666355.749 8    145348.56525        78.000
  21646821.118    -1182081.693 8   -300955.17326        78.000
  23966477.073    12392427.509 7   -190772.78623        44.000
 96  6  8 14 37 30.0000000  0  5G 2G27G19G 7G15
  21334490.739    -3408022.021 9    -78548.39021       106.000
  20297183.682    21331447.446 9    -12636.89221        98.000
  21785957.975   -19639699.658 8    166119.52926        78.000
  21638898.472    -1223686.449 8   -333374.46126        76.000
  23961666.723    12367185.125 7   -210442.18323        42.000
 96  6  8 14 37 45.0000000  0  6G 2G27G19G26G 7G15
  21332853.423    -3416626.573 9    -85252.29621       104.000
  20296709.890    21328953.608 9    -14586.33121        96.000
  21791073.334   -19612817.714 8    187066.48926        78.000
  24164537.779    14619683.231 6   -161753.31021        32.000
  21631032.338    -1265051.392 8   -365606.89027        80.000
  23956910.876    12342194.292 7   -229915.58224        44.000
 96  6  8 14 38  0.0000000  0  6G 2G27G19G26G 7G15
  21331257.178    -3425019.873 9    -91792.85421       104.000
  20296290.780    21326744.350 9    -16310.44021        96.000
  21796234.441   -19585692.349 8    208203.11026        78.000
  24157168.970    14580985.618 6   -191905.71521        32.000
  21623209.254    -1306158.103 8   -397638.09527        82.000
  23952213.548    12317474.334 7   -249177.89424        44.000
 96  6  8 14 38 15.0000000  0  6G 2G27G19G26G 7G15
  21329702.694    -3433192.752 9    -98166.71521       106.000
  20295924.224    21324827.151 9    -17799.81121        98.000
  21801444.744   -19558314.894 8    229536.17726        76.000
  24149858.861    14542559.785 6   -221847.95421        34.000
  21615437.794    -1346994.320 8   -429458.51127        80.000
  23947560.889    12293035.315 7   -268221.30125        44.000
 96  6  8 14 38 30.0000000  0  6G 2G27G19G26G 7G15
  21328185.145    -3441144.735 9   -104361.86621       104.000
  20295610.611    21323203.463 9    -19066.44621       100.000
  21806705.262   -19530681.957 8    251068.32526        78.000
  24142592.971    14504411.117 6   -251574.22122        34.000
  21607718.588    -1387559.754 8   -461067.94227        80.000
  23942957.216    12268880.439 6   -287043.29825        40.000
 96  6  8 14 38 45.0000000  0  6G 2G27G19G26G 7G15
  21326714.093    -3448872.776 9   -110382.96621       100.000
  20295360.195    21321875.729 9    -20105.06121        98.000
  21812013.987   -19502787.921 8    272803.91826        80.000
  24135397.682    14466543.293 6   -281081.58622        34.000
  21600047.918    -1427852.427 8   -492464.83627        78.000
  23938422.315    12245014.846 6   -305639.90325        40.000
 96  6  8 14 39  0.0000000  0  6G 2G27G19G26G 7G15
  21325288.070    -3456370.905 9   -116226.95025       100.000
  20295164.280    21320849.107 9    -20904.01921       100.000
  21817372.927   -19474627.380 8    294747.17127        78.000
  24128236.300    14428960.436 6   -310366.91423        34.000
  21592433.279    -1467867.727 8   -523645.58128        80.000
  23933942.636    12221444.529 7   -324006.37625        42.000
 96  6  8 14 39 15.0000000  0  6G 2G27G19G26G 7G15
  21323905.098    -3463643.487 9   -121893.89726       106.000
  20295028.864    21320118.265 9    -21477.78221        98.000
  21822782.382   -19446205.526 8    316894.04427        78.000
  24121141.621    14391657.942 6   -339433.83824        32.000
  21584868.676    -1507611.990 8   -554615.11328        78.000
  23929499.532    12198166.374 6   -342145.20925        38.000
 96  6  8 14 39 30.0000000  0  6G 2G27G19G26G 7G15
  21322565.985    -3470693.458 9   -127387.38626       104.000
  20294943.003    21319675.737 9    -21814.40621        98.000
  21828234.797   -19417524.971 8    339242.53427        76.000
  24114099.197    14354632.521 6   -368284.79724        32.000
  21577364.961    -1547083.488 8   -585372.14528        82.000
  23925124.151    12175178.443 6   -360057.87825        40.000
 96  6  8 14 39 45.0000000  0  6G 2G27G19G26G 7G15
  21321260.449    -3477528.771 9   -132713.61527       102.000
  20294909.277    21319513.679 9    -21940.71225        98.000
  21833738.567   -19388591.420 8    361788.12327        74.000
  24107102.460    14317877.953 6   -396924.68624        34.000
  21569903.247    -1586281.944 8   -615916.38328        80.000
  23920807.829    12152475.507 7   -377748.51525        42.000
 96  6  8 14 40  0.0000000  0  6G 2G27G19G26G 7G15
  21320001.950    -3484154.593 9   -137876.59228       104.000
  20294931.221    21319629.619 9    -21850.39126        96.000
  21839294.711   -19359405.010 8    384530.77127        76.000
  24100159.567    14281391.363 6   -425355.82125        36.000
  21562496.424    -1625208.970 8   -646249.12428        80.000
  23916543.971    12130055.279 7   -395218.84025        44.000
 96  6  8 14 40 15.0000000  0  6G 2G27G19G26G 7G15
  21318780.475    -3490578.604 9   -142882.31828       102.000
  20295009.257    21320019.504 9    -21546.59927       100.000
  21844898.342   -19329972.103 8    407465.50527        74.000
  24093271.205    14245170.176 6   -453580.11625        38.000
  21555137.179    -1663867.447 8   -676372.60728        80.000
  23912333.476    12107912.525 7   -412472.94625        44.000
 96  6  8 14 40 30.0000000  0  6G 2G27G19G26G 7G15
  21317598.813    -3496806.382 9   -147735.13528       104.000
  20295133.551    21320678.354 9    -21033.20328        98.000
  21850546.132   -19300295.352 8    430590.21027        76.000
  24086428.682    14209211.045 7   -481600.20625        42.000
  21547833.575    -1702264.067 8   -706292.05128        78.000
  23908169.868    12086042.120 7   -429514.80925        42.000
 96  6  8 14 40 45.0000000  0  6G 2G27G19G26G 7G15
  21316446.861    -3502842.669 9   -152438.74929       104.000
  20295305.842    21321598.037 9    -20316.58628        98.000
  21856239.340   -19270381.259 8    453899.88627        76.000
  24079630.798    14173504.440 7   -509423.56425        44.000
  21540570.473    -1740408.078 8   -736014.65128        78.000
  23904052.399    12064436.204 6   -446350.56825        40.000
 96  6  8 14 41  0.0000000  0  6G 2G27G19G26G 7G15
  21315329.025    -3508691.045 9   -156995.93029       100.000
  20295534.374    21322777.081 9    -19397.85629       100.000
  21861972.571   -19240231.934 8    477392.85227        74.000
  24072879.952    14138044.349 7   -537054.81125        44.000
  21533362.204    -1778299.324 8   -765540.30028        78.000
  23899993.329    12043090.729 6   -462983.47825        40.000
 96  6  8 14 41 15.0000000  0  6G 2G27G19G26G 7G15
  21314256.997    -3514355.586 9   -161409.85529       104.000
  20295802.838    21324212.509 9    -18279.33329       100.000
  21867754.009   -19209851.000 8    501066.27527        72.000
  24066184.537    14102826.918 7   -564496.99725        42.000
  21526200.132    -1815941.220 8   -794871.62728        78.000
  23895981.146    12022000.900 6   -479417.11825        40.000
 96  6  8 14 41 30.0000000  0  6G 2G27G19G26G 7G15
  21313208.833    -3519843.699 9   -165686.29829       100.000
  20296131.770    21325896.271 9    -16967.32829       100.000
  21873579.786   -19179245.710 8    524914.52927        74.000
  24059519.371    14067846.893 6   -591754.13225        40.000
  21519080.810    -1853339.120 8   -824012.85728        76.000
  23892013.333    12001160.252 7   -495656.55725        42.000
 96  6  8 14 41 45.0000000  0  6G 2G27G19G26G 7G15
  21312195.954    -3525176.607 9   -169841.82529       104.000
  20296489.003    21327806.904 9    -15478.52929       102.000
  21879441.778   -19148437.977 8    548920.56227        74.000
  24052912.665    14033081.932 6   -618843.71625        40.000
  21512006.578    -1890513.370 8   -852979.80628        78.000
  23888087.401    11980546.950 7   -511718.90725        42.000
 96  6  8 14 42  0.0000000  0  6G 2G27G19G26G 7G15
  21311210.806    -3530349.207 9   -173872.44029       100.000
  20296901.847    21329951.214 9    -13807.64429       102.000
  21885343.942   -19117424.741 8    573086.69227        76.000
  24046336.957    13998534.371 6   -645763.86825        40.000
  21504975.335    -1927466.452 8   -881774.40328        78.000
  23884207.127    11960164.042 6   -527601.65025        40.000
 96  6  8 14 42 15.0000000  0  6G 2G27G19G26G 7G15
  21310264.571    -3535326.671 9   -177750.98629       102.000
  20297355.253    21332364.604 9    -11927.10229        98.000
  21891289.456   -19086173.281 8    597438.48027        76.000
  24039805.109    13964237.955 6   -672488.39025        40.000
  21497993.319    -1964167.714 8   -910372.78528        80.000
  23880388.491    11940044.305 7   -543279.39325        42.000
 96  6  8 14 42 30.0000000  0  6G 2G27G19G26G 7G15
  21309349.035    -3540141.014 9   -181502.42329       102.000
  20297861.873    21335012.140 9     -9864.08429       102.000
  21897278.110   -19054716.908 8    621949.92227        76.000
  24033324.676    13930158.214 6   -699044.02625        38.000
  21491048.807    -2000651.293 8   -938801.54128        80.000
  23876602.652    11920153.906 6   -558778.40725        40.000
 96  6  8 14 42 45.0000000  0  6G 2G27G19G26G 7G15
  21308460.390    -3544796.055 9   -185129.73229       100.000
  20298407.075    21337888.755 9     -7622.57229       102.000
  21903299.441   -19023058.689 8    646618.64227        74.000
  24026872.632    13896287.306 6   -725436.95325        38.000
  21484151.302    -2036923.231 8   -967065.38528        80.000
  23872862.231    11900488.471 6   -574102.16825        38.000
 96  6  8 14 43  0.0000000  0  6G 2G27G19G26G 7G15
  21307602.684    -3549297.316 9   -188637.21329       100.000
  20299000.574    21340992.681 9     -5203.94229       100.000
  21909362.144   -18991206.017 8    671438.88827        76.000
  24020472.333    13862619.949 6   -751671.27625        38.000
  21477289.502    -2072986.829 8   -995166.88128        80.000
  23869157.336    11881043.657 6   -589253.96325        40.000
 96  6  8 14 43 15.0000000  0  6G 2G27G19G26G 7G15
  21306777.715    -3553649.188 9   -192028.28829       100.000
  20299634.126    21344321.405 9     -2610.14729       100.000
  21915458.274   -18959163.037 8    696407.42427        72.000
  24014100.274    13829154.348 6   -777748.32525        38.000
  21470463.168    -2108844.388 8  -1023107.83128        80.000
  23865501.247    11861816.629 7   -604236.10125        42.000
 96  6  8 14 43 30.0000000  0  6G 2G27G19G26G 7G15
  21305976.489    -3557854.607 9   -195305.23729       102.000
  20300307.070    21347868.106 9       153.51629       100.000
  21921595.086   -18926935.048 8    721520.13527        74.000
  24007771.116    13795888.295 6   -803669.94025        36.000
  21463675.117    -2144500.513 8  -1050891.81729        78.000
  23861886.470    11842804.616 6   -619050.64625        40.000
 96  6  8 14 43 45.0000000  0  6G 2G27G19G26G 7G15
  21305200.926    -3561915.601 9   -198469.64729       100.000
  20301022.704    21351628.241 9      3083.47629       100.000
  21927759.238   -18894524.035 8    746775.44827        74.000
  24001478.202    13762819.754 6   -829437.65525        34.000
  21456930.956    -2179956.680 8  -1078520.00929        82.000
  23858310.216    11824004.958 7   -633699.72325        42.000
 96  6  8 14 44  0.0000000  0  6G 2G27G19G26G 7G15
  21304458.250    -3565835.145 9   -201523.84329       104.000
  20301778.481    21355600.188 9      6178.48429       100.000
  21933959.306   -18861933.747 8    772170.44827        70.000
  23995226.870    13729945.674 6   -855053.81425        34.000
  21450218.273    -2215219.522 8  -1105997.52829        82.000
  23854762.082    11805412.697 6   -648187.23925        40.000
 96  6  8 14 44 15.0000000  0  6G 2G27G19G26G 7G15
  21303738.479    -3569616.237 9   -204470.15629       102.000
  20302573.141    21359780.873 9      9436.16729       100.000
  21940197.957   -18829166.105 8    797703.68527        72.000
  23988999.671    13697267.107 6   -880517.61625        32.000
  21443548.460    -2250290.505 8  -1133325.57129        82.000
  23851266.981    11787026.278 6   -662514.30325        38.000
 96  6  8 14 44 30.0000000  0  6G 2G27G19G26G 7G15
  21303044.609    -3573266.380 9   -207314.42829       100.000
  20303408.633    21364161.312 9     12849.47929       102.000
  21946468.146   -18796225.351 8    823371.77427        76.000
  23982821.758    13664779.486 6   -905832.63125        32.000
  21436907.068    -2285173.658 8  -1160507.24629        82.000
  23847802.910    11768840.867 6   -676684.73725        40.000
 96  6  8 14 44 45.0000000  0  6G 2G27G19G26G 7G15
  21302375.173    -3576786.331 9   -210057.26429       102.000
  20304281.688    21368738.650 9     16416.22629       102.000
  21952767.865   -18763112.696 8    849173.82127        76.000
  23976677.871    13632481.701 6   -930999.76825        34.000
  21430303.240    -2319869.782 8  -1187543.18329        82.000
  23844382.398    11750855.962 7   -690698.99325        42.000
 96  6  8 14 45  0.0000000  0  6G 2G27G19G26G 7G15
  21301727.201    -3580179.903 9   -212701.60129       100.000
  20305187.991    21373509.808 9     20134.01029       102.000
  21959101.610   -18729832.389 8    875106.51527        72.000
  23970570.769    13600375.129 6   -956017.83225        34.000
  21423738.984    -2354381.465 8  -1214435.40329        82.000
  23840998.760    11733069.685 7   -704558.40325        44.000
 96  6  8 14 45 15.0000000  0  6G 2G27G19G26G 7G15
  21301103.513    -3583451.353 9   -215250.77829       100.000
  20306132.457    21378468.841 9     23998.17729       100.000
  21965462.936   -18696389.168 8    901166.15327        72.000
  23964497.484    13568460.047 6   -980886.75525        36.000
  21417207.346    -2388709.728 8  -1241184.69129        82.000
  23837653.856    11715479.386 6   -718265.09625        40.000
 96  6  8 14 45 30.0000000  0  6G 2G27G19G26G 7G15
  21300499.551    -3586602.802 9   -217706.45229       102.000
  20307111.789    21383611.573 9     28005.50529       102.000
  21971859.818   -18662786.024 8    927350.40727        74.000
  23958458.195    13536733.629 6  -1005608.62625        38.000
  21410708.145    -2422857.179 8  -1267793.09129        82.000
  23834347.085    11698083.295 6   -731820.52125        40.000
 96  6  8 14 45 45.0000000  0  6G 2G27G19G26G 7G15
  21299930.065    -3589635.356 9   -220069.48529       104.000
  20308120.441    21388935.888 9     32154.31229       100.000
  21978279.634   -18629026.778 8    953656.29627        72.000
  23952452.302    13505193.010 7  -1030185.75325        42.000
  21404242.042    -2456826.014 8  -1294262.30529        80.000
  23831071.822    11680879.448 7   -745226.09625        42.000
 96  6  8 14 46  0.0000000  0  6G 2G27G19G26G 7G15
  21299373.021    -3592551.506 9   -222341.81429       102.000
  20309173.102    21394445.017 9     36447.13129       102.000
  21984737.013   -18595115.582 8    980080.58627        72.000
  23946487.422    13473833.323 7  -1054621.87025        42.000
  21397810.384    -2490619.067 8  -1320594.56929        82.000
  23827836.372    11663865.563 6   -758483.70225        40.000
 96  6  8 14 46 15.0000000  0  6G 2G27G19G26G 7G15
  21298841.399    -3595356.410 9   -224527.46529       104.000
  20310251.815    21400136.490 9     40882.03429       102.000
  21991214.119   -18561057.950 8   1006618.97627        70.000
  23940551.771    13442649.481 7  -1078921.00725        42.000
  21391415.601    -2524241.194 9  -1346793.61229        84.000
  23824630.002    11647038.087 6   -771596.03925        38.000
 96  6  8 14 46 30.0000000  0  6G 2G27G19G26G 7G15
  21298326.955    -3598051.305 9   -226627.38029       104.000
  20311372.949    21406009.960 9     45458.75829       100.000
  21997729.149   -18526854.994 8   1033270.61027        72.000
  23934652.095    13411637.219 6  -1103086.39225        38.000
  21385048.579    -2557691.779 9  -1372858.99429        84.000
  23821469.320    11630395.927 7   -784563.95625        42.000
 96  6  8 14 46 45.0000000  0  6G 2G27G19G26G 7G15
  21297837.784    -3600636.799 9   -228642.05529       102.000
  20312525.081    21412067.205 9     50178.68129       102.000
  22004262.766   -18492507.379 8   1060034.98227        70.000
  23928776.583    13380793.984 6  -1127120.08725        38.000
  21378713.275    -2590971.161 9  -1398790.98229        84.000
  23818329.983    11613938.919 6   -797387.59225        40.000
 96  6  8 14 47  0.0000000  0  6G 2G27G19G26G 7G15
  21297366.090    -3603114.534 9   -230572.76729       100.000
  20313715.947    21418310.875 9     55043.86229       102.000
  22010824.983   -18458017.381 8   1086910.28127        72.000
  23922946.309    13350120.230 7  -1151021.73025        42.000
  21372414.485    -2624078.734 8  -1424589.09529        82.000
  23815234.116    11597665.991 6   -810067.75725        40.000
 96  6  8 14 47 15.0000000  0  6G 2G27G19G26G 7G15
  21296912.474    -3605488.782 9   -232422.82329       102.000
  20314935.982    21424739.028 9     60052.80129       102.000
  22017411.273   -18423386.637 8   1113895.24727        72.000
  23917135.791    13319612.540 6  -1174793.97325        38.000
  21366150.712    -2657013.829 9  -1450252.79929        84.000
  23812169.818    11581574.891 6   -822606.28725        38.000
 96  6  8 14 47 30.0000000  0  6G 2G27G19G26G 7G15
  21296477.146    -3607759.212 9   -234192.00129        96.000
  20316193.252    21431353.952 9     65207.28129       100.000
  22024026.104   -18388615.159 8   1140989.90527        72.000
  23911363.977    13289268.525 6  -1198438.64125        38.000
  21359917.067    -2689776.242 9  -1475781.95529        86.000
  23809147.190    11565664.760 6   -835003.78125        38.000
 96  6  8 14 47 45.0000000  0  6G 2G27G19G26G 7G15
  21296069.728    -3609927.931 9   -235881.91029       100.000
  20317488.655    21438155.686 9     70507.32329       102.000
  22030673.252   -18353704.075 8   1168193.33227        74.000
  23905623.131    13259086.517 6  -1221957.09725        36.000
  21353709.774    -2722370.821 9  -1501180.32329        86.000
  23806150.345    11549932.929 6   -847262.37525        38.000
 96  6  8 14 48  0.0000000  0  6G 2G27G19G26G 7G15
  21295673.042    -3611997.104 9   -237494.25729        98.000
  20318815.896    21445144.455 9     75953.11329       102.000
  22037345.253   -18318652.282 8   1195506.39827        70.000
  23899909.747    13229069.443 6  -1245347.01725        38.000
  21347542.594    -2754797.662 9  -1526447.98929        86.000
  23803187.646    11534379.496 6   -859381.90425        36.000
 96  6  8 14 48 15.0000000  0  6G 2G27G19G26G 7G15
  21295300.640    -3613971.173 9   -239032.50529       100.000
  20320185.768    21452316.961 9     81542.06729       102.000
  22044043.246   -18283459.078 8   1222929.64527        70.000
  23894230.269    13199217.853 6  -1268608.02625        40.000
  21341402.245    -2787061.286 9  -1551588.47429        86.000
  23800261.492    11519002.455 6   -871364.01225        38.000
 96  6  8 14 48 30.0000000  0  6G 2G27G19G26G 7G15
  21294939.390    -3615848.672 9   -240495.49329       102.000
  20321581.872    21459669.207 9     87271.08229       102.000
  22050767.172   -18248120.810 8   1250465.95927        72.000
  23888575.553    13169535.183 6  -1291737.38925        40.000
  21335294.183    -2819160.683 9  -1576600.98629        88.000
  23797374.730    11503802.917 6   -883207.81725        38.000
 96  6  8 14 48 45.0000000  0  6G 2G27G19G26G 7G15
  21294604.252    -3617633.551 9   -241886.32229       102.000
  20323012.211    21467196.124 9     93136.20329       100.000
  22057514.660   -18212640.674 8   1278112.79027        70.000
  23882963.948    13140022.059 6  -1314734.64625        40.000
  21329215.681    -2851098.899 9  -1601487.90529        88.000
  23794510.603    11488778.879 6   -894914.85425        40.000
 96  6  8 14 49  0.0000000  0  6G 2G27G19G26G 7G15
  21294280.416    -3619329.535 9   -243207.88829        98.000
  20324482.633    21474893.098 9     99133.84829       102.000
  22064292.278   -18177022.842 8   1305866.93927        68.000
  23877379.924    13110678.629 7  -1337599.63925        46.000
  21323167.608    -2882878.025 9  -1626250.85429        84.000
  23791692.734    11473928.379 7   -906486.67525        42.000
 96  6  8 14 49 15.0000000  0  6G 2G27G19G26G 7G15
  21293973.699    -3620937.367 9   -244460.71929       102.000
  20325975.510    21482755.836 9    105260.64029       102.000
  22071097.177   -18141268.772 8   1333727.23126        68.000
  23871827.887    13081504.684 7  -1360332.62025        46.000
  21317153.742    -2914500.210 9  -1650891.52029        86.000
  23788889.614    11459249.844 6   -917924.48425        40.000
 96  6  8 14 49 30.0000000  0  6G 2G27G19G26G 7G15
  21293683.560    -3622454.087 9   -245642.60029        96.000
  20327504.661    21490784.402 9    111516.65229       102.000
  22077930.797   -18105377.696 8   1361694.28526        68.000
  23866308.528    13052500.668 7  -1382933.16625        42.000
  21311159.331    -2945967.308 9  -1675411.33229        86.000
  23786138.809    11444744.500 6   -929227.37825        40.000
 96  6  8 14 49 45.0000000  0  6G 2G27G19G26G 7G15
  21293413.417    -3623880.290 9   -246753.92829       102.000
  20329063.912    21498976.370 9    117899.99029       100.000
  22084790.108   -18069352.938 8   1389765.51026        70.000
  23860819.179    13023662.617 7  -1405404.39225        42.000
  21305203.175    -2977286.016 9  -1699815.51829        86.000
  23783404.462    11430410.193 6   -940396.95125        40.000
 96  6  8 14 50  0.0000000  0  6G 2G27G19G26G 7G15
  21293162.340    -3625218.312 9   -247796.54729       100.000
  20330652.152    21507329.394 9    124408.84929       102.000
  22091668.936   -18033193.974 8   1417941.30626        70.000
  23855362.956    12994987.585 6  -1427748.55325        38.000
  21299269.652    -3008455.461 9  -1724103.38129        86.000
  23780706.150    11416247.478 6   -951432.83625        38.000
 96  6  8 14 50 15.0000000  0  6G 2G27G19G26G 7G15
  21292919.059    -3626468.683 9   -248770.86229       102.000
  20332273.460    21515842.548 9    131042.46729       100.000
  22098581.670   -17996902.367 8   1446220.48426        70.000
  23849938.181    12966470.670 6  -1449969.52425        38.000
  21293367.818    -3039476.556 9  -1748275.66729        84.000
  23778046.511    11402254.847 7   -962336.18125        42.000
 96  6  8 14 50 30.0000000  0  6G 2G27G19G26G 7G15
  21292695.444    -3627629.059 9   -249675.06229        98.000
  20333923.458    21524516.309 9    137801.24829        98.000
  22105503.908   -17960477.385 8   1474603.54526        68.000
  23844539.309    12938110.418 6  -1472068.39326        40.000
  21287495.514    -3070348.557 9  -1772331.78529        86.000
  23775412.145    11388432.127 7   -973107.12825        42.000
 96  6  8 14 50 45.0000000  0  6G 2G27G19G26G 7G15
  21292499.020    -3628700.364 9   -250509.84629       104.000
  20335600.916    21533350.037 9    144684.65129        98.000
  22112459.423   -17923923.288 8   1503087.23326        68.000
  23839176.172    12909903.988 7  -1494047.43625        42.000
  21281647.492    -3101069.589 9  -1796270.22129        84.000
  23772821.788    11374777.578 7   -983747.05125        42.000
 96  6  8 14 51  0.0000000  0  6G 2G27G19G26G 7G15
  21292307.302    -3629683.037 9   -251275.57829       104.000
  20337317.768    21542346.098 9    151694.55429        98.000
  22119442.129   -17887241.285 8   1531670.59626        70.000
  23833835.429    12881850.968 7  -1515906.95225        46.000
  21275830.829    -3131638.089 9  -1820089.84029        84.000
  23770251.967    11361291.587 7   -994255.60725        42.000
 96  6  8 14 51 15.0000000  0  6G 2G27G19G26G 7G15
  21292140.018    -3630574.211 9   -251969.99429       108.000
  20339058.543    21551505.112 9    158831.44629        98.000
  22126442.702   -17850428.717 8   1560355.70226        68.000
  23828529.792    12853948.035 7  -1537649.50925        46.000
  21270044.654    -3162052.921 9  -1843789.71429        84.000
  23767717.132    11347974.034 7  -1004632.92125        42.000
 96  6  8 14 51 30.0000000  0  6G 2G27G19G26G 7G15
  21291982.987    -3631375.539 9   -252594.40029       104.000
  20340836.072    21560825.096 9    166093.76829       100.000
  22133478.831   -17813486.763 8   1589141.63826        68.000
  23823245.530    12826191.529 7  -1559277.97526        44.000
  21264282.464    -3192315.787 8  -1867371.16529        82.000
  23765220.490    11334822.807 7  -1014880.65125        44.000
 96  6  8 14 51 45.0000000  0  6G 2G27G19G26G 7G15
  21291853.926    -3632089.336 9   -253150.62429       108.000
  20342637.015    21570307.047 9    173482.28929       100.000
  22140527.492   -17776417.798 8   1618026.51626        68.000
  23817989.719    12798580.564 7  -1580793.01225        44.000
  21258552.920    -3222426.890 8  -1890834.35329        82.000
  23762745.584    11321837.758 7  -1024998.83225        42.000
 96  6  8 14 52  0.0000000  0  6G 2G27G19G26G 7G15
  21291732.570    -3632717.163 9   -253639.83929       108.000
  20344473.874    21579951.398 9    180997.37329       102.000
  22147602.834   -17739222.200 8   1647010.07326        64.000
  23812763.227    12771115.961 7  -1602193.98925        44.000
  21252852.067    -3252385.087 9  -1914178.39229        84.000
  23760300.506    11309018.787 6  -1034987.64125        40.000
 96  6  8 14 52 15.0000000  0  6G 2G27G19G26G 7G15
  21291626.234    -3633259.036 9   -254062.09229       104.000
  20346335.765    21589758.045 9    188638.89529        98.000
  22154708.814   -17701899.664 8   1676092.55126        66.000
  23807570.492    12743799.970 7  -1623479.23825        44.000
  21247183.411    -3282191.107 9  -1937403.85929        86.000
  23757900.428    11296364.781 7  -1044847.92925        42.000
 96  6  8 14 52 30.0000000  0  6G 2G27G19G26G 7G15
  21291546.669    -3633713.598 9   -254416.28529       112.000
  20348234.620    21599726.238 9    196406.31529        98.000
  22161839.708   -17664452.726 8   1705271.96826        70.000
  23802397.183    12716635.118 6  -1644646.63425        40.000
  21241537.210    -3311846.022 9  -1960511.56329        84.000
  23755519.926    11283874.716 7  -1054580.45425        42.000
 96  6  8 14 52 45.0000000  0  6G 2G27G19G26G 7G15
  21291470.732    -3634082.941 9   -254704.09729       108.000
  20350159.138    21609851.687 9    204296.27129       100.000
  22168986.070   -17626884.989 8   1734545.51226        66.000
  23797258.711    12689621.666 7  -1665696.08425        42.000
  21235922.787    -3341348.638 9  -1983500.61829        84.000
  23753178.996    11271548.067 7  -1064185.65525        44.000
 96  6  8 14 53  0.0000000  0  6G 2G27G19G26G 7G15
  21291421.206    -3634370.136 9   -254927.89129       108.000
  20352117.142    21620132.598 9    212307.36029       100.000
  22176159.444   -17589200.207 8   1763910.26326        66.000
  23792140.744    12662757.378 6  -1686629.28725        40.000
  21230340.141    -3370701.018 8  -2006372.60829        82.000
  23750863.999    11259383.705 7  -1073664.39725        46.000
 96  6  8 14 53 15.0000000  0  6G 2G27G19G26G 7G15
  21291380.404    -3634573.615 9   -255086.44829       104.000
  20354101.169    21630570.425 9    220440.73229       100.000
  22183349.727   -17551397.507 8   1793366.93126        66.000
  23787064.778    12636041.663 6  -1707446.75025        40.000
  21224782.109    -3399904.173 9  -2029128.30829        84.000
  23748576.163    11247383.203 7  -1083015.40525        42.000
 96  6  8 14 53 30.0000000  0  6G 2G27G19G26G 7G15
  21291357.260    -3634695.319 9   -255181.29529       106.000
  20356119.821    21641167.031 9    228697.81629       100.000
  22190562.373   -17513479.742 8   1822913.19926        66.000
  23782004.851    12609473.496 7  -1728149.20125        42.000
  21219249.469    -3428960.736 9  -2051769.78029        84.000
  23746325.381    11235545.601 7  -1092239.52525        42.000
 96  6  8 14 53 45.0000000  0  6G 2G27G19G26G 7G15
  21291348.776    -3634739.392 9   -255215.62629       104.000
  20358167.944    21651919.897 9    237076.66329        98.000
  22197800.652   -17475452.783 8   1852544.54026        66.000
  23776977.841    12583051.675 7  -1748737.66325        42.000
  21213751.126    -3457875.596 9  -2074300.83029        86.000
  23744103.979    11223867.391 7  -1101339.42125        44.000
 96  6  8 14 54  0.0000000  0  6G 2G27G19G26G 7G15
  21291358.519    -3634706.005 9   -255189.62429       110.000
  20360244.066    21662831.313 9    245579.06429       100.000
  22205055.930   -17437313.866 8   1882263.17426        66.000
  23771978.052    12556776.464 7  -1769211.83525        46.000
  21208274.697    -3486648.158 9  -2096720.99529        86.000
  23741913.036    11212349.054 7  -1110314.77925        42.000
 96  6  8 14 54 15.0000000  0  6G 2G27G19G26G 7G15
  21291376.117    -3634593.529 9   -255101.97529       106.000
  20362350.468    21673901.331 9    254205.04229       100.000
  22212338.158   -17399061.438 8   1912070.24426        66.000
  23767002.217    12530647.520 7  -1789572.05425        46.000
  21202823.870    -3515276.313 9  -2119028.66129        84.000
  23739748.354    11200991.455 7  -1119164.86725        42.000
 96  6  8 14 54 30.0000000  0  6G 2G27G19G26G 7G15
  21291410.203    -3634404.295 9   -254954.51929       108.000
  20364485.020    21685127.085 9    262952.37329        98.000
  22219637.595   -17360699.153 8   1941962.93626        64.000
  23762060.618    12504662.561 7  -1809820.09225        46.000
  21197409.439    -3543759.372 9  -2141223.24829        86.000
  23737618.988    11189793.160 7  -1127890.81425        44.000
 96  6  8 14 54 45.0000000  0  6G 2G27G19G26G 7G15
  21291461.888    -3634144.968 9   -254752.45329       108.000
  20366656.477    21696507.847 9    271820.49529       100.000
  22226953.250   -17322229.874 7   1971938.98226        62.000
  23757144.711    12478819.338 7  -1829957.69425        44.000
  21192010.746    -3572097.705 8  -2163305.05429        82.000
  23735514.205    11178752.582 7  -1136493.87525        42.000
 96  6  8 14 55  0.0000000  0  6G 2G27G19G26G 7G15
  21291523.765    -3633818.717 9   -254498.24529       104.000
  20368850.059    21708043.113 9    280808.99929       100.000
  22234300.474   -17283654.531 8   2001997.66826        64.000
  23752254.346    12453114.332 7  -1849987.57125        42.000
  21186651.297    -3600295.537 9  -2185277.39029        84.000
  23733440.961    11167868.436 7  -1144975.05125        42.000
 96  6  8 14 55 15.0000000  0  6G 2G27G19G26G 7G15
  21291599.492    -3633423.915 9   -254190.59829       106.000
  20371070.741    21719736.409 9    289920.66029       100.000
  22241664.396   -17244969.612 8   2032141.73126        64.000
  23747389.284    12427549.503 6  -1869908.21725        40.000
  21181310.374    -3628355.651 9  -2207142.40929        88.000
  23731402.162    11157141.132 7  -1153333.96925        46.000
 96  6  8 14 55 30.0000000  0  6G 2G27G19G26G 7G15
  21291683.344    -3632958.819 9   -253828.20229       102.000
  20373326.530    21731588.357 9    299155.92329        98.000
  22249040.909   -17206173.985 7   2062372.06926        62.000
  23742551.144    12402127.013 7  -1889717.97025        42.000
  21175997.872    -3656277.257 9  -2228899.50029        90.000
  23729402.636    11146571.132 7  -1161570.32725        48.000
 96  6  8 14 55 45.0000000  0  6G 2G27G19G26G 7G15
  21291786.263    -3632426.617 9   -253413.49629       104.000
  20375611.847    21743595.060 9    308511.79229        98.000
  22256444.134   -17167266.836 8   2092689.30226        64.000
  23737739.745    12376849.962 7  -1909414.37225        42.000
  21170705.635    -3684060.582 9  -2250548.83629        88.000
  23727412.824    11136156.841 7  -1169685.36725        44.000
 96  6  8 14 56  0.0000000  0  6G 2G27G19G26G 7G15
  21291900.724    -3631828.441 9   -252947.39429       104.000
  20377927.085    21755753.674 9    317986.01929        98.000
  22263869.934   -17128246.686 7   2123094.60326        62.000
  23732957.126    12351717.696 7  -1928997.96925        44.000
  21165449.524    -3711703.069 9  -2272088.43529        88.000
  23725463.543    11125898.068 7  -1177679.25425        48.000
 96  6  8 14 56 15.0000000  0  6G 2G27G19G26G 7G15
  21292025.947    -3631164.185 9   -252429.79829       108.000
  20380267.954    21768062.854 9    327577.59429        98.000
  22271314.470   -17089116.609 7   2153585.56326        60.000
  23728198.250    12326729.112 7  -1948469.61325        44.000
  21160217.396    -3739204.398 9  -2293518.03329        90.000
  23723546.970    11115794.084 7  -1185552.48825        44.000
 96  6  8 14 56 30.0000000  0  6G 2G27G19G26G 7G15
  21292164.122    -3630433.599 9   -251860.51729       108.000
  20382640.661    21780521.397 9    337285.53429        98.000
  22278784.908   -17049880.274 7   2184159.30526        62.000
  23723474.091    12301884.446 7  -1967829.09525        48.000
  21155007.453    -3766567.427 9  -2314839.88829        88.000
  23721643.888    11105844.138 7  -1193305.69525        42.000
 96  6  8 14 56 45.0000000  0  6G 2G27G19G26G 7G15
  21292318.545    -3629637.903 9   -251240.49029       110.000
  20385039.211    21793130.139 9    347110.52529        96.000
  22286270.876   -17010535.936 7   2214817.20526        60.000
  23718775.503    12277188.884 7  -1987072.38225        44.000
  21149826.949    -3793793.246 9  -2336054.79629        86.000
  23719786.703    11096049.260 7  -1200938.07025        44.000
 96  6  8 14 57  0.0000000  0  6G 2G27G19G26G 7G15
  21292482.651    -3628776.154 9   -250569.00929       106.000
  20387462.643    21805884.816 9    357049.23029        94.000
  22293778.189   -16971084.310 7   2245558.71626        62.000
  23714100.660    12252638.863 7  -2006202.28325        42.000
  21144669.050    -3820885.575 9  -2357165.69629        90.000
  23717940.432    11086408.300 7  -1208450.47525        42.000
 96  6  8 14 57 15.0000000  0  6G 2G27G19G26G 7G15
  21292657.490    -3627843.858 9   -249842.53429       104.000
  20389922.590    21818783.571 9    367100.19529        96.000
  22301311.553   -16931525.358 8   2276383.85526        64.000
  23709458.403    12228235.902 6  -2025217.55425        40.000
  21139540.561    -3847843.654 9  -2378171.99029        88.000
  23716138.259    11076921.700 7  -1215842.60725        44.000
 96  6  8 14 57 30.0000000  0  6G 2G27G19G26G 7G15
  21292849.087    -3626843.619 9   -249063.14429       108.000
  20392405.352    21831823.091 9    377260.86429        98.000
  22308852.233   -16891861.948 7   2307290.38926        60.000
  23704840.370    12203981.477 6  -2044117.12525        38.000
  21134439.232    -3874663.484 9  -2399070.55629        88.000
  23714367.505    11067588.760 7  -1223115.07525        46.000
 96  6  8 14 57 45.0000000  0  6G 2G27G19G26G 7G15
  21293049.019    -3625779.815 9   -248234.20929       106.000
  20394908.978    21844999.018 9    387527.80229        96.000
  22316424.091   -16852097.910 7   2338275.33526        60.000
  23700253.186    12179872.896 7  -2062903.05425        42.000
  21129361.947    -3901345.637 9  -2419861.84229        90.000
  23712619.175    11058407.651 7  -1230269.17925        42.000
 96  6  8 14 58  0.0000000  0  6G 2G27G19G26G 7G15
  21293269.007    -3624653.830 9   -247356.82729       108.000
  20397445.492    21858310.911 9    397900.70229        96.000
  22324003.384   -16812233.146 7   2369338.78426        58.000
  23695699.998    12155905.981 7  -2081578.58925        42.000
  21124309.785    -3927891.983 9  -2440547.29329        90.000
  23710897.467    11049378.686 7  -1237304.72325        44.000
 96  6  8 14 58 15.0000000  0  6G 2G27G19G26G 7G15
  21293495.320    -3623464.889 9   -246430.39429       108.000
  20400002.272    21871759.710 9    408380.27329        96.000
  22331612.626   -16772272.005 7   2400477.31226        60.000
  23691162.489    12132078.649 6  -2100145.31025        40.000
  21119284.633    -3954305.701 9  -2461129.41029        90.000
  23709204.449    11040501.331 7  -1244222.13625        44.000
 96  6  8 14 58 30.0000000  0  6G 2G27G19G26G 7G15
  21293731.377    -3622213.980 9   -245455.65529       108.000
  20402587.593    21885344.383 9    418965.72129        98.000
  22339235.299   -16732215.683 7   2431689.99326        58.000
  23686655.679    12108389.105 7  -2118604.71425        44.000
  21114278.939    -3980590.704 9  -2481611.23329        88.000
  23707553.432    11031775.028 7  -1251021.87925        44.000
 96  6  8 14 58 45.0000000  0  6G 2G27G19G26G 7G15
  21293980.834    -3620904.244 9   -244435.08929       108.000
  20405196.956    21899061.586 9    429654.43629        96.000
  22346877.309   -16692061.516 7   2462978.91726        58.000
  23682168.986    12084836.655 6  -2136957.28325        40.000
  21109300.645    -4006748.262 9  -2501993.75529        90.000
  23705923.161    11023199.079 7  -1257704.41825        44.000
 96  6  8 14 59  0.0000000  0  6G 2G27G19G26G 7G15
  21294240.034    -3619535.012 9   -243368.16329       112.000
  20407834.470    21912910.013 9    440445.40629        96.000
  22354537.576   -16651808.520 7   2494344.88126        56.000
  23677708.793    12061419.966 6  -2155204.07625        38.000
  21104351.162    -4032775.431 9  -2522274.66329        88.000
  23704314.894    11014774.595 6  -1264268.93225        40.000
 96  6  8 14 59 15.0000000  0  6G 2G27G19G26G 7G15
  21294511.017    -3618105.410 9   -242254.18529       114.000
  20410494.739    21926889.856 9    451338.79029        98.000
  22362214.811   -16611459.148 7   2525785.95326        56.000
  23673287.994    12038136.348 6  -2173347.14425        40.000
  21099421.584    -4058672.088 9  -2542453.85229        88.000
  23702736.637    11006500.727 6  -1270716.12425        40.000
 96  6  8 14 59 30.0000000  0  6G 2G27G19G26G 7G15
  21294796.119    -3616619.173 9   -241096.09029       110.000
  20413177.491    21941003.741 9    462336.61329       100.000
  22369912.072   -16571011.094 7   2557303.88726        58.000
  23668878.766    12014986.395 6  -2191386.06925        40.000
  21094518.779    -4084435.874 9  -2562529.53429        88.000
  23701196.213    10998377.376 7  -1277046.00425        42.000
 96  6  8 14 59 45.0000000  0  6G 2G27G19G26G 7G15
  21295089.886    -3615078.191 9   -239895.34029       108.000
  20415887.315    21955251.464 9    473438.72129        98.000
  22377630.888   -16530466.198 7   2588897.29326        62.000
  23664499.518    11991966.336 6  -2209323.78825        40.000
  21089639.207    -4110071.510 9  -2582505.35229        88.000
  23699678.934    10990402.891 7  -1283259.89925        44.000
 96  6  8 15  0  0.0000000  0  6G 2G27G19G26G 7G15
  21295391.897    -3613478.949 9   -238649.16829       108.000
  20418630.027    21969636.936 9    484648.16929        98.000
  22385363.136   -16489821.988 7   2620568.08926        56.000
  23660144.163    11969075.603 7  -2227160.68625        42.000
  21084788.834    -4135580.626 9  -2602382.57429        90.000
  23698188.905    10982578.750 7  -1289356.62825        42.000
 96  6  8 15  0 15.0000000  0  6G 2G27G19G26G 7G15
  21295711.626    -3611821.272 9   -237357.48129       110.000
  20421389.646    21984158.580 9    495963.72829        96.000
  22393111.961   -16449080.042 7   2652315.00826        54.000
  23655811.353    11946314.733 7  -2244896.50725        42.000
  21079956.810    -4160963.365 9  -2622161.34129        90.000
  23696725.438    10974903.352 7  -1295337.42025        44.000
 96  6  8 15  0 30.0000000  0  6G 2G27G19G26G 7G15
  21296037.140    -3610105.579 9   -236020.57929       110.000
  20424180.204    21998817.410 9    507386.18829        96.000
  22400886.269   -16408238.668 7   2684139.44226        54.000
  23651503.725    11923686.579 7  -2262528.82425        42.000
  21075149.068    -4186217.330 9  -2641839.74429        90.000
  23695297.257    10967377.130 7  -1301201.98725        42.000
 96  6  8 15  0 45.0000000  0  6G 2G27G19G26G 7G15
  21296376.176    -3608331.226 9   -234637.97329       108.000
  20426997.984    22013613.688 9    518915.73829        94.000
  22408683.241   -16367295.269 7   2716043.38526        58.000
  23647222.239    11901192.056 6  -2280057.02925        40.000
  21070370.886    -4211338.556 9  -2661414.72429        90.000
  23693890.601    10960000.719 6  -1306949.85125        40.000
 96  6  8 15  1  0.0000000  0  6G 2G27G19G26G 7G15
  21296723.305    -3606499.021 9   -233210.28729       106.000
  20429838.277    22028547.297 9    530552.31229        96.000
  22416488.578   -16326251.559 7   2748025.46026        58.000
  23642972.651    11878832.780 7  -2297479.82125        44.000
  21065617.197    -4236323.978 9  -2680883.89029        88.000
  23692519.710    10952773.416 7  -1312581.52325        42.000
 96  6  8 15  1 15.0000000  0  6G 2G27G19G26G 7G15
  21297080.688    -3604608.486 9   -231737.15929       104.000
  20432706.272    22043623.456 9    542299.95829        96.000
  22424319.217   -16285107.665 7   2780085.62726        56.000
  23638738.292    11856610.085 7  -2314796.23525        44.000
  21060889.020    -4261171.930 9  -2700245.92229        90.000
  23691168.635    10945696.574 6  -1318095.95825        40.000
 96  6  8 15  1 30.0000000  0  6G 2G27G19G26G 7G15
  21297452.041    -3602663.053 9   -230221.25129       108.000
  20435605.715    22058841.688 9    554158.31029        96.000
  22432160.528   -16243865.365 7   2812222.45126        56.000
  23634541.347    11834521.580 7  -2332008.06225        46.000
  21056182.998    -4285886.380 9  -2719503.92429        90.000
  23689854.135    10938767.676 7  -1323495.08425        44.000
 96  6  8 15  1 45.0000000  0  6G 2G27G19G26G 7G15
  21297834.666    -3600662.318 9   -228662.23229       108.000
  20438525.153    22074202.486 9    566127.74729        96.000
  22440029.001   -16202524.819 7   2844435.84026        56.000
  23630357.114    11812566.030 7  -2349116.32325        46.000
  21051506.775    -4310468.741 9  -2738659.01729        88.000
  23688561.310    10931986.936 7  -1328778.78025        44.000
 96  6  8 15  2  0.0000000  0  6G 2G27G19G26G 7G15
  21298224.246    -3598608.342 9   -227061.73929       104.000
  20441475.051    22089705.455 9    578207.98929        96.000
  22447916.421   -16161089.630 7   2876722.98826        58.000
  23626205.079    11790742.739 7  -2366121.49225        46.000
  21046853.217    -4334922.113 9  -2757713.59129        90.000
  23687291.959    10925353.112 6  -1333947.96625        40.000
 96  6  8 15  2 15.0000000  0  6G 2G27G19G26G 7G15
  21298620.662    -3596502.256 9   -225420.63029       104.000
  20444455.648    22105351.157 9    590399.42129        94.000
  22455819.370   -16119560.205 7   2909083.55826        62.000
  23622074.598    11769052.465 7  -2383022.99925        46.000
  21042227.779    -4359243.631 9  -2776665.42429        92.000
  23686063.979    10918865.896 7  -1339002.94125        44.000
 96  6  8 15  2 30.0000000  0  6G 2G27G19G26G 7G15
  21299034.945    -3594346.793 9   -223741.06029       108.000
  20447459.179    22121140.161 9    602702.53629        96.000
  22463739.347   -16077936.317 7   2941517.72726        60.000
  23617976.105    11747495.125 7  -2399820.89725        44.000
  21037624.046    -4383433.509 9  -2795514.68529        92.000
  23684863.220    10912524.980 7  -1343943.93225        44.000
 96  6  8 15  2 45.0000000  0  6G 2G27G19G26G 7G15
  21299455.374    -3592141.407 9   -222022.58529       108.000
  20450486.423    22137073.164 9    615117.85629        94.000
  22471677.222   -16036219.607 7   2974024.24326        58.000
  23613898.568    11726069.336 7  -2416516.35925        44.000
  21033043.637    -4407492.196 9  -2814261.69729        90.000
  23683680.299    10906330.386 6  -1348770.88725        40.000
 96  6  8 15  3  0.0000000  0  6G 2G27G19G26G 7G15
  21299885.156    -3589887.215 9   -220266.07629       110.000
  20453549.882    22153147.617 9    627643.38229        94.000
  22479632.784   -15994414.385 7   3006599.71126        56.000
  23609844.145    11704772.871 7  -2433110.99925        46.000
  21028490.239    -4431422.784 9  -2832908.90929        90.000
  23682530.625    10900280.734 6  -1353484.92025        40.000
 96  6  8 15  3 15.0000000  0  6G 2G27G19G26G 7G15
  21300317.187    -3587585.591 9   -218472.60329       104.000
  20456634.716    22169362.702 9    640278.50529        96.000
  22487601.927   -15952522.243 7   3039242.92426        58.000
  23605819.581    11683604.562 7  -2449605.79525        46.000
  21023959.416    -4455229.179 9  -2851459.34729        90.000
  23681408.472    10894375.749 6  -1358086.18825        40.000
 96  6  8 15  3 30.0000000  0  6G 2G27G19G26G 7G15
  21300769.634    -3585236.277 9   -216641.97529       108.000
  20459745.243    22185717.267 9    653022.30129        96.000
  22495597.422   -15910545.448 7   3071952.08326        58.000
  23601812.345    11662561.089 7  -2466003.29825        44.000
  21019452.756    -4478916.365 9  -2869916.89729        90.000
  23680305.176    10888614.213 7  -1362575.70125        42.000
 96  6  8 15  3 45.0000000  0  6G 2G27G19G26G 7G15
  21301220.822    -3582836.411 9   -214771.95929       106.000
  20462887.458    22202209.619 9    665873.49829        98.000
  22503594.716   -15868485.065 7   3104726.37726        60.000
  23597833.350    11641644.815 7  -2482301.67925        48.000
  21014967.920    -4502483.839 9  -2888281.15029        90.000
  23679237.375    10882996.753 7  -1366952.89625        42.000
 96  6  8 15  4  0.0000000  0  6G 2G27G19G26G 7G15
  21301687.119    -3580388.064 9   -212864.16029       106.000
  20466046.941    22218835.077 9    678828.38029        98.000
  22511617.641   -15826344.743 7   3137562.97326        60.000
  23593878.038    11620857.773 7  -2498499.42025        46.000
  21010507.219    -4525932.877 9  -2906553.12529        92.000
  23678192.119    10877521.442 7  -1371219.37225        44.000
 96  6  8 15  4 15.0000000  0  6G 2G27G19G26G 7G15
  21302167.476    -3577889.525 9   -210917.23929       106.000
  20469237.362    22235591.437 9    691885.27529        98.000
  22519648.991   -15784125.347 7   3170461.17426        58.000
  23589949.228    11600202.193 7  -2514594.72025        46.000
  21006066.093    -4549262.073 9  -2924731.71229        90.000
  23677186.975    10872188.321 7  -1375375.06525        44.000
 96  6  8 15  4 30.0000000  0  6G 2G27G19G26G 7G15
  21302651.102    -3575339.795 9   -208930.46029       106.000
  20472452.456    22252474.019 9    705040.50829        98.000
  22527697.729   -15741827.297 7   3203420.68626        58.000
  23586039.665    11579677.309 7  -2530588.13425        50.000
  21001648.681    -4572471.727 9  -2942817.17029        88.000
  23676192.623    10866996.602 6  -1379420.54625        40.000
 96  6  8 15  4 45.0000000  0  6G 2G27G19G26G 7G15
  21303146.299    -3572738.442 9   -206903.43629       106.000
  20475684.279    22269479.180 9    718291.27929        96.000
  22535765.804   -15699452.342 7   3236440.10626        62.000
  23582157.682    11559282.854 7  -2546479.90425        48.000
  20997254.923    -4595562.098 9  -2960809.63529        90.000
  23675229.720    10861945.817 7  -1383356.23425        42.000
 96  6  8 15  5  0.0000000  0  6G 2G27G19G26G 7G15
  21303651.659    -3570084.802 9   -204835.65629       102.000
  20478944.911    22286606.864 9    731637.53729        96.000
  22543839.575   -15657001.855 7   3269518.38026        58.000
  23578305.109    11539018.516 7  -2562270.30925        48.000
  20992883.589    -4618533.597 9  -2978709.51929        92.000
  23674300.693    10857035.970 7  -1387182.10525        42.000
 96  6  8 15  5 15.0000000  0  6G 2G27G19G26G 7G15
  21304163.644    -3567380.702 9   -202728.58829       104.000
  20482228.898    22303857.112 9    745079.26229        96.000
  22551932.862   -15614475.257 7   3302655.95326        58.000
  23574472.382    11518884.755 7  -2577958.94525        46.000
  20988532.162    -4641386.924 9  -2996517.30329        90.000
  23673384.677    10852266.544 6  -1390898.51525        38.000
 96  6  8 15  5 30.0000000  0  6G 2G27G19G26G 7G15
  21304687.682    -3564626.152 9   -200582.18329       104.000
  20485531.412    22321230.669 9    758617.10329        96.000
  22560043.567   -15571870.653 7   3335854.33426        58.000
  23570670.115    11498882.806 7  -2593544.89125        48.000
  20984207.445    -4664120.547 9  -3014231.81829        90.000
  23672510.842    10847638.425 6  -1394504.85225        40.000
 96  6  8 15  5 45.0000000  0  6G 2G27G19G26G 7G15
  21305220.683    -3561823.254 9   -198398.10629       104.000
  20488862.706    22338726.559 9    772250.23629        96.000
  22568161.917   -15529188.994 7   3369112.75526        60.000
  23566885.325    11479014.534 7  -2609026.70925        46.000
  20979905.244    -4686732.930 9  -3031851.86129        92.000
  23671656.163    10843150.158 6  -1398002.20525        38.000
 96  6  8 15  6  0.0000000  0  6G 2G27G19G26G 7G15
  21305766.065    -3558973.688 9   -196177.68429       108.000
  20492214.625    22356342.227 9    785976.73029        94.000
  22576301.282   -15486428.384 7   3402432.68326        60.000
  23563128.026    11459279.812 7  -2624404.37925        46.000
  20975627.086    -4709221.206 9  -3049375.18029        90.000
  23670825.199    10838802.009 6  -1401390.37525        40.000
 96  6  8 15  6 15.0000000  0  6G 2G27G19G26G 7G15
  21306320.771    -3556078.941 9   -193922.04129       108.000
  20495591.487    22374079.596 9    799798.03729        94.000
  22584454.677   -15443588.529 7   3435814.36626        60.000
  23559405.173    11439675.475 7  -2639680.47426        50.000
  20971370.123    -4731585.001 9  -3066801.51629        90.000
  23670023.314    10834593.983 7  -1404669.34325        42.000
 96  6  8 15  6 30.0000000  0  6G 2G27G19G26G 7G15
  21306873.978    -3553141.778 9   -191633.33529       104.000
  20498989.575    22391941.180 9    813716.15829        94.000
  22592624.082   -15400670.082 7   3469257.27026        62.000
  23555697.490    11420198.188 7  -2654857.57526        48.000
  20967140.411    -4753825.005 9  -3084131.39229        92.000
  23669256.415    10830525.281 7  -1407839.77025        42.000
 96  6  8 15  6 45.0000000  0  6G 2G27G19G26G 7G15
  21307442.085    -3550165.695 9   -189314.33029       106.000
  20502411.346    22409929.156 9    827732.75829        94.000
  22600804.399   -15357674.757 7   3502760.08126        62.000
  23552012.141    11400845.068 7  -2669937.96026        46.000
  20962931.175    -4775941.465 9  -3101364.99429        90.000
  23668502.557    10826595.465 7  -1410901.96525        44.000
 96  6  8 15  7  0.0000000  0  6G 2G27G19G26G 7G15
  21308013.939    -3547154.089 9   -186967.63029       106.000
  20505859.529    22428046.513 9    841850.17229        94.000
  22608994.609   -15314605.995 7   3536320.14626        58.000
  23548352.755    11381616.740 7  -2684921.09725        48.000
  20958743.914    -4797936.214 9  -3118503.75929        90.000
  23667783.025    10822803.267 7  -1413856.90625        42.000
 96  6  8 15  7 15.0000000  0  6G 2G27G19G26G 7G15
  21308593.947    -3544107.475 9   -184593.63729       106.000
  20509332.744    22446294.695 9    856069.52529        94.000
  22617204.605   -15271461.985 7   3569938.84326        58.000
  23544714.833    11362512.020 7  -2699807.92025        48.000
  20954582.704    -4819809.959 9  -3135548.23729        90.000
  23667087.057    10819149.747 7  -1416703.79925        42.000
 96  6  8 15  7 30.0000000  0  6G 2G27G19G26G 7G15
  21309179.712    -3541026.599 9   -182192.97729       104.000
  20512828.444    22464670.020 9    870387.94529        96.000
  22625432.109   -15228243.325 7   3603615.70526        60.000
  23541105.872    11343529.105 7  -2714599.79225        46.000
  20950444.789    -4841564.543 9  -3152499.85929        92.000
  23666421.997    10815633.638 7  -1419443.64825        44.000
 96  6  8 15  7 45.0000000  0  6G 2G27G19G26G 7G15
  21309775.789    -3537908.554 9   -179763.33229       106.000
  20516348.517    22483174.193 9    884806.75629        94.000
  22633672.145   -15184947.242 7   3637352.89226        58.000
  23537517.686    11324669.482 7  -2729295.61125        44.000
  20946326.570    -4863198.716 9  -3169357.65029        90.000
  23665776.784    10812256.262 7  -1422075.34725        44.000
 96  6  8 15  8  0.0000000  0  6G 2G27G19G26G 7G15
  21310377.623    -3534753.370 9   -177304.74929       108.000
  20519897.251    22501809.008 9    899327.38429        96.000
  22641927.710   -15141573.902 7   3671150.27126        58.000
  23533948.896    11305931.099 7  -2743896.94825        44.000
  20942228.377    -4884713.225 9  -3186122.19729        88.000
  23665159.601    10809017.529 7  -1424599.03725        42.000
 96  6  8 15  8 15.0000000  0  6G 2G27G19G26G 7G15
  21310983.773    -3531560.484 9   -174816.79629       104.000
  20523465.860    22520576.052 9    913951.04729        94.000
  22650196.255   -15098124.965 7   3705006.53326        60.000
  23530410.506    11287310.070 7  -2758406.84625        48.000
  20938158.604    -4906110.718 9  -3202795.56229        88.000
  23664565.832    10805917.010 7  -1427015.03625        42.000
 96  6  8 15  8 30.0000000  0  6G 2G27G19G26G 7G15
  21311599.067    -3528330.654 9   -172300.05329       104.000
  20527061.001    22539478.447 9    928680.17629        94.000
  22658476.943   -15054601.342 7   3738921.02926        60.000
  23526885.396    11268807.214 7  -2772824.67925        52.000
  20934109.218    -4927393.451 9  -3219379.51129        86.000
  23664007.888    10802954.452 7  -1429323.53925        44.000
 96  6  8 15  8 45.0000000  0  6G 2G27G19G26G 7G15
  21312221.826    -3525064.591 9   -169755.08229       106.000
  20530689.419    22558513.458 9    943512.64829        98.000
  22666771.780   -15011002.561 7   3772894.07526        58.000
  23523390.056    11250422.053 7  -2787150.77125        52.000
  20930079.617    -4948563.032 9  -3235875.28029        86.000
  23663473.388    10800129.030 7  -1431525.12725        44.000
 96  6  8 15  9  0.0000000  0  6G 2G27G19G26G 7G15
  21312846.443    -3521761.667 9   -167181.38429       108.000
  20534334.686    22577675.302 9    958443.92529        96.000
  22675084.216   -14967326.582 7   3806927.27926        58.000
  23519916.361    11232153.338 7  -2801386.16525        48.000
  20926077.358    -4969621.968 9  -3252284.85329        90.000
  23662957.505    10797440.171 7  -1433620.35425        44.000
 96  6  8 15  9 15.0000000  0  6G 2G27G19G26G 7G15
  21313484.522    -3518418.775 9   -164576.54429       104.000
  20538004.715    22596962.005 9    973472.52429        94.000
  22683408.823   -14923568.173 7   3841024.73126        60.000
  23516452.289    11214001.276 7  -2815530.59725        44.000
  20922086.521    -4990570.661 9  -3268608.49629        88.000
  23662476.848    10794888.744 7  -1435608.48025        48.000
 96  6  8 15  9 30.0000000  0  6G 2G27G19G26G 7G15
  21314128.386    -3515036.012 9   -161940.62629       108.000
  20541699.897    22616369.320 9    988595.09229        96.000
  22691750.788   -14879727.943 7   3875185.93026        58.000
  23513025.991    11195963.848 7  -2829585.75925        46.000
  20918120.746    -5011411.658 9  -3284848.24329        88.000
  23662009.682    10792473.012 6  -1437490.85925        38.000
 96  6  8 15  9 45.0000000  0  6G 2G27G19G26G 7G15
  21314776.237    -3511613.694 9   -159273.89629       104.000
  20545408.809    22635898.357 9   1003812.51929        94.000
  22700110.501   -14835805.005 7   3909411.57926        60.000
  23509611.145    11178044.924 7  -2843548.57425        46.000
  20914175.897    -5032142.141 9  -3301001.85829        88.000
  23661576.751    10790193.325 6  -1439267.25225        38.000
 96  6  8 15 10  0.0000000  0  6G 2G27G19G26G 7G15
  21315435.421    -3508153.820 9   -156577.89629       104.000
  20549151.748    22655549.144 9   1019124.80929        96.000
  22708483.824   -14791802.037 7   3943699.56126        58.000
  23506227.507    11160244.307 7  -2857419.18526        48.000
  20910254.792    -5052763.128 9  -3317070.15029        88.000
  23661170.952    10788049.267 7  -1440937.96125        42.000
 96  6  8 15 10 15.0000000  0  6G 2G27G19G26G 7G15
  21316104.468    -3504656.938 9   -153853.06429       106.000
  20552914.953    22675320.328 9   1034530.92029        98.000
  22716870.488   -14747721.274 7   3978048.19026        56.000
  23502861.288    11142560.991 7  -2871198.39026        50.000
  20906347.627    -5073275.158 9  -3333053.54829        86.000
  23660786.738    10786041.202 7  -1442502.65225        42.000
 96  6  8 15 10 30.0000000  0  6G 2G27G19G26G 7G15
  21316768.868    -3501120.805 9   -151097.64629       100.000
  20556700.822    22695209.096 9   1050028.64629        96.000
  22725278.737   -14703562.322 7   4012457.75726        56.000
  23499520.011    11124999.191 7  -2884882.91726        50.000
  20902470.501    -5093677.369 9  -3348951.37029        88.000
  23660430.465    10784170.176 7  -1443960.61925        44.000
 96  6  8 15 10 45.0000000  0  6G 2G27G19G26G 7G15
  21317459.200    -3497545.045 9   -148311.35129       106.000
  20560504.289    22715211.940 9   1065615.27329        96.000
  22733693.072   -14659325.755 7   4046927.77126        58.000
  23496195.073    11107559.288 7  -2898472.48326        50.000
  20898604.827    -5113969.635 9  -3364763.53029        88.000
  23660103.541    10782435.351 7  -1445312.46725        44.000
 96  6  8 15 11  0.0000000  0  6G 2G27G19G26G 7G15
  21318144.406    -3493927.366 9   -145492.37429       106.000
  20564332.609    22735327.150 9   1081289.45329        94.000
  22742122.156   -14615011.610 7   4081458.26026        56.000
  23492907.668    11090242.273 7  -2911966.24526        52.000
  20894765.595    -5134151.197 9  -3380489.41929        88.000
  23659801.320    10780837.792 6  -1446557.32725        40.000
 96  6  8 15 11 15.0000000  0  6G 2G27G19G26G 7G15
  21318840.554    -3490270.100 9   -142642.57529       108.000
  20568185.002    22755554.594 9   1097051.07929        96.000
  22750575.135   -14570624.212 7   4116045.80326        56.000
  23489634.055    11073050.252 7  -2925362.64826        54.000
  20890945.280    -5154221.903 9  -3396128.91329        88.000
  23659512.860    10779376.650 6  -1447695.89925        38.000
 96  6  8 15 11 30.0000000  0  6G 2G27G19G26G 7G15
  21319537.541    -3486577.212 9   -139765.01229       100.000
  20572053.284    22775895.039 9   1112900.77229        96.000
  22759030.931   -14526169.119 7   4150686.10126        58.000
  23486390.960    11055984.654 7  -2938660.55226        54.000
  20887149.817    -5174183.078 9  -3411683.08629        88.000
  23659266.730    10778050.114 7  -1448729.52225        42.000
 96  6  8 15 11 45.0000000  0  6G 2G27G19G26G 7G15
  21320251.407    -3482847.730 9   -136858.91729       102.000
  20575946.509    22796352.494 9   1128841.63929        96.000
  22767502.166   -14481648.975 7   4185377.10126        56.000
  23483163.454    11039049.344 7  -2951856.88826        54.000
  20883370.334    -5194031.793 9  -3427149.62129        88.000
  23659038.319    10776859.860 7  -1449656.98825        44.000
 96  6  8 15 12  0.0000000  0  6G 2G27G19G26G 7G15
  21320969.860    -3479083.048 9   -133925.40729       104.000
  20579863.177    22816925.863 9   1144872.82129        98.000
  22775987.972   -14437064.712 7   4220118.07426        54.000
  23479969.525    11022241.921 7  -2964953.61725        52.000
  20879614.803    -5213768.877 9  -3442529.15729        86.000
  23658839.346    10775805.286 6  -1450478.72625        38.000
 96  6  8 15 12 15.0000000  0  6G 2G27G19G26G 7G15
  21321691.160    -3475282.299 9   -130963.80629       102.000
  20583802.270    22837615.682 9   1160994.73629        98.000
  22784481.572   -14392417.958 7   4254907.72526        54.000
  23476793.194    11005560.124 7  -2977952.43425        50.000
  20875879.689    -5233395.474 9  -3457822.60429        88.000
  23658664.567    10774886.209 6  -1451194.93425        38.000
 96  6  8 15 12 30.0000000  0  6G 2G27G19G26G 7G15
  21322419.596    -3471447.220 9   -127975.44329       100.000
  20587759.171    22858421.937 9   1177207.39729        98.000
  22792992.560   -14347710.832 7   4289744.43926        54.000
  23473640.007    10989005.388 7  -2990852.24025        50.000
  20872163.432    -5252911.083 9  -3473029.57829        86.000
  23658516.140    10774101.505 6  -1451806.39025        40.000
 96  6  8 15 12 45.0000000  0  6G 2G27G19G26G 7G15
  21323155.527    -3467578.716 9   -124961.02429       102.000
  20591741.944    22879347.934 9   1193513.34629        98.000
  22801513.741   -14302941.402 7   4324629.66526        54.000
  23470517.219    10972581.496 7  -3003650.09625        52.000
  20868478.983    -5272311.360 9  -3488146.66629        88.000
  23658392.146    10773452.847 6  -1452311.84025        40.000
 96  6  8 15 13  0.0000000  0  6G 2G27G19G26G 7G15
  21323899.522    -3463681.219 9   -121924.01829       104.000
  20595741.445    22900392.602 9   1209911.79829        96.000
  22810044.665   -14258110.988 7   4359562.42626        54.000
  23467412.778    10956286.850 7  -3016347.22026        54.000
  20864806.135    -5291596.149 9  -3503173.77729        86.000
  23658288.028    10772939.268 7  -1452712.07225        42.000
 96  6  8 15 13 15.0000000  0  6G 2G27G19G26G 7G15
  21324643.756    -3459759.288 9   -118867.97629       102.000
  20599773.294    22921557.090 9   1226403.59829        98.000
  22818583.893   -14213221.310 7   4394541.35526        52.000
  23464340.385    10940120.794 7  -3028944.15226        54.000
  20861159.610    -5310764.601 9  -3518110.22429        86.000
  23658220.035    10772560.445 7  -1453007.26325        46.000
 96  6  8 15 13 30.0000000  0  6G 2G27G19G26G 7G15
  21325392.698    -3455812.694 9   -115792.71129       104.000
  20603819.742    22942844.051 9   1242990.80929        96.000
  22827140.869   -14168270.588 7   4429567.86226        54.000
  23461287.689    10924083.082 7  -3041441.05526        52.000
  20857533.890    -5329814.746 9  -3532954.49529        86.000
  23658175.366    10772316.746 7  -1453197.13425        44.000
 96  6  8 15 13 45.0000000  0  6G 2G27G19G26G 7G15
  21326156.749    -3451837.954 9   -112695.52629       108.000
  20607897.220    22964252.475 9   1259672.68529        96.000
  22835700.304   -14123256.788 7   4464643.55026        54.000
  23458262.303    10908168.418 7  -3053842.13426        48.000
  20853929.455    -5348747.157 9  -3547707.01929        86.000
  23658154.950    10772207.444 7  -1453282.31825        42.000
 96  6  8 15 14  0.0000000  0  6G 2G27G19G26G 7G15
  21326918.791    -3447834.878 9   -109576.24929       106.000
  20611993.194    22985780.648 9   1276447.87929        98.000
  22844280.933   -14078179.843 7   4499768.40726        54.000
  23455252.477    10892372.117 7  -3066150.94426        44.000
  20850347.535    -5367562.233 9  -3562368.11329        86.000
  23658161.546    10772232.114 7  -1453263.10925        42.000
 96  6  8 15 14 15.0000000  0  6G 2G27G19G26G 7G15
  21327684.431    -3443805.802 9   -106436.71129       104.000
  20616112.133    23007427.434 9   1293315.49029        98.000
  22852874.994   -14033039.958 7   4534942.31126        52.000
  23452267.623    10876693.312 7  -3078368.20626        46.000
  20846793.705    -5386259.827 9  -3576937.66629        88.000
  23658188.197    10772390.380 7  -1453139.79525        42.000
 96  6  8 15 14 30.0000000  0  6G 2G27G19G26G 7G15
  21328453.789    -3439750.244 9   -103276.54729       104.000
  20620257.603    23029194.527 9   1310276.85829        98.000
  22861473.251   -13987836.858 7   4570165.44526        54.000
  23449308.162    10861133.420 7  -3090492.80126        52.000
  20843254.265    -5404837.784 9  -3591414.00329        86.000
  23658241.440    10772683.289 7  -1452911.53725        42.000
 96  6  8 15 14 45.0000000  0  6G 2G27G19G26G 7G15
  21329233.069    -3435667.648 9   -100095.30729       104.000
  20624418.033    23051079.370 9   1327329.96929        98.000
  22870086.529   -13942568.883 7   4605439.16726        54.000
  23446369.806    10845689.981 7  -3102526.65926        52.000
  20839744.655    -5423295.133 9  -3605796.33429        88.000
  23658327.361    10773111.396 6  -1452577.96725        40.000
 96  6  8 15 15  0.0000000  0  6G 2G27G19G26G 7G15
  21330011.630    -3431554.682 9    -96890.40329       102.000
  20628603.525    23073079.174 9   1344472.67229        96.000
  22878715.994   -13897233.063 7   4640765.75626        52.000
  23443450.517    10830359.804 7  -3114472.24426        52.000
  20836253.362    -5441634.942 9  -3620087.10029        88.000
  23658430.070    10773674.801 6  -1452138.94725        40.000
 96  6  8 15 15 15.0000000  0  6G 2G27G19G26G 7G15
  21330804.431    -3427409.352 9    -93660.29129       104.000
  20632812.191    23095192.768 9   1361704.02529        96.000
  22887349.058   -13851831.589 7   4676143.51126        52.000
  23440556.410    10815138.352 7  -3126333.13726        48.000
  20832786.502    -5459862.706 9  -3634290.55329        88.000
  23658573.880    10774371.546 7  -1451596.07025        44.000
 96  6  8 15 15 30.0000000  0  6G 2G27G19G26G 7G15
  21331599.751    -3423225.263 9    -90399.97929       104.000
  20637044.601    23117422.459 9   1379025.83529        98.000
  22896009.403   -13806362.021 7   4711574.32726        54.000
  23437676.484    10800027.104 7  -3138108.15126        44.000
  20829339.189    -5477977.526 9  -3648405.98729        88.000
  23658731.301    10775203.011 7  -1450948.15425        44.000
 96  6  8 15 15 45.0000000  0  6G 2G27G19G26G 7G15
  21332401.096    -3419000.030 9    -87107.58629       100.000
  20641293.200    23139765.536 9   1396436.02329        98.000
  22904672.475   -13760824.107 7   4747058.39326        54.000
  23434822.820    10785026.680 7  -3149796.79626        44.000
  20825909.593    -5495981.640 9  -3662435.17829        88.000
  23658913.485    10776168.791 7  -1450195.61325        42.000
 96  6  8 15 16  0.0000000  0  6G 2G27G19G26G 7G15
  21333212.664    -3414735.962 9    -83784.95229       104.000
  20645569.170    23162221.214 9   1413933.92929        98.000
  22913349.728   -13715222.170 7   4782592.31126        52.000
  23431993.379    10770136.277 7  -3161399.72226        48.000
  20822507.068    -5513875.627 9  -3676378.53129        86.000
  23659118.783    10777268.438 7  -1449338.74125        42.000
 96  6  8 15 16 15.0000000  0  6G 2G27G19G26G 7G15
  21334030.708    -3410436.088 9    -80434.40729       102.000
  20649866.755    23184790.419 9   1431520.32529       102.000
  22922046.138   -13669557.666 7   4818174.96926        54.000
  23429183.664    10755359.300 7  -3172914.23326        46.000
  20819121.962    -5531659.847 9  -3690236.37629        88.000
  23659348.394    10778501.798 6  -1448377.69425        40.000
 96  6  8 15 16 30.0000000  0  6G 2G27G19G26G 7G15
  21334859.544    -3406098.260 9    -77054.29129       104.000
  20654181.787    23207474.907 9   1449196.53429       100.000
  22930741.738   -13623828.373 7   4853808.18326        54.000
  23426386.810    10740698.695 7  -3184338.07926        44.000
  20815758.920    -5549332.872 9  -3704007.55329        88.000
  23659607.475    10779869.529 6  -1447311.93125        40.000
 96  6  8 15 16 45.0000000  0  6G 2G27G19G26G 7G15
  21335688.230    -3401718.701 9    -73641.65229       104.000
  20658516.217    23230274.615 9   1466962.53929        98.000
  22939456.735   -13578032.991 7   4889492.88326        52.000
  23423621.584    10726154.826 7  -3195670.97526        46.000
  20812416.624    -5566897.232 9  -3717694.06229        86.000
  23659898.783    10781371.555 6  -1446141.47825        40.000
 96  6  8 15 17  0.0000000  0  6G 2G27G19G26G 7G15
  21336531.157    -3397295.272 9    -70194.84129       102.000
  20662879.876    23253188.809 9   1484817.72929        98.000
  22948184.592   -13532170.576 7   4925229.84026        52.000
  23420878.004    10711730.447 7  -3206910.73926        54.000
  20809095.013    -5584354.805 9  -3731297.37229        88.000
  23660208.229    10783007.499 7  -1444866.75525        42.000
 96  6  8 15 17 15.0000000  0  6G 2G27G19G26G 7G15
  21337378.910    -3392829.874 9    -66715.31029        98.000
  20667262.512    23276218.429 9   1502762.88929        96.000
  22956924.952   -13486242.476 7   4961017.93526        50.000
  23418161.764    10697428.519 7  -3218055.12326        56.000
  20805794.358    -5601705.678 9  -3744817.52729        90.000
  23660552.870    10784777.038 7  -1443487.90625        44.000
 96  6  8 15 17 30.0000000  0  6G 2G27G19G26G 7G15
  21338238.625    -3388327.713 9    -63207.14129       100.000
  20671666.763    23299363.123 9   1520797.70729        96.000
  22965674.514   -13440250.867 7   4996855.47425        50.000
  23415457.726    10683250.149 7  -3229103.24226        52.000
  20802509.412    -5618947.164 9  -3758252.45729        88.000
  23660911.242    10786679.291 7  -1442005.65625        42.000
 96  6  8 15 17 45.0000000  0  6G 2G27G19G26G 7G15
  21339105.834    -3383790.913 9    -59671.97829       100.000
  20676094.488    23322623.449 9   1538922.62629        98.000
  22974444.283   -13394196.389 7   5032742.04125        52.000
  23412785.646    10669198.035 7  -3240052.96026        48.000
  20799251.088    -5636076.979 9  -3771600.35529        88.000
  23661294.886    10788715.380 7  -1440419.08725        42.000
 96  6  8 15 18  0.0000000  0  6G 2G27G19G26G 7G15
  21339975.053    -3379222.521 9    -56112.19829       104.000
  20680542.478    23346000.595 9   1557138.56929        96.000
  22983219.988   -13348079.128 7   5068677.55725        54.000
  23410135.181    10655271.003 7  -3250905.17826        54.000
  20796011.471    -5653097.091 9  -3784862.79429        88.000
  23661712.587    10790885.165 7  -1438728.33625        42.000
 96  6  8 15 18 15.0000000  0  6G 2G27G19G26G 7G15
  21340844.031    -3374623.596 9    -52528.62629        96.000
  20685013.673    23369495.365 9   1575446.18129        98.000
  22992007.235   -13301899.327 7   5104661.79225        52.000
  23407510.018    10641466.958 7  -3261661.55526        52.000
  20792794.548    -5670008.663 9  -3798040.63129        90.000
  23662151.873    10793187.112 7  -1436934.58225        44.000
 96  6  8 15 18 30.0000000  0  6G 2G27G19G26G 7G15
  21341724.162    -3369992.623 9    -48920.08729        96.000
  20689509.031    23393108.033 9   1593845.63729        98.000
  23000801.526   -13255652.001 7   5140698.64925        48.000
  23404901.614    10627788.224 7  -3272320.33326        50.000
  20789596.752    -5686811.491 9  -3811133.73929        90.000
  23662614.093    10795622.723 7  -1435036.68425        46.000
 96  6  8 15 18 45.0000000  0  6G 2G27G19G26G 7G15
  21342615.625    -3365329.786 9    -45286.70829        98.000
  20694022.316    23416836.424 9   1612335.27929        98.000
  23009616.654   -13209338.872 7   5176786.76625        48.000
  23402327.296    10614232.861 7  -3282882.97326        50.000
  20786424.048    -5703507.121 9  -3824143.32229        92.000
  23663101.226    10798191.787 7  -1433034.84025        44.000
 96  6  8 15 19  0.0000000  0  6G 2G27G19G26G 7G15
  21343503.460    -3360639.624 9    -41632.05329        96.000
  20698557.397    23440678.025 9   1630913.14829        98.000
  23018444.133   -13162964.149 7   5212922.88625        50.000
  23399767.818    10600799.329 7  -3293350.68326        50.000
  20783263.096    -5720096.010 9  -3837069.73129        92.000
  23663616.869    10800893.605 7  -1430929.53725        44.000
 96  6  8 15 19 15.0000000  0  6G 2G27G19G26G 7G15
  21344403.857    -3355927.437 9    -37960.23229        98.000
  20703115.501    23464631.613 9   1649578.27129        96.000
  23027284.023   -13116528.971 7   5249106.07525        50.000
  23397237.150    10587487.201 7  -3303723.77326        56.000
  20780129.066    -5736573.884 9  -3849909.63329        90.000
  23664156.585    10803728.176 7  -1428720.82225        44.000
 96  6  8 15 19 30.0000000  0  6G 2G27G19G26G 7G15
  21345302.874    -3351196.413 9    -34273.70629       100.000
  20707698.099    23488698.135 9   1668331.38129        98.000
  23036124.903   -13070037.525 7   5285333.16225        48.000
  23394725.968    10574293.705 7  -3314004.40126        54.000
  20777011.704    -5752939.557 9  -3862662.10729        88.000
  23664717.137    10806694.983 7  -1426409.02425        44.000
 96  6  8 15 19 45.0000000  0  6G 2G27G19G26G 7G15
  21346208.457    -3346445.863 9    -30572.00129        96.000
  20712295.806    23512877.658 9   1687172.57729        98.000
  23044981.641   -13023491.108 7   5321603.05725        48.000
  23392236.042    10561216.147 7  -3324194.71926        54.000
  20773921.144    -5769196.967 9  -3875330.20829        92.000
  23665305.930    10809793.236 7  -1423994.78025        44.000
 96  6  8 15 20  0.0000000  0  6G 2G27G19G26G 7G15
  21347116.679    -3341674.164 9    -26853.81329        98.000
  20716919.085    23537171.732 9   1706103.00929        94.000
  23053845.905   -12976888.308 7   5357916.93225        48.000
  23389770.159    10548253.357 7  -3334295.60426        52.000
  20770847.611    -5785346.199 9  -3887914.02529        90.000
  23665923.502    10813023.482 7  -1421477.73125        44.000
 96  6  8 15 20 15.0000000  0  6G 2G27G19G26G 7G15
  21348025.320    -3336881.083 9    -23118.94229        96.000
  20721569.466    23561580.346 9   1725122.69529        98.000
  23062731.723   -12930229.426 7   5394274.44225        48.000
  23387322.923    10535403.829 7  -3344308.25126        52.000
  20767795.604    -5801385.073 9  -3900411.85829        92.000
  23666561.820    10816385.830 7  -1418857.71325        44.000
 96  6  8 15 20 30.0000000  0  6G 2G27G19G26G 7G15
  21348943.884    -3332067.822 9    -19368.34329        98.000
  20726229.350    23586100.025 9   1744228.92629        96.000
  23071622.488   -12883516.778 7   5430673.86625        50.000
  23384900.810    10522667.191 7  -3354232.90926        52.000
  20764764.253    -5817311.828 9  -3912822.31129        90.000
  23667224.631    10819880.018 7  -1416134.98525        44.000
 96  6  8 15 20 45.0000000  0  6G 2G27G19G26G 7G15
  21349862.148    -3327233.741 9    -15601.54829       100.000
  20730917.804    23610728.482 9   1763419.92629        96.000
  23080520.598   -12836752.825 7   5467113.26325        48.000
  23382502.081    10510044.937 7  -3364068.43126        56.000
  20761757.934    -5833124.331 9  -3925143.74529        90.000
  23667916.732    10823506.459 7  -1413309.21625        44.000
 96  6  8 15 21  0.0000000  0  6G 2G27G19G26G 7G15
  21350786.588    -3322377.728 9    -11817.64129        98.000
  20735621.728    23635466.193 9   1782696.04329        96.000
  23089425.184   -12789938.380 7   5503592.02225        46.000
  23380114.743    10497538.666 7  -3373813.58326        52.000
  20758768.104    -5848822.512 9  -3937376.10129        92.000
  23668630.088    10827265.195 7  -1410380.33425        46.000
 96  6  8 15 21 15.0000000  0  6G 2G27G19G26G 7G15
  21351719.092    -3317499.687 9     -8016.56929       100.000
  20740350.384    23660312.760 9   1802056.99329        96.000
  23098349.615   -12743073.335 7   5540110.25425        46.000
  23377757.026    10485148.079 7  -3383468.60026        50.000
  20755802.047    -5864406.982 9  -3949519.83629        90.000
  23669371.505    10831155.855 7  -1407348.66425        44.000
 96  6  8 15 21 30.0000000  0  6G 2G27G19G26G 7G15
  21352646.590    -3312596.601 9     -4196.00229       100.000
  20745102.784    23685270.690 9   1821504.72329        98.000
  23107276.355   -12696155.212 7   5576669.82425        48.000
  23375428.957    10472875.148 7  -3393031.91326        46.000
  20752858.955    -5879881.532 9  -3961577.92729        92.000
  23670138.404    10835178.477 7  -1404214.16625        44.000
 96  6  8 15 21 45.0000000  0  6G 2G27G19G26G 7G15
  21353590.157    -3307664.912 9      -353.13929       100.000
  20749873.921    23710342.913 9   1841041.50629        96.000
  23116210.530   -12649180.689 7   5613273.27425        48.000
  23373115.849    10460719.614 7  -3402503.77826        48.000
  20749933.460    -5895251.255 9  -3973554.33729        90.000
  23670934.203    10839333.355 7  -1400976.58525        48.000
 96  6  8 15 22  0.0000000  0  6G 2G27G19G26G 7G15
  21354530.486    -3302705.583 9      3511.26729       100.000
  20754663.945    23735525.846 9   1860664.56129        96.000
  23125158.706   -12602149.322 7   5649921.01125        46.000
  23370820.787    10448680.441 7  -3411884.95526        46.000
  20747026.283    -5910516.395 9  -3985449.25129        90.000
  23671745.651    10843618.798 7  -1397637.30225        46.000
 96  6  8 15 22 15.0000000  0  6G 2G27G19G26G 7G15
  21355476.691    -3297717.208 9      7398.31129        98.000
  20759477.713    23760819.054 9   1880373.53129        94.000
  23134123.939   -12555060.443 7   5686613.65225        46.000
  23368549.740    10436761.827 7  -3421172.17626        48.000
  20744142.939    -5925672.432 9  -3997259.14529        90.000
  23672583.481    10848035.795 7  -1394195.51225        46.000
 96  6  8 15 22 30.0000000  0  6G 2G27G19G26G 7G15
  21356440.044    -3292697.462 9     11309.78029       104.000
  20764312.046    23786221.880 9   1900167.93329        94.000
  23143094.689   -12507913.373 7   5723351.59625        46.000
  23366306.513    10424967.437 7  -3430362.63926        50.000
  20741278.272    -5940721.764 9  -4008985.90129        88.000
  23673455.188    10852584.407 6  -1390651.14625        40.000
 96  6  8 15 22 45.0000000  0  6G 2G27G19G26G 7G15
  21357398.810    -3287646.457 9     15245.63029       100.000
  20769165.776    23811733.517 9   1920047.12329        94.000
  23152080.068   -12460708.374 7   5760134.71825        46.000
  23364086.549    10413299.320 7  -3439454.68326        48.000
  20738436.239    -5955667.387 9  -4020631.85329        90.000
  23674343.053    10857263.749 7  -1387004.89425        46.000
 96  6  8 15 23  0.0000000  0  6G 2G27G19G26G 7G15
  21358364.442    -3282564.771 9     19205.37929       102.000
  20774045.378    23837356.683 9   1940013.21229        96.000
  23161068.836   -12413445.223 7   5796963.11925        48.000
  23361886.103    10401758.214 7  -3448447.77226        46.000
  20735611.295    -5970512.477 9  -4032199.43729        88.000
  23675259.459    10862073.347 7  -1383257.15325        44.000
 96  6  8 15 23 15.0000000  0  6G 2G27G19G26G 7G15
  21359333.131    -3277453.669 9     23188.03629        96.000
  20778938.560    23863093.686 9   1960068.00629        94.000
  23170077.929   -12366122.486 7   5833837.91625        48.000
  23359717.194    10390341.088 7  -3457344.23326        48.000
  20732804.188    -5985259.835 9  -4043690.89329        88.000
  23676198.289    10867013.408 7  -1379407.82225        44.000
 96  6  8 15 23 30.0000000  0  6G 2G27G19G26G 7G15
  21360311.564    -3272313.096 9     27193.67429        98.000
  20783857.915    23888944.557 9   1980211.53229        92.000
  23179097.155   -12318740.385 7   5870758.99325        48.000
  23357570.800    10379046.431 7  -3466145.25126        52.000
  20730017.797    -5999908.940 9  -4055105.78929        88.000
  23677162.871    10872084.776 7  -1375456.13625        44.000
 96  6  8 15 23 45.0000000  0  6G 2G27G19G26G 7G15
  21361297.432    -3267145.587 9     31220.29729        98.000
  20788801.222    23914907.686 9   2000442.52929        94.000
  23188121.298   -12271300.033 7   5907725.44025        46.000
  23355441.764    10367868.501 7  -3474855.35026        50.000
  20727249.184    -6014459.515 9  -4066443.89129        90.000
  23678149.248    10877285.014 7  -1371403.97225        44.000
 96  6  8 15 24  0.0000000  0  6G 2G27G19G26G 7G15
  21362289.265    -3261952.986 9     35266.46529       100.000
  20793763.537    23940979.019 9   2020757.84829        92.000
  23197155.783   -12223805.440 7   5944734.22025        46.000
  23353342.467    10356806.093 7  -3483475.41626        52.000
  20724498.079    -6028907.253 9  -4077701.87129        90.000
  23679166.744    10882614.135 7  -1367251.44425        46.000
 96  6  8 15 24 15.0000000  0  6G 2G27G19G26G 7G15
  21363279.509    -3256735.311 9     39332.18829        98.000
  20798744.049    23967157.137 9   2041156.36529        94.000
  23206208.976   -12176259.465 7   5981783.01825        48.000
  23351253.843    10345859.620 7  -3492005.14026        50.000
  20721769.398    -6043248.932 9  -4088877.20029        90.000
  23680213.889    10888072.760 7  -1362997.95025        46.000
 96  6  8 15 24 30.0000000  0  6G 2G27G19G26G 7G15
  21364276.439    -3251492.808 9     43417.22829       102.000
  20803748.425    23993443.068 9   2061638.90329        94.000
  23215263.308   -12128662.337 7   6018871.67125        48.000
  23349196.458    10335027.177 7  -3500446.02026        52.000
  20719061.432    -6057488.109 9  -4099972.66929        90.000
  23681273.236    10893661.102 7  -1358643.40225        46.000
 96  6  8 15 24 45.0000000  0  6G 2G27G19G26G 7G15
  21365278.016    -3246228.926 9     47518.95729        98.000
  20808770.668    24019834.653 9   2082203.75829        90.000
  23224331.040   -12081017.375 7   6055997.54325        48.000
  23347154.481    10324303.414 7  -3508802.18726        52.000
  20716367.377    -6071626.987 9  -4110989.96729        88.000
  23682360.463    10899378.974 7  -1354187.94625        48.000
 96  6  8 15 25  0.0000000  0  6G 2G27G19G26G 7G15
  21366286.398    -3240946.762 9     51634.93129       104.000
  20813808.890    24046332.471 9   2102851.39329        90.000
  23233405.128   -12033328.203 7   6093157.88425        48.000
  23345131.032    10313683.532 7  -3517077.41926        54.000
  20713702.342    -6085665.058 9  -4121928.73029        92.000
  23683467.297    10905225.994 7  -1349631.84825        42.000
 96  6  8 15 25 15.0000000  0  6G 2G27G19G26G 7G15
  21367297.927    -3235646.180 9     55765.24729       100.000
  20818875.652    24072934.619 9   2123580.32929        94.000
  23242492.078   -11985593.928 7   6130353.41625        46.000
  23343134.504    10303166.075 7  -3525272.84726        52.000
  20711047.710    -6099600.419 9  -4132787.45929        90.000
  23684602.971    10911202.640 7  -1344974.74025        42.000
 96  6  8 15 25 30.0000000  0  6G 2G27G19G26G 7G15
  21368304.031    -3230329.022 9     59908.47629        98.000
  20823956.865    24099637.761 9   2144387.95429        94.000
  23251581.455   -11937816.791 7   6167582.32325        46.000
  23341149.998    10292751.148 7  -3533388.39726        50.000
  20708416.102    -6113430.062 9  -4143563.80429        90.000
  23685764.157    10917307.984 7  -1340217.35025        42.000
 96  6  8 15 25 45.0000000  0  6G 2G27G19G26G 7G15
  21369321.167    -3224992.928 9     64066.46729       100.000
  20829053.996    24126441.926 9   2165274.31029        94.000
  23260680.096   -11889996.399 7   6204844.95225        44.000
  23339186.088    10282443.675 7  -3541420.21226        48.000
  20705801.762    -6127150.866 9  -4154255.34529        88.000
  23686951.545    10923542.475 7  -1335359.30725        44.000
 96  6  8 15 26  0.0000000  0  6G 2G27G19G26G 7G15
  21370338.093    -3219637.025 9     68239.89129        98.000
  20834177.389    24153348.920 9   2186240.78229        94.000
  23269789.530   -11842133.389 7   6242140.76625        44.000
  23337244.152    10272247.119 7  -3549365.59626        52.000
  20703214.823    -6140761.147 9  -4164860.75529        90.000
  23688162.646    10929906.275 7  -1330400.53025        42.000
 96  6  8 15 26 15.0000000  0  6G 2G27G19G26G 7G15
  21371360.325    -3214260.486 9     72429.39129        98.000
  20839313.523    24180359.547 9   2207288.01429        94.000
  23278905.709   -11794228.844 7   6279468.92225        46.000
  23335329.078    10262166.447 7  -3557220.67026        58.000
  20700644.762    -6154263.465 9  -4175382.04329        90.000
  23689397.461    10936399.542 6  -1325340.86025        40.000
 96  6  8 15 26 30.0000000  0  6G 2G27G19G26G 7G15
  21372388.164    -3208863.511 9     76634.81929        96.000
  20844474.331    24207475.940 9   2228417.65229        98.000
  23288031.271   -11746281.084 7   6316830.76325        46.000
  23333433.580    10252201.878 7  -3564985.26726        56.000
  20698096.886    -6167658.873 9  -4185820.01829        88.000
  23690656.860    10943021.610 7  -1320180.82625        42.000
 96  6  8 15 26 45.0000000  0  6G 2G27G19G26G 7G15
  21373424.546    -3203446.906 9     80855.54729       100.000
  20849653.815    24234699.446 9   2249630.75129        96.000
  23297160.791   -11698289.905 7   6354226.45525        44.000
  23331555.350    10242356.780 7  -3572656.78926        54.000
  20695568.016    -6180946.249 9  -4196173.82129        88.000
  23691938.832    10949773.199 7  -1314919.84725        42.000
 96  6  8 15 27  0.0000000  0  6G 2G27G19G26G 7G15
  21374457.871    -3198010.392 9     85091.77829       100.000
  20854854.944    24262031.122 9   2270928.15029        94.000
  23306301.074   -11650254.732 7   6391656.47325        44.000
  23329713.246    10232635.441 7  -3580231.87526        56.000
  20693058.903    -6194124.589 9  -4206442.66729        88.000
  23693250.334    10956653.716 7  -1309558.40325        42.000
 96  6  8 15 27 15.0000000  0  6G 2G27G19G26G 7G15
  21375493.744    -3192551.830 9     89345.19929       100.000
  20860080.627    24289472.752 9   2292311.23329        96.000
  23315451.639   -11602172.296 7   6429123.30525        46.000
  23327884.901    10223041.065 7  -3587708.03826        54.000
  20690570.506    -6207192.269 9  -4216625.26429        90.000
  23694588.128    10963662.866 7  -1304096.73725        42.000
 96  6  8 15 27 30.0000000  0  6G 2G27G19G26G 7G15
  21376536.452    -3187068.333 9     93618.05729        98.000
  20865323.007    24317023.446 9   2313779.29329        98.000
  23324608.619   -11554041.714 6   6466627.58825        40.000
  23326081.440    10213576.094 7  -3595083.34926        50.000
  20688106.362    -6220149.837 9  -4226722.04929        92.000
  23695946.398    10970800.515 7  -1298534.93025        44.000
 96  6  8 15 27 45.0000000  0  6G 2G27G19G26G 7G15
  21377583.807    -3181558.836 9     97911.16229        98.000
  20870587.063    24344685.013 9   2335333.74629        96.000
  23333781.789   -11505862.240 6   6504169.96525        40.000
  23324305.529    10204240.082 7  -3602358.14126        54.000
  20685659.936    -6232997.559 9  -4236733.27929        88.000
  23697331.829    10978067.408 7  -1292872.43925        44.000
 96  6  8 15 28  0.0000000  0  6G 2G27G19G26G 7G15
  21378637.877    -3176023.681 9    102224.25329        98.000
  20875873.663    24372458.629 9   2356975.51629        98.000
  23342959.425   -11457634.395 7   6541750.06925        42.000
  23322553.632    10195030.670 7  -3609534.30226        54.000
  20683235.994    -6245739.737 9  -4246662.24629        90.000
  23698741.722    10985463.435 7  -1287109.33925        44.000
 96  6  8 15 28 15.0000000  0  6G 2G27G19G26G 7G15
  21379697.164    -3170464.929 9    106555.74429        98.000
  20881173.125    24400341.794 9   2378702.63929        96.000
  23352140.150   -11409360.767 6   6579365.84325        40.000
  23320826.228    10185945.277 7  -3616613.88426        52.000
  20680834.146    -6258378.116 9  -4256510.34229        90.000
  23700173.291    10992987.868 7  -1281246.14725        46.000
 96  6  8 15 28 30.0000000  0  6G 2G27G19G26G 7G15
  21380758.879    -3164883.306 9    110905.05029        98.000
  20886503.794    24428333.059 9   2400513.99229        96.000
  23361337.003   -11361039.999 7   6617018.39625        42.000
  23319119.000    10176981.261 7  -3623598.82026        54.000
  20678447.798    -6270912.195 9  -4266277.15929        88.000
  23701622.668    11000641.378 6  -1275282.37625        40.000
 96  6  8 15 28 45.0000000  0  6G 2G27G19G26G 7G15
  21381825.570    -3159277.568 9    115273.14629        96.000
  20891853.651    24456432.775 9   2422409.86629        98.000
  23370541.171   -11312670.069 7   6654709.23425        42.000
  23317433.537    10168135.494 7  -3630491.62826        52.000
  20676078.689    -6283341.265 9  -4275962.15829        90.000
  23703103.103    11008424.429 6  -1269217.63925        38.000
 96  6  8 15 29  0.0000000  0  6G 2G27G19G26G 7G15
  21382895.230    -3153645.553 9    119661.73829        98.000
  20897217.298    24484639.197 9   2444388.88529        98.000
  23379763.716   -11264251.713 7   6692437.79425        42.000
  23315776.644    10159404.147 7  -3637295.29726        52.000
  20673737.489    -6295667.231 9  -4285566.79229        90.000
  23704611.659    11016337.238 6  -1263051.85025        40.000
 96  6  8 15 29 15.0000000  0  6G 2G27G19G26G 7G15
  21383970.285    -3147985.973 9    124071.77529        98.000
  20902604.238    24512950.372 9   2466449.52129        98.000
  23388977.538   -11215786.519 7   6730202.81725        42.000
  23314131.952    10150781.336 7  -3644014.36326        56.000
  20671409.751    -6307892.507 9  -4295092.99029        88.000
  23706140.870    11024379.247 6  -1256785.36225        40.000
 96  6  8 15 29 30.0000000  0  6G 2G27G19G26G 7G15
  21385055.204    -3142299.936 9    128502.45129        98.000
  20908015.642    24541363.561 9   2488589.64529       100.000
  23398207.578   -11167277.266 7   6768002.14325        42.000
  23312512.384    10142264.144 7  -3650651.14126        56.000
  20669101.229    -6320018.257 9  -4304541.63429        88.000
  23707702.729    11032550.286 6  -1250418.33725        40.000
 96  6  8 15 29 45.0000000  0  6G 2G27G19G26G 7G15
  21386139.734    -3136589.948 9    132951.77829        94.000
  20913441.676    24569878.590 9   2510809.14529        98.000
  23407454.826   -11118724.932 7   6805835.14725        42.000
  23310907.115    10133852.117 7  -3657205.98726        56.000
  20666811.774    -6332045.921 9  -4313913.83129        88.000
  23709278.918    11040850.041 7  -1243951.02725        42.000
 96  6  8 15 30  0.0000000  0  6G 2G27G19G26G 7G15
  21387232.087    -3130855.288 9    137420.34929        98.000
  20918883.748    24598497.985 9   2533109.94829        96.000
  23416696.768   -11070129.432 7   6843701.77525        42.000
  23309333.564    10125547.045 7  -3663677.50126        56.000
  20664543.904    -6343974.639 9  -4323208.93729        90.000
  23710876.722    11049279.235 7  -1237382.82625        42.000
 96  6  8 15 30 15.0000000  0  6G 2G27G19G26G 7G15
  21388329.657    -3125095.260 9    141908.67729        96.000
  20924347.436    24627222.616 9   2555492.77529        96.000
  23425956.668   -11021490.627 7   6881602.15025        42.000
  23307766.549    10117349.991 7  -3670064.81826        56.000
  20662290.454    -6355802.138 9  -4332425.17429        88.000
  23712513.079    11057837.278 6  -1230714.20525        40.000
 96  6  8 15 30 30.0000000  0  6G 2G27G19G26G 7G15
  21389430.286    -3119309.399 9    146417.13829       100.000
  20929834.687    24656053.736 9   2577958.56629        98.000
  23435218.906   -10972805.590 7   6919538.43325        42.000
  23306228.554    10109261.503 7  -3676367.53126        52.000
  20660064.135    -6367526.352 9  -4341560.92229        90.000
  23714158.430    11066525.356 6  -1223944.24025        38.000
 96  6  8 15 30 45.0000000  0  6G 2G27G19G26G 7G15
  21390538.318    -3113498.639 9    150944.99529       100.000
  20935344.782    24684993.108 9   2600508.72029        96.000
  23444492.955   -10924073.726 7   6957511.24525        44.000
  23304708.936    10101281.497 7  -3682585.70526        54.000
  20657848.609    -6379149.378 9  -4350617.82529        90.000
  23715843.953    11075342.205 7  -1217073.98225        42.000
 96  6  8 15 31  0.0000000  0  6G 2G27G19G26G 7G15
  21391648.870    -3107663.529 9    155491.82629       102.000
  20940868.998    24714041.345 9   2623143.68529        96.000
  23453770.423   -10875297.317 7   6995518.86325        46.000
  23303215.190    10093413.139 7  -3688716.89626        54.000
  20655657.156    -6390670.522 9  -4359595.34229        90.000
  23717538.080    11084288.237 6  -1210103.06425        38.000
 96  6  8 15 31 15.0000000  0  6G 2G27G19G26G 7G15
  21392759.301    -3101807.523 9    160054.94629        98.000
  20946417.827    24743196.666 9   2645862.11829        96.000
  23463061.560   -10826479.702 7   7033558.51725        44.000
  23301743.389    10085659.651 7  -3694758.61326        56.000
  20653485.819    -6402090.433 9  -4368493.97729        88.000
  23719264.405    11093361.931 6  -1203032.68525        36.000
 96  6  8 15 31 30.0000000  0  6G 2G27G19G26G 7G15
  21393878.576    -3095932.468 9    164632.91329       100.000
  20951987.851    24772458.350 9   2668663.41329        96.000
  23472356.895   -10777618.115 6   7071632.44825        40.000
  23300292.843    10078025.662 7  -3700707.21726        56.000
  20651333.279    -6413406.732 9  -4377311.87529        86.000
  23721016.512    11102563.705 6  -1195862.48425        40.000
 96  6  8 15 31 45.0000000  0  6G 2G27G19G26G 7G15
  21395000.369    -3090038.509 9    169225.59429       102.000
  20957579.040    24801825.791 9   2691547.11429        98.000
  23481664.882   -10728710.197 7   7109742.49125        42.000
  23298855.398    10070512.857 7  -3706561.33626        52.000
  20649198.877    -6424618.710 9  -4386048.48529        90.000
  23722788.945    11111893.324 6  -1188592.65325        38.000
 96  6  8 15 32  0.0000000  0  6G 2G27G19G26G 7G15
  21396125.580    -3084124.933 9    173833.56629       100.000
  20963183.510    24831298.786 9   2714513.06829        94.000
  23490976.825   -10679753.269 6   7147890.66425        40.000
  23297452.879    10063122.726 7  -3712319.88826        52.000
  20647085.610    -6435723.734 9  -4394701.74529        90.000
  23724592.826    11121351.289 6  -1181222.81325        38.000
 96  6  8 15 32 15.0000000  0  6G 2G27G19G26G 7G15
  21397257.657    -3078192.557 9    178456.20229       102.000
  20968814.182    24860874.989 9   2737559.45629        96.000
  23500308.345   -10630747.697 7   7186076.77925        42.000
  23296068.048    10055854.000 7  -3717983.81826        56.000
  20644990.960    -6446721.234 9  -4403271.22429        88.000
  23726418.532    11130937.473 6  -1173753.07725        38.000
 96  6  8 15 32 30.0000000  0  6G 2G27G19G26G 7G15
  21398388.834    -3072243.506 9    183091.81429       102.000
  20974459.784    24890552.837 9   2760685.02129        96.000
  23509644.032   -10581692.311 7   7224301.76125        44.000
  23294706.960    10048704.579 7  -3723554.82026        58.000
  20642919.844    -6457611.640 9  -4411757.26129        88.000
  23728265.733    11140653.010 6  -1166182.54025        40.000
 96  6  8 15 32 45.0000000  0  6G 2G27G19G26G 7G15
  21399524.807    -3066277.600 9    187740.55129       102.000
  20980123.643    24920330.883 9   2783888.68329        92.000
  23518989.732   -10532588.866 7   7262564.12825        42.000
  23293367.847    10041672.928 7  -3729034.07926        54.000
  20640871.752    -6468396.318 9  -4420160.90529        90.000
  23730136.708    11150497.467 6  -1158511.54425        38.000
 96  6  8 15 33  0.0000000  0  6G 2G27G19G26G 7G15
  21400658.952    -3060293.105 9    192403.80929       100.000
  20985814.303    24950207.528 9   2807169.17329        96.000
  23528335.942   -10483438.918 6   7300862.78625        40.000
  23292051.368    10034759.980 7  -3734420.78326        50.000
  20638832.444    -6479074.168 9  -4428481.29829        88.000
  23732039.461    11160471.480 6  -1150739.60725        36.000
 96  6  8 15 33 15.0000000  0  6G 2G27G19G26G 7G15
  21401800.562    -3054291.115 9    197080.67429       100.000
  20991517.435    24980178.234 9   2830522.96729        96.000
  23537706.345   -10434243.651 6   7339196.66825        40.000
  23290758.783    10027962.218 7  -3739717.74426        52.000
  20636822.965    -6489648.703 9  -4436721.20329        90.000
  23733970.064    11170572.764 6  -1142868.45925        40.000
 96  6  8 15 33 30.0000000  0  6G 2G27G19G26G 7G15
  21402947.808    -3048267.517 9    201774.38229       100.000
  20997237.865    25010245.254 9   2853951.77429        92.000
  23547074.380   -10384999.099 7   7377568.97825        44.000
  23289487.603    10021280.611 7  -3744924.17526        56.000
  20634831.923    -6500120.257 9  -4444880.86329        88.000
  23735904.116    11180803.606 6  -1134896.36225        38.000
 96  6  8 15 33 45.0000000  0  6G 2G27G19G26G 7G15
  21404097.721    -3042223.132 9    206484.28129       100.000
  21002977.451    25040408.059 9   2877455.25929        94.000
  23556450.539   -10335706.805 7   7415978.57425        44.000
  23288241.156    10014710.355 7  -3750043.88226        54.000
  20632857.040    -6510490.319 9  -4452961.42329        88.000
  23737880.827    11191162.445 6  -1126824.60025        38.000
 96  6  8 15 34  0.0000000  0  6G 2G27G19G26G 7G15
  21405255.940    -3036159.842 9    211208.91529       102.000
  21008735.685    25070670.902 9   2901036.68729        94.000
  23565844.505   -10286367.635 7   7454424.60525        42.000
  23287015.784    10008251.583 7  -3755076.72626        56.000
  20630904.012    -6520758.922 9  -4460962.93029        88.000
  23739875.736    11201650.419 6  -1118652.17525        40.000
 96  6  8 15 34 15.0000000  0  6G 2G27G19G26G 7G15
  21406409.121    -3030079.122 9    215947.12829       100.000
  21014511.247    25101034.681 9   2924696.75529        92.000
  23575241.950   -10236987.878 7   7492902.35525        42.000
  23285807.201    10001900.053 7  -3760025.98726        60.000
  20628968.312    -6530928.271 9  -4468887.10329        88.000
  23741890.971    11212265.784 6  -1110380.46325        40.000
 96  6  8 15 34 30.0000000  0  6G 2G27G19G26G 7G15
  21407576.843    -3023978.172 9    220701.11729       104.000
  21020311.061    25131503.225 9   2948438.47429        92.000
  23584637.955   -10187568.397 6   7531410.95825        36.000
  23284615.856     9995656.304 7  -3764891.25226        56.000
  20627050.360    -6541000.509 9  -4476735.58829        88.000
  23743942.331    11223009.290 7  -1102008.89525        42.000
 96  6  8 15 34 45.0000000  0  6G 2G27G19G26G 7G15
  21408737.819    -3017852.798 9    225474.12529       102.000
  21026131.232    25162078.392 9   2972263.26328        94.000
  23594053.956   -10138109.575 6   7569950.23125        36.000
  23283449.513     9989520.952 7  -3769672.06526        54.000
  20625153.603    -6550977.357 9  -4484509.76129        88.000
  23746006.222    11233880.736 6  -1093537.64525        38.000
 96  6  8 15 35  0.0010000  0  6G 2G27G19G26G 7G15
  21409908.569    -3011701.639 9    230267.21829        98.000
  21031969.570    25192760.551 9   2996171.42828        94.000
  23603473.136   -10088610.576 6   7608520.86025        34.000
  23282296.571     9983496.793 7  -3774366.20026        52.000
  20623270.037    -6560860.104 9  -4492210.61629        88.000
  23748102.701    11244879.890 7  -1084966.89025        42.000
 96  6  8 15 35 15.0010000  0  6G 2G27G19G26G 7G15
  21411081.747    -3005524.903 9    235080.27029        96.000
  21037827.635    25223545.506 9   3020159.67528        90.000
  23612898.101   -10039076.133 6   7647119.09125        36.000
  23281174.958     9977585.071 7  -3778972.73726        54.000
  20621410.874    -6570645.636 9  -4499835.70829        92.000
  23750212.220    11256006.447 6  -1076296.85325        38.000
 96  6  8 15 35 30.0010000  0  6G 2G27G19G26G 7G15
  21412265.597    -2999322.799 9    239913.07029       100.000
  21043704.407    25254436.253 9   3044230.38128        90.000
  23622331.310    -9989503.684 6   7685746.97625        36.000
  23280074.720     9971786.459 7  -3783491.15026        62.000
  20619566.341    -6580333.774 9  -4507384.89429        90.000
  23752362.362    11267261.066 6  -1067527.05425        40.000
 96  6  8 15 35 45.0010000  0  6G 2G27G19G26G 7G15
  21413447.139    -2993096.559 9    244764.66629        98.000
  21049603.483    25285430.758 9   3068381.93128        90.000
  23631781.398    -9939895.571 6   7724402.56325        36.000
  23278988.092     9966098.579 7  -3787923.29226        54.000
  20617738.836    -6589921.078 9  -4514855.52629        90.000
  23754534.478    11278642.369 7  -1058658.56025        44.000
 96  6  8 15 36  0.0010000  0  6G 2G27G19G26G 7G15
  21414637.135    -2986846.416 9    249634.90329       100.000
  21055521.985    25316530.032 9   3092615.11328        90.000
  23641223.512    -9890250.625 6   7763086.83025        36.000
  23277926.047     9960522.613 7  -3792268.22026        52.000
  20615933.456    -6599405.355 9  -4522245.87629        90.000
  23756718.736    11290150.929 7  -1049690.82525        46.000
 96  6  8 15 36 15.0010000  0  6G 2G27G19G26G 7G15
  21415830.189    -2980569.858 9    254525.72029       100.000
  21061456.827    25347732.394 9   3116928.62628        92.000
  23650671.621    -9840569.442 6   7801799.44125        34.000
  23276886.847     9955058.671 7  -3796525.83626        58.000
  20614151.730    -6608786.219 9  -4529555.64729        88.000
  23758930.994    11301785.782 7  -1040624.71325        46.000
 96  6  8 15 36 30.0010000  0  6G 2G27G19G26G 7G15
  21417030.079    -2974260.526 9    259442.08229        98.000
  21067415.592    25379038.348 9   3141322.86128        90.000
  23660135.709    -9790847.878 6   7840543.47325        32.000
  23275869.591     9949713.823 7  -3800690.65726        54.000
  20612389.130    -6618060.031 9  -4536781.99529        90.000
  23761166.667    11313549.030 7  -1031458.54625        42.000
 96  6  8 15 36 45.0010000  0  6G 2G27G19G26G 7G15
  21418240.850    -2967921.145 9    264381.84429       100.000
  21073395.222    25410444.253 9   3165794.97728        92.000
  23669605.463    -9741083.288 6   7879321.08525        34.000
  23274878.597     9944490.093 7  -3804761.12126        54.000
  20610642.599    -6627228.302 9  -4543926.10829        88.000
  23763433.038    11325439.572 7  -1022193.22825        42.000
 96  6  8 15 37  0.0010000  0  6G 2G27G19G26G 7G15
  21419449.853    -2961555.730 9    269341.91629        98.000
  21079385.795    25441945.493 9   3190341.38928        90.000
  23679081.783    -9691276.754 6   7918131.34225        32.000
  23273905.830     9939386.097 7  -3808738.27326        60.000
  20608918.613    -6636288.018 9  -4550985.62229        92.000
  23765719.375    11337456.806 6  -1012829.14225        40.000
 96  6  8 15 37 15.0010000  0  6G 2G27G19G26G 7G15
  21420665.692    -2955167.750 9    274319.53129       100.000
  21085398.312    25473542.298 9   3214962.25428        90.000
  23688574.081    -9641426.958 6   7956975.19725        32.000
  23272957.467     9934402.047 7  -3812621.99026        58.000
  20607216.751    -6645236.954 9  -4557958.82429        88.000
  23768026.907    11349601.165 7  -1003366.03825        42.000
 96  6  8 15 37 30.0010000  0  6G 2G27G19G26G 7G15
  21421884.108    -2948758.147 9    279314.03229        98.000
  21091431.306    25505237.332 9   3239659.65928        90.000
  23698065.661    -9591533.120 6   7995853.46525        34.000
  23272034.406     9929536.583 7  -3816413.25526        54.000
  20605533.206    -6654075.997 9  -4564846.39329        90.000
  23770358.034    11361872.964 6   -993803.64925        40.000
 96  6  8 15 37 45.0010000  0  6G 2G27G19G26G 7G15
  21423112.118    -2942326.428 9    284325.75129       100.000
  21097484.206    25537031.727 9   3264434.51028        90.000
  23707569.861    -9541595.329 6   8034766.03025        36.000
  23271132.720     9924790.869 7  -3820111.18426        60.000
  20603874.095    -6662807.579 9  -4571650.21529        90.000
  23772720.518    11374272.281 7   -984141.84825        42.000
 96  6  8 15 38  0.0010000  0  6G 2G27G19G26G 7G15
  21424334.702    -2935873.951 9    289353.65129        98.000
  21103553.324    25568925.705 9   3289286.95728        90.000
  23717083.235    -9491613.042 6   8073713.27425        38.000
  23270249.921     9920164.150 7  -3823716.43826        60.000
  20602228.294    -6671435.576 9  -4578373.33329        88.000
  23775109.954    11386798.091 7   -974381.46525        44.000
 96  6  8 15 38 15.0010000  0  6G 2G27G19G26G 7G15
  21425570.596    -2929402.322 9    294396.47129        98.000
  21109639.920    25600922.015 9   3314219.13028        90.000
  23726600.956    -9441587.206 6   8112694.41225        40.000
  23269386.069     9915658.009 7  -3827227.78226        52.000
  20600607.706    -6679961.735 9  -4585017.10929        86.000
  23777514.080    11399450.962 7   -964522.07925        44.000
 96  6  8 15 38 30.0010000  0  6G 2G27G19G26G 7G15
  21426804.242    -2922913.318 9    299452.83529       100.000
  21115747.202    25633020.098 9   3339230.59228        90.000
  23736130.039    -9391519.431 6   8151708.13225        38.000
  23268565.088     9911272.150 7  -3830645.33626        56.000
  20599003.397    -6688387.248 9  -4591582.42829        88.000
  23779946.476    11412231.346 7   -954563.39225        42.000
 96  6  8 15 38 45.0010000  0  6G 2G27G19G26G 7G15
  21428046.222    -2916410.958 9    304519.60829        98.000
  21121878.917    25665220.332 9   3364321.67528        90.000
  23745666.167    -9341411.126 6   8190753.52625        40.000
  23267743.416     9907003.484 7  -3833971.57426        58.000
  20597419.833    -6696714.698 9  -4598071.35729        86.000
  23782404.144    11425139.337 6   -944505.22925        40.000
 96  6  8 15 39  0.0010000  0  6G 2G27G19G26G 7G15
  21429283.466    -2909897.530 9    309594.98329       100.000
  21128023.674    25697522.032 9   3389491.82028        94.000
  23755202.236    -9291266.749 6   8229827.04625        38.000
  23266951.395     9902844.842 7  -3837212.07426        58.000
  20595851.769    -6704943.765 9  -4604483.61629        86.000
  23784892.871    11438173.943 6   -934348.43125        40.000
 96  6  8 15 39 15.0010000  0  6G 2G27G19G26G 7G15
  21430524.187    -2903370.387 9    314681.06429        98.000
  21134191.424    25729927.141 9   3414742.53628        94.000
  23764756.022    -9241086.625 6   8268928.46625        38.000
  23266185.335     9898798.058 7  -3840365.43525        56.000
  20594306.188    -6713072.626 9  -4610817.80929        90.000
  23787389.513    11451336.476 7   -924091.92625        42.000
 96  6  8 15 39 30.0010000  0  6G 2G27G19G26G 7G15
  21431769.555    -2896828.775 9    319778.42029        98.000
  21140375.722    25762437.703 9   3440075.43128        92.000
  23774309.808    -9190872.494 6   8308056.31925        40.000
  23265428.599     9894864.886 7  -3843430.27725        52.000
  20592779.316    -6721105.295 9  -4617077.02129        90.000
  23789926.207    11464625.860 7   -913736.52925        44.000
 96  6  8 15 39 45.0010000  0  6G 2G27G19G26G 7G15
  21433019.030    -2890271.514 9    324887.97229       100.000
  21146581.306    25795050.780 9   3465488.20528        92.000
  23783869.200    -9140625.146 6   8347209.97825        40.000
  23264705.470     9891043.330 7  -3846408.10525        58.000
  20591268.661    -6729041.847 9  -4623261.35629        88.000
  23792475.462    11478041.008 7   -903283.18725        44.000
 96  6  8 15 40  0.0010000  0  6G 2G27G19G26G 7G15
  21434264.967    -2883696.763 9    330011.14529        98.000
  21152806.677    25827767.620 9   3490981.82228        92.000
  23793435.248    -9090343.600 6   8386390.36625        40.000
  23264007.103     9887335.934 7  -3849297.01525        60.000
  20589774.406    -6736877.867 9  -4629367.34529        88.000
  23795053.887    11491583.896 7   -892730.32725        42.000
 96  6  8 15 40 15.0010000  0  6G 2G27G19G26G 7G15
  21435521.877    -2877107.599 9    335145.56729        96.000
  21159050.184    25860588.987 9   3516556.91128        94.000
  23803008.220    -9040030.630 7   8425595.26025        42.000
  23263314.552     9883741.623 7  -3852097.76425        54.000
  20588305.423    -6744612.991 9  -4635394.71629        88.000
  23797659.833    11505253.375 7   -882078.80625        42.000
 96  6  8 15 40 30.0010000  0  6G 2G27G19G26G 7G15
  21436781.155    -2870503.232 9    340291.80229       102.000
  21165316.596    25893511.993 9   3542211.19028        92.000
  23812599.690    -8989688.269 7   8464823.09325        42.000
  23262652.791     9880260.481 7  -3854810.36425        54.000
  20586854.277    -6752246.732 9  -4641343.10329        88.000
  23800281.278    11519048.896 6   -871329.07325        38.000
 96  6  8 15 40 45.0010000  0  6G 2G27G19G26G 7G15
  21438038.545    -2863877.304 9    345454.85829        96.000
  21171602.075    25926539.118 9   3567946.59428        94.000
  23822178.179    -8939312.611 7   8504076.83225        42.000
  23262012.194     9876893.440 7  -3857434.04725        52.000
  20585416.832    -6759777.791 9  -4647211.44929        86.000
  23802924.308    11532972.735 6   -860479.34125        38.000
 96  6  8 15 41  0.0010000  0  6G 2G27G19G26G 7G15
  21439304.988    -2857228.016 9    350636.11129        98.000
  21177907.580    25959666.908 9   3593760.43128        96.000
  23831770.429    -8888905.211 6   8543355.19325        38.000
  23261396.061     9873639.929 7  -3859969.28325        56.000
  20584005.979    -6767207.071 9  -4653000.50429        88.000
  23805600.825    11547022.200 6   -849531.74925        36.000
 96  6  8 15 41 15.0010000  0  6G 2G27G19G26G 7G15
  21440575.718    -2850552.926 9    355837.46829       100.000
  21184229.663    25992894.547 9   3619652.07528        94.000
  23841364.237    -8838463.726 6   8582660.15325        38.000
  23260804.450     9870504.771 7  -3862412.29125        58.000
  20582611.255    -6774534.049 9  -4658709.84529        88.000
  23808295.060    11561198.201 6   -838485.53125        40.000
 96  6  8 15 41 30.0010000  0  6G 2G27G19G26G 7G15
  21441847.558    -2843850.792 9    361059.91129        96.000
  21190573.481    26026222.184 9   3645621.65928        94.000
  23850978.431    -8787984.942 6   8621994.28625        40.000
  23260227.500     9867489.966 7  -3864761.49325        56.000
  20581236.886    -6781758.635 9  -4664339.39429        88.000
  23811020.923    11575501.155 7   -827340.37825        42.000
 96  6  8 15 41 45.0010000  0  6G 2G27G19G26G 7G15
  21443129.800    -2837122.509 9    366302.72129        98.000
  21196935.617    26059648.605 9   3671668.20628        94.000
  23860585.191    -8737470.883 6   8661355.85625        38.000
  23259675.911     9864589.370 7  -3867021.70126        54.000
  20579880.835    -6788881.667 9  -4669889.81029        88.000
  23813766.273    11589929.508 6   -816097.53425        38.000
 96  6  8 15 42  0.0010000  0  6G 2G27G19G26G 7G15
  21444416.240    -2830366.937 9    371566.79829       100.000
  21203315.770    26093176.135 9   3697793.53828        94.000
  23870206.280    -8686919.770 6   8700746.29625        36.000
  23259142.611     9861800.385 7  -3869194.93826        50.000
  20578544.630    -6795901.214 9  -4675359.59329        88.000
  23816534.316    11604484.666 6   -804755.86625        40.000
 96  6  8 15 42 15.0010000  0  6G 2G27G19G26G 7G15
  21445702.679    -2823585.013 9    376851.40229        96.000
  21209711.542    26126804.633 9   3723997.54728        90.000
  23879830.547    -8636332.802 6   8740164.66225        34.000
  23258635.092     9859123.557 7  -3871280.76626        56.000
  20577230.520    -6802819.524 9  -4680750.49129        90.000
  23819330.331    11619166.732 6   -793315.28725        40.000
 96  6  8 15 42 30.0010000  0  6G 2G27G19G26G 7G15
  21446999.641    -2816775.204 9    382157.74129        96.000
  21216132.377    26160529.984 9   3750277.03728        92.000
  23889471.603    -8585708.485 6   8779612.10725        34.000
  23258142.863     9856558.629 7  -3873279.44826        58.000
  20575928.701    -6809638.852 9  -4686064.24329        90.000
  23822143.853    11633974.824 6   -781776.51925        38.000
 96  6  8 15 42 45.0010000  0  6G 2G27G19G26G 7G15
  21448304.997    -2809933.593 9    387488.84029        98.000
  21222567.033    26194351.575 9   3776631.48228        94.000
  23899111.909    -8535043.442 6   8819091.33025        34.000
  23257677.075     9854107.261 7  -3875189.62526        54.000
  20574648.407    -6816356.380 9  -4691298.68629        88.000
  23824992.511    11648910.618 6   -770138.27625        40.000
 96  6  8 15 43  0.0010000  0  6G 2G27G19G26G 7G15
  21449611.703    -2803062.263 9    392843.12629        98.000
  21229021.984    26228267.952 9   3803059.82228        94.000
  23908757.372    -8484337.545 6   8858602.35425        34.000
  23257236.051     9851769.985 7  -3877010.90426        56.000
  20573394.405    -6822972.210 9  -4696453.88829        88.000
  23827856.218    11663973.119 6   -758401.25225        36.000
 96  6  8 15 43 15.0010000  0  6G 2G27G19G26G 7G15
  21450925.184    -2796163.597 9    398218.71029       100.000
  21235492.165    26262278.739 9   3829561.72928        92.000
  23918418.753    -8433591.264 6   8898144.88925        32.000
  23256813.103     9849549.040 7  -3878741.52426        56.000
  20572154.914    -6829484.976 9  -4701528.76529        90.000
  23830750.265    11679163.116 6   -746564.93525        38.000
 96  6  8 15 43 30.0010000  0  6G 2G27G19G26G 7G15
  21452238.514    -2789242.275 9    403611.95029        98.000
  21241981.652    26296383.815 9   3856137.09228        92.000
  23928069.192    -8382808.489 6   8937715.79525        32.000
  23256408.683     9847443.141 7  -3880382.49026        50.000
  20570934.368    -6835895.813 9  -4706524.22229        90.000
  23833655.194    11694479.008 6   -734630.49025        36.000
 96  6  8 15 43 45.0010000  0  6G 2G27G19G26G 7G15
  21453564.077    -2782295.985 9    409024.61729       102.000
  21248492.365    26330586.313 9   3882788.36528        92.000
  23937753.298    -8331990.405 6   8977314.25925        32.000
  23256029.026     9845452.031 7  -3881934.00526        52.000
  20569737.147    -6842204.254 9  -4711439.89229        88.000
  23836599.995    11709922.150 6   -722596.89525        36.000
 96  6  8 15 44  0.0010000  0  6G 2G27G19G26G 7G15
  21454890.119    -2775325.681 9    414456.02029       100.000
  21255016.598    26364887.153 9   3909516.26228        90.000
  23947421.305    -8281138.182 6   9016939.29325        32.000
  23255680.188     9843577.256 7  -3883394.88326        58.000
  20568553.896    -6848413.012 9  -4716277.89329        88.000
  23839558.797    11725492.472 6   -710464.20025        36.000
 96  6  8 15 44 15.0010000  0  6G 2G27G19G26G 7G15
  21456223.925    -2768334.538 9    419903.66429       102.000
  21261561.098    26399282.783 9   3936318.03628        90.000
  23957107.899    -8230253.437 6   9056589.71125        32.000
  23255344.840     9841821.213 7  -3884763.24926        52.000
  20567388.993    -6854525.302 9  -4721040.71729        88.000
  23842544.340    11741188.679 6   -698233.37325        34.000
 96  6  8 15 44 30.0010000  0  6G 2G27G19G26G 7G15
  21457554.494    -2761321.966 9    425367.99529       100.000
  21268125.023    26433772.932 9   3963193.45628        90.000
  23966792.725    -8179337.063 6   9096264.75125        28.000
  23255026.730     9840188.075 7  -3886035.82426        52.000
  20566242.916    -6860540.449 9  -4725727.85229        88.000
  23845559.263    11757010.752 6   -685904.53125        36.000
 96  6  8 15 44 45.0010000  0  6G 2G27G19G26G 7G15
  21458892.348    -2754287.930 9    430849.06229       102.000
  21274706.577    26468360.201 9   3990144.56128        90.000
  23976499.195    -8128389.478 6   9135964.12025        30.000
  23254740.428     9838675.948 7  -3887214.10826        56.000
  20565119.504    -6866456.013 9  -4730337.37129        88.000
  23848586.897    11772958.776 6   -673477.50625        34.000
 96  6  8 15 45  0.0010000  0  6G 2G27G19G26G 7G15
  21460232.510    -2747233.087 9    436346.33629       100.000
  21281308.966    26503047.767 9   4017173.82028        90.000
  23986197.601    -8077413.715 6   9175685.43725        30.000
  23254479.669     9837283.082 7  -3888299.49526        50.000
  20564012.760    -6872270.532 9  -4734868.16429        88.000
  23851644.570    11789033.059 6   -660952.12025        34.000
 96  6  8 15 45 15.0010000  0  6G 2G27G19G26G 7G15
  21461580.917    -2740160.959 9    441857.06629       104.000
  21287929.793    26537836.818 9   4044282.14828        88.000
  23995893.279    -8026414.235 6   9215425.23825        32.000
  23254228.652     9836006.280 7  -3889294.43926        52.000
  20562927.841    -6877986.061 9  -4739321.83129        88.000
  23854731.293    11805232.330 6   -648329.31925        34.000
 96  6  8 15 45 30.0010000  0  6G 2G27G19G26G 7G15
  21462927.764    -2733070.750 9    447381.90929        98.000
  21294568.247    26572728.608 9   4071470.54928        90.000
  24005610.632    -7975392.626 6   9255182.28025        34.000
  23254012.412     9834841.241 7  -3890202.25226        52.000
  20561857.582    -6883604.712 9  -4743700.00029        88.000
  23857843.259    11821556.882 6   -635608.87625        38.000
 96  6  8 15 45 45.0010000  0  6G 2G27G19G26G 7G15
  21464284.715    -2725961.548 9    452921.52929       102.000
  21301223.220    26607722.207 9   4098738.25428        86.000
  24015324.807    -7924347.733 6   9294957.46825        32.000
  23253807.624     9833784.949 7  -3891025.35226        50.000
  20560806.120    -6889125.762 9  -4748002.11729        86.000
  23860970.544    11838007.552 6   -622790.21725        38.000
 96  6  8 15 46  0.0010000  0  6G 2G27G19G26G 7G15
  21465639.147    -2718833.403 9    458475.92829       102.000
  21307903.465    26642813.897 9   4126082.40728        86.000
  24025036.943    -7873279.811 6   9334750.55525        32.000
  23253629.457     9832833.352 7  -3891766.87626        52.000
  20559775.194    -6894550.973 9  -4752229.56429        86.000
  23864132.635    11854582.862 6   -609874.36125        38.000
 96  6  8 15 46 15.0010000  0  6G 2G27G19G26G 7G15
  21466997.837    -2711687.240 9    464044.35829       100.000
  21314602.028    26678002.848 9   4153502.35428        88.000
  24034760.412    -7822186.834 6   9374563.24425        32.000
  23253468.649     9831987.423 7  -3892426.03326        54.000
  20558758.658    -6899878.283 9  -4756380.70429        88.000
  23867306.328    11871283.480 6   -596860.90925        36.000
 96  6  8 15 46 30.0010000  0  6G 2G27G19G26G 7G15
  21468362.612    -2704523.117 9    469626.79529       102.000
  21321315.730    26713286.231 9   4180995.88028        88.000
  24044498.390    -7771068.151 6   9414395.95825        34.000
  23253329.845     9831247.555 7  -3893002.60426        52.000
  20557760.708    -6905103.971 9  -4760452.67029        86.000
  23870510.180    11888109.225 6   -583749.99525        40.000
 96  6  8 15 46 45.0010000  0  6G 2G27G19G26G 7G15
  21469731.104    -2697339.123 9    475224.70029       104.000
  21328047.960    26748664.894 9   4208563.65028        86.000
  24054221.259    -7719921.748 6   9454250.25825        34.000
  23253213.375     9830612.680 7  -3893497.32126        54.000
  20556788.032    -6910225.987 9  -4764443.85629        86.000
  23873729.111    11905060.455 6   -570541.25525        36.000
 96  6  8 15 47  0.0010000  0  6G 2G27G19G26G 7G15
  21471103.554    -2690134.986 9    480838.29229       104.000
  21334799.106    26784137.773 9   4236204.83828        86.000
  24063963.675    -7668747.439 6   9494126.28425        32.000
  23253101.673     9830082.828 7  -3893910.22026        52.000
  20555833.283    -6915245.692 9  -4768355.31629        86.000
  23876981.080    11922137.338 6   -557234.60025        38.000
 96  6  8 15 47 15.0010000  0  6G 2G27G19G26G 7G15
  21472472.587    -2682911.687 9    486466.84229       100.000
  21341568.899    26819703.429 9   4263918.31828        86.000
  24073705.610    -7617544.879 6   9534024.30125        36.000
  23253030.682     9829658.446 7  -3894240.90426        56.000
  20554897.660    -6920166.419 9  -4772189.64629        86.000
  23880254.993    11939339.113 6   -543830.61225        36.000
 96  6  8 15 47 30.0010000  0  6G 2G27G19G26G 7G15
  21473849.683    -2675669.834 9    492109.83129       102.000
  21348349.335    26855357.883 9   4291700.98328        84.000
  24083462.536    -7566312.619 6   9573945.47125        36.000
  23252967.935     9829340.448 7  -3894488.71226        58.000
  20553976.518    -6924992.342 9  -4775950.12229        86.000
  23883546.265    11956663.918 6   -530330.77125        36.000
 96  6  8 15 47 45.0010000  0  6G 2G27G19G26G 7G15
  21475237.842    -2668407.072 9    497769.12429       104.000
  21355154.894    26891100.462 9   4319552.33028        86.000
  24093203.872    -7515045.746 6   9613893.68325        36.000
  23252922.607     9829133.278 7  -3894650.20226        50.000
  20553077.860    -6929719.694 9  -4779633.75429        84.000
  23886879.897    11974113.112 6   -516734.04125        38.000
 96  6  8 15 48  0.0010000  0  6G 2G27G19G26G 7G15
  21476622.134    -2661124.632 9    503443.74529       102.000
  21361970.286    26926933.155 9   4347473.88728        84.000
  24102965.055    -7463741.616 6   9653870.93425        36.000
  23252909.566     9829041.474 7  -3894721.73926        54.000
  20552198.959    -6934348.341 9  -4783240.49429        86.000
  23890216.737    11991685.891 6   -503040.99125        38.000
 96  6  8 15 48 15.0010000  0  6G 2G27G19G26G 7G15
  21478011.072    -2653825.168 9    509131.63529       104.000
  21368806.873    26962856.651 9   4375466.18728        84.000
  24112740.117    -7412400.006 6   9693877.34625        34.000
  23252914.063     9829068.087 7  -3894701.01426        54.000
  20551337.895    -6938880.653 9  -4786772.17029        86.000
  23893579.359    12009380.667 6   -489252.84225        36.000
 96  6  8 15 48 30.0010000  0  6G 2G27G19G26G 7G15
  21479402.589    -2646507.452 9    514833.75329       104.000
  21375661.358    26998875.324 9   4403532.68228        84.000
  24122518.838    -7361016.970 6   9733915.91624        34.000
  23252939.755     9829215.624 7  -3894586.06226        54.000
  20550495.778    -6943314.936 9  -4790227.45229        86.000
  23896973.160    12027199.614 6   -475367.96025        38.000
 96  6  8 15 48 45.0010000  0  6G 2G27G19G26G 7G15
  21480801.660    -2639170.396 9    520550.93329       100.000
  21382533.230    27034990.007 9   4431673.95928        84.000
  24132307.481    -7309594.957 6   9773985.00724        32.000
  23252988.681     9829483.375 7  -3894377.42726        52.000
  20549668.051    -6947652.456 9  -4793607.34329        86.000
  23900382.909    12045141.457 6   -461387.33625        40.000
 96  6  8 15 49  0.0010000  0  6G 2G27G19G26G 7G15
  21482198.004    -2631811.266 9    526285.30228       106.000
  21389427.737    27071206.254 9   4459894.39628        84.000
  24142096.604    -7258133.769 6   9814084.59625        36.000
  23253062.730     9829869.862 7  -3894076.28026        46.000
  20548861.010    -6951893.060 9  -4796911.70229        86.000
  23903828.184    12063207.468 7   -447309.93725        42.000
 96  6  8 15 49 15.0010000  0  6G 2G27G19G26G 7G15
  21483603.251    -2624431.264 9    532035.93528       100.000
  21396338.253    27107522.796 9   4488192.97328        84.000
  24151904.554    -7206634.442 6   9854213.90925        34.000
  23253169.006     9830373.455 7  -3893683.90026        52.000
  20548073.964    -6956037.690 9  -4800141.28429        86.000
  23907286.800    12081396.976 6   -433136.29325        38.000
 96  6  8 15 49 30.0010000  0  6G 2G27G19G26G 7G15
  21485009.188    -2617031.776 9    537801.77228       102.000
  21403267.626    27143937.024 9   4516567.68528        84.000
  24161698.954    -7155097.956 6   9894372.18024        32.000
  23253276.602     9830992.966 7  -3893201.19226        50.000
  20547306.286    -6960086.794 9  -4803296.43529        86.000
  23910771.048    12099708.538 6   -418867.58425        40.000
 96  6  8 15 49 45.0010000  0  6G 2G27G19G26G 7G15
  21486424.628    -2609613.297 9    543582.40228       106.000
  21410212.348    27180447.715 8   4545017.54428        82.000
  24171516.887    -7103524.393 6   9934559.28724        34.000
  23253421.911     9831729.666 7  -3892627.12126        54.000
  20546546.522    -6964036.511 9  -4806374.13029        86.000
  23914279.549    12118142.387 6   -404503.52025        36.000
 96  6  8 15 50  0.0010000  0  6G 2G27G19G26G 7G15
  21487842.616    -2602176.984 9    549376.91828       106.000
  21417178.656    27217054.554 8   4573542.34028        80.000
  24181333.051    -7051914.593 6   9974774.65124        30.000
  23253580.411     9832582.913 7  -3891962.28626        52.000
  20545817.397    -6967885.303 9  -4809373.20129        86.000
  23917812.303    12136698.660 6   -390044.14025        36.000
 96  6  8 15 50 15.0010000  0  6G 2G27G19G26G 7G15
  21489259.855    -2594721.153 9    555186.65728       104.000
  21424164.629    27253757.888 8   4602142.33828        82.000
  24191166.604    -7000272.684 6  10015015.05224        28.000
  23253762.205     9833549.157 7  -3891209.34326        46.000
  20545105.180    -6971634.486 9  -4812294.62229        86.000
  23921371.229    12155376.894 6   -375489.69025        36.000
 96  6  8 15 50 30.0010000  0  6G 2G27G19G26G 7G15
  21490680.631    -2587243.368 9    561013.50528       104.000
  21431166.792    27290553.899 8   4630814.51228        82.000
  24200995.689    -6948604.653 6  10055275.83124        30.000
  23253971.670     9834621.978 7  -3890373.41226        50.000
  20544411.130    -6975284.517 9  -4815138.82129        86.000
  23924948.023    12174175.902 6   -360841.14225        38.000
 96  6  8 15 50 45.0010000  0  6G 2G27G19G26G 7G15
  21492110.492    -2579738.738 9    566861.25228       106.000
  21438188.411    27327440.182 8   4659557.05328        82.000
  24210836.467    -6896912.610 6  10095555.31824        26.000
  23254192.887     9835800.769 7  -3889454.90326        48.000
  20543732.010    -6978833.387 9  -4817904.16329        86.000
  23928546.522    12193095.469 6   -346098.65325        40.000
 96  6  8 15 51  0.0010000  0  6G 2G27G19G26G 7G15
  21493539.212    -2572207.143 9    572730.02328       104.000
  21445219.384    27364414.762 8   4688368.39328        80.000
  24220679.582    -6845198.344 6  10135852.00824        28.000
  23254438.987     9837085.233 7  -3888454.02526        50.000
  20543074.745    -6982283.103 9  -4820592.25829        86.000
  23932177.428    12212135.424 7   -331262.34425        44.000
 96  6  8 15 51 15.0010000  0  6G 2G27G19G26G 7G15
  21494978.636    -2564650.208 9    578618.53828       106.000
  21452275.719    27401474.648 8   4717246.20728        82.000
  24230538.317    -6793460.781 6  10176166.95325        26.000
  23254700.406     9838478.544 7  -3887368.37626        48.000
  20542437.806    -6985635.500 9  -4823204.50629        86.000
  23935816.279    12231296.061 6   -316331.95425        40.000
 96  6  8 15 51 30.0010000  0  6G 2G27G19G26G 7G15
  21496422.826    -2557069.356 9    584525.69228       106.000
  21459341.557    27438618.551 8   4746189.49228        80.000
  24240369.801    -6741699.858 6  10216500.10725        26.000
  23254993.993     9839983.724 7  -3886195.49626        50.000
  20541821.133    -6988891.142 9  -4825741.38229        86.000
  23939481.002    12250577.339 6   -301307.59325        38.000
 96  6  8 15 51 45.0010000  0  6G 2G27G19G26G 7G15
  21497870.164    -2549465.075 9    590451.09228       106.000
  21466425.323    27475846.283 8   4775198.09228        80.000
  24250218.973    -6689919.584 6  10256848.31625        28.000
  23255303.319     9841599.423 7  -3884936.52126        52.000
  20541217.381    -6992051.620 9  -4828204.08729        84.000
  23943172.856    12269978.090 6   -286190.11925        40.000
 96  6  8 15 52  0.0010000  0  6G 2G27G19G26G 7G15
  21499326.436    -2541834.072 9    596397.32128       106.000
  21473524.378    27513161.872 8   4804275.15428        80.000
  24260085.622    -6638119.108 6  10297212.26525        26.000
  23255625.835     9843325.504 7  -3883591.53426        46.000
  20540633.805    -6995116.622 9  -4830592.40329        86.000
  23946887.315    12289500.307 6   -270978.02925        40.000
 96  6  8 15 52 15.0010000  0  6G 2G27G19G26G 7G15
  21500779.620    -2534173.192 9    602366.83828       104.000
  21480645.888    27550567.756 8   4833422.56328        78.000
  24269938.361    -6586299.921 6  10337590.69425        26.000
  23255975.843     9845161.902 7  -3882160.59526        48.000
  20540068.696    -6998090.588 9  -4832909.77529        86.000
  23950624.258    12309144.321 6   -255671.02725        38.000
 96  6  8 15 52 30.0010000  0  6G 2G27G19G26G 7G15
  21502243.866    -2526481.991 9    608359.96928       104.000
  21487781.219    27588063.517 8   4862640.01928        80.000
  24279811.576    -6534463.455 6  10377982.72225        28.000
  23256341.979     9847107.256 7  -3880644.75826        52.000
  20539522.295    -7000975.822 9  -4835158.02629        84.000
  23954385.544    12328909.525 6   -240269.60725        38.000
 96  6  8 15 52 45.0010000  0  6G 2G27G19G26G 7G15
  21503709.612    -2518763.635 9    614374.27228       100.000
  21494931.569    27625647.015 8   4891925.85928        80.000
  24289669.682    -6482609.953 6  10418388.04625        30.000
  23256734.408     9849164.883 7  -3879041.40226        50.000
  20538987.255    -7003773.536 9  -4837338.04929        86.000
  23958167.905    12348795.292 6   -224774.22225        40.000
 96  6  8 15 53  0.0010000  0  6G 2G27G19G26G 7G15
  21505181.023    -2511024.205 9    620404.99828       102.000
  21502100.506    27663319.852 8   4921281.29728        80.000
  24299544.186    -6430737.591 6  10458807.97525        32.000
  23257151.809     9851337.567 7  -3877348.44026        48.000
  20538469.753    -7006485.963 9  -4839451.62429        86.000
  23961982.405    12368802.121 7   -209184.48125        42.000
 96  6  8 15 53 15.0010000  0  6G 2G27G19G26G 7G15
  21506659.869    -2503266.948 9    626449.60028       100.000
  21509284.642    27701084.070 8   4950707.93328        80.000
  24309422.257    -6378848.701 6  10499240.75525        32.000
  23257589.836     9853623.852 7  -3875566.92726        46.000
  20537971.738    -7009113.053 9  -4841498.71229        86.000
  23965810.754    12388929.181 7   -193501.07525        42.000
 96  6  8 15 53 30.0010000  0  5G 2G27G26G 7G15
  21508140.484    -2495491.084 9    632508.70528       102.000
  21516494.471    27738941.876 8   4980207.49328        80.000
  23258040.843     9856025.345 7  -3873695.64026        46.000
  20537488.323    -7011649.916 9  -4843475.49329        86.000
  23969661.978    12409176.872 6   -177723.63925        38.000
 96  6  8 15 53 45.0010000  0  5G 2G27G26G 7G15
  21509621.309    -2487695.821 9    638582.92928        98.000
  21523713.054    27776892.238 8   5009779.18128        80.000
  23258514.635     9858536.726 7  -3871738.74426        50.000
  20537027.152    -7014096.447 9  -4845381.87529        86.000
  23973532.359    12429544.465 6   -161852.79325        38.000
 96  6  8 15 54  0.0010000  0  5G 2G27G26G 7G15
  21511109.719    -2479880.775 9    644672.57128        98.000
  21530952.172    27814934.640 8   5039422.59028        78.000
  23259019.126     9861157.437 7  -3869696.67925        48.000
  20536577.163    -7016453.284 9  -4847218.37829        86.000
  23977436.646    12450032.477 6   -145888.12425        40.000
 96  6  8 15 54 15.0010000  0  5G 2G27G26G 7G15
  21512602.655    -2472046.861 9    650776.91228        98.000
  21538214.704    27853068.219 8   5069137.05828        80.000
  23259538.517     9863887.335 7  -3867569.47326        50.000
  20536141.235    -7018721.631 9  -4848985.92729        84.000
  23981358.711    12470640.738 6   -129829.78625        40.000
 96  6  8 15 54 30.0010000  0  6G 2G27G26G 7G 4G15
  21514094.063    -2464194.560 9    656895.57428        94.000
  21545484.312    27891293.195 8   5098922.73728        80.000
  23260080.092     9866727.629 7  -3865356.24126        50.000
  20535730.370    -7020895.832 9  -4850680.10429        86.000
  24398975.421    -5613464.587 6  -3499145.89724        32.000
  23985297.084    12491369.944 6   -113677.12825        38.000
 96  6  8 15 54 45.0010000  0  6G 2G27G26G 7G 4G15
  21515595.753    -2456324.463 9    663028.10928        96.000
  21552771.787    27929609.395 8   5128779.49028        80.000
  23260640.973     9869677.665 7  -3863057.52826        50.000
  20535335.303    -7022974.082 9  -4852299.52829        86.000
  24389337.873    -5664201.533 6  -3538681.11624        32.000
  23989272.422    12512219.748 6    -97430.54125        40.000
 96  6  8 15 55  0.0010000  0  6G 2G27G26G 7G 4G15
  21517098.013    -2448437.913 9    669173.46029        96.000
  21560084.264    27968017.239 8   5158707.66428        80.000
  23261222.601     9872736.880 7  -3860673.77125        54.000
  20534954.927    -7024956.242 9  -4853844.06229        86.000
  24379672.564    -5714959.045 6  -3578232.40724        28.000
  23993262.420    12533189.419 7    -81090.55125        42.000
 96  6  8 15 55 15.0010000  0  6G 2G27G26G 7G 4G15
  21518598.924    -2440531.236 9    675334.50429        96.000
  21567412.151    28006519.787 8   5188709.61627        80.000
  23261824.824     9875904.379 7  -3858205.63225        44.000
  20534597.694    -7026838.422 9  -4855310.70329        88.000
  24370008.064    -5765733.356 6  -3617796.74924        28.000
  23997280.688    12554280.391 7    -64656.02825        46.000
 96  6  8 15 55 30.0010000  0  6G 2G27G26G 7G 4G15
  21520109.578    -2432602.402 9    681512.80529        96.000
  21574754.788    28045115.068 8   5218783.82927        80.000
  23262447.223     9879179.641 7  -3855653.46925        46.000
  20534261.537    -7028618.238 9  -4856697.56729        86.000
  24360349.441    -5816522.519 6  -3657372.65125        26.000
  24001308.850    12575491.799 6    -48127.66025        40.000
 96  6  8 15 55 45.0010000  0  6G 2G27G26G 7G 4G15
  21521622.511    -2424650.797 9    687708.84729        98.000
  21582119.250    28083801.464 8   5248929.05227        80.000
  23263097.143     9882561.478 7  -3853018.25825        52.000
  20533942.647    -7030298.543 9  -4858006.90329        86.000
  24350679.246    -5867327.226 6  -3696960.67524        30.000
  24005366.660    12596824.374 6    -31504.90125        40.000
 96  6  8 15 56  0.0010000  0  6G 2G27G26G 7G 4G15
  21523137.002    -2416672.227 9    693925.91829        94.000
  21589495.134    28122582.124 8   5279147.73827        78.000
  23263762.083     9886051.858 7  -3850298.51025        52.000
  20533640.996    -7031879.132 9  -4859238.51429        88.000
  24341005.992    -5918147.788 6  -3736561.12124        28.000
  24009453.311    12618279.906 6    -14786.27425        40.000
 96  6  8 15 56 15.0010000  0  6G 2G27G26G 7G 4G15
  21524662.526    -2408666.461 9    700164.17129        96.000
  21596893.082    28161459.244 8   5309441.57727        78.000
  23264440.393     9889652.357 7  -3847492.95925        50.000
  20533357.782    -7033358.279 9  -4860391.09829        86.000
  24331331.120    -5968983.797 6  -3776173.54024        28.000
  24013558.130    12639858.134 6      2027.90225        38.000
 96  6  8 15 56 30.0010000  0  6G 2G27G26G 7G 4G15
  21526192.637    -2400632.875 9    706424.08329        98.000
  21604313.095    28200433.265 8   5339810.91728        80.000
  23265145.025     9893363.834 7  -3844600.90225        46.000
  20533096.033    -7034732.870 9  -4861462.21329        84.000
  24321659.096    -6019835.815 6  -3815798.43124        32.000
  24017692.058    12661558.408 7     18937.22425        42.000
 96  6  8 15 56 45.0010000  0  6G 2G27G26G 7G 4G15
  21527727.155    -2392570.379 9    712706.54029        96.000
  21611749.147    28239502.355 8   5370254.34127        82.000
  23265876.939     9897186.112 7  -3841622.53525        54.000
  20532853.231    -7036002.687 9  -4862451.68229        86.000
  24311973.461    -6070700.076 6  -3855432.85624        30.000
  24021839.057    12683380.273 6     35941.24125        40.000
 96  6  8 15 57  0.0010000  0  6G 2G27G26G 7G 4G15
  21529265.959    -2384481.718 9    719009.40729        98.000
  21619195.333    28278664.399 8   5400770.18627        80.000
  23266625.850     9901120.737 7  -3838556.59825        54.000
  20532634.323    -7037169.974 9  -4863361.26129        86.000
  24302300.268    -6121573.766 6  -3895074.62324        30.000
  24026016.965    12705323.668 6     53039.99525        40.000
 96  6  8 15 57 15.0010000  0  6G 2G27G26G 7G 4G15
  21530809.321    -2376368.152 9    725331.63228        98.000
  21626667.270    28317919.391 8   5431358.45527        82.000
  23267393.469     9905169.559 7  -3835401.68825        52.000
  20532429.775    -7038233.542 9  -4864190.01129        86.000
  24292607.168    -6172455.915 6  -3934723.03124        30.000
  24030210.971    12727389.364 7     70234.05225        42.000
 96  6  8 15 57 30.0010000  0  6G 2G27G26G 7G 4G15
  21532356.700    -2368229.122 9    731673.74228        96.000
  21634156.355    28357264.414 8   5462016.90427        82.000
  23268189.298     9909331.167 7  -3832158.92125        52.000
  20532251.428    -7039194.655 9  -4864938.92629        86.000
  24282918.955    -6223347.709 6  -3974378.91924        30.000
  24034436.636    12749576.425 7     87522.62625        42.000
 96  6  8 15 57 45.0010000  0  6G 2G27G26G 7G 4G15
  21533909.055    -2360064.277 9    738035.94628        96.000
  21641657.822    28396698.133 8   5492744.45527        82.000
  23269004.823     9913607.469 7  -3828826.74525        58.000
  20532087.562    -7040056.800 9  -4865610.72729        86.000
  24273236.078    -6274247.674 6  -4014041.17623        32.000
  24038683.106    12771885.746 6    104906.50925        40.000
 96  6  8 15 58  0.0010000  0  6G 2G27G26G 7G 4G15
  21535471.004    -2351871.872 9    744419.62528        98.000
  21649180.994    28436221.579 8   5523541.93627        82.000
  23269835.248     9917998.479 7  -3825405.19525        52.000
  20531939.254    -7040821.156 9  -4866206.32029        86.000
  24263550.923    -6325156.466 6  -4053710.36823        34.000
  24042951.731    12794317.462 6    122385.81025        38.000
 96  6  8 15 58 15.0010000  0  6G 2G27G26G 7G 4G15
  21537036.460    -2343655.022 9    750822.35728        98.000
  21656719.725    28475833.744 8   5554408.51727        82.000
  23270692.025     9922502.458 7  -3821895.60325        54.000
  20531811.123    -7041486.819 9  -4866725.03029        86.000
  24253865.828    -6376071.135 6  -4093384.16923        36.000
  24047241.881    12816870.018 6    139959.20625        34.000
 96  6  8 15 58 30.0010000  0  6G 2G27G26G 7G 4G15
  21538603.385    -2335414.923 9    757243.20528       100.000
  21664271.797    28515534.088 8   5585343.82327        80.000
  23271571.916     9927121.672 7  -3818296.25925        52.000
  20531703.737    -7042052.380 9  -4867165.72829        84.000
  24244171.289    -6426986.661 6  -4133058.55023        36.000
  24051558.233    12839544.763 6    157627.81425        36.000
 96  6  8 15 58 45.0010000  0  6G 2G27G26G 7G 4G15
  21540169.651    -2327153.681 9    763680.51728        96.000
  21671845.454    28555317.971 8   5616344.23027        80.000
  23272472.882     9931853.903 7  -3814608.82625        48.000
  20531613.590    -7042520.057 9  -4867530.14829        84.000
  24234484.216    -6477902.828 6  -4172733.40523        38.000
  24055900.307    12862340.477 6    175390.68825        38.000
 96  6  8 15 59  0.0010000  0  6G 2G27G26G 7G 4G15
  21541755.013    -2318873.784 9    770132.38528        98.000
  21679429.873    28595184.488 8   5647409.03427        80.000
  23273396.663     9936698.450 7  -3810833.84425        54.000
  20531539.961    -7042893.649 9  -4867821.26129        86.000
  24224797.562    -6528822.145 6  -4212410.69824        38.000
  24060258.839    12885256.270 6    193247.13625        38.000
 96  6  8 15 59 15.0010000  0  6G 2G27G26G 7G 4G15
  21543329.583    -2310572.907 9    776600.59428        98.000
  21687032.280    28635136.565 8   5678540.51128        80.000
  23274336.632     9941654.636 7  -3806971.91325        50.000
  20531490.165    -7043173.403 9  -4868039.24829        86.000
  24215105.361    -6579748.282 6  -4252093.40824        36.000
  24064637.098    12908292.028 6    211197.07425        36.000
 96  6  8 15 59 30.0010000  0  6G 2G27G26G 7G 4G15
  21544911.708    -2302246.669 9    783088.55628        96.000
  21694650.186    28675174.230 8   5709738.66828        80.000
  23275307.240     9946718.947 7  -3803025.70025        52.000
  20531456.079    -7043361.201 9  -4868185.58829        84.000
  24205409.594    -6630683.537 6  -4291783.17924        38.000
  24069049.804    12931447.483 6    229240.27025        34.000
 96  6  8 15 59 45.0010000  0  6G 2G27G26G 7G 4G15
  21546504.535    -2293893.492 9    789597.52028        98.000
  21702287.609    28715297.445 8   5741003.48628        80.000
  23276282.495     9951891.355 7  -3798995.26625        54.000
  20531440.759    -7043456.017 9  -4868259.46829        88.000
  24195719.882    -6681629.198 6  -4331481.06924        38.000
  24073484.603    12954722.721 6    247376.83425        34.000
 96  6  8 16  0  0.0010000  0  6G 2G27G26G 7G 4G15
  21548097.662    -2285514.498 9    796126.59128        96.000
  21709940.321    28755510.934 8   5772338.63427        80.000
  23277290.967     9957173.131 7  -3794879.61225        56.000
  20531435.483    -7043456.048 9  -4868259.51029        86.000
  24186023.844    -6732583.708 6  -4371185.88324        38.000
  24077921.951    12978117.844 6    265606.74425        32.000
 96  6  8 16  0 15.0010000  0  6G 2G27G26G 7G 4G15
  21549695.826    -2277110.155 9    802675.41828        94.000
  21717609.792    28795815.761 8   5803744.99327        82.000
  23278319.225     9962560.961 7  -3790681.33926        54.000
  20531454.280    -7043359.001 9  -4868183.87629        88.000
  24176325.588    -6783548.882 6  -4410898.97924        40.000
  24082398.422    13001632.329 6    283929.67925        30.000
 96  6  8 16  0 30.0010000  0  6G 2G27G26G 7G 4G15
  21551302.114    -2268678.837 9    809245.28228        92.000
  21725298.929    28836209.252 8   5835220.40427        80.000
  23279362.832     9968056.486 7  -3786399.12725        54.000
  20531495.172    -7043164.429 9  -4868032.25329        88.000
  24166626.253    -6834524.813 6  -4450620.46924        40.000
  24086900.496    13025266.385 6    302345.80925        38.000
 96  6  8 16  0 45.0010000  0  6G 2G27G26G 7G 4G15
  21552910.950    -2260215.981 9    815839.70728        94.000
  21732998.828    28876691.541 8   5866765.01928        78.000
  23280432.732     9973661.464 7  -3782031.60226        60.000
  20531543.198    -7042873.267 9  -4867805.38729        86.000
  24156922.451    -6885512.329 6  -4490350.94124        38.000
  24091413.751    13049021.063 6    320855.95025        34.000
 96  6  8 16  1  0.0010000  0  6G 2G27G26G 7G 4G15
  21554528.121    -2251718.633 9    822460.99628        96.000
  21740725.349    28917264.028 8   5898379.94128        78.000
  23281517.141     9979373.902 7  -3777580.38426        60.000
  20531623.483    -7042486.781 9  -4867504.21529        88.000
  24147215.561    -6936511.336 6  -4530090.38124        38.000
  24095964.151    13072896.495 6    339460.16025        34.000
 96  6  8 16  1 15.0010000  0  6G 2G27G26G 7G 4G15
  21556149.968    -2243186.627 9    829109.30028        96.000
  21748460.714    28957927.927 8   5930066.07028        78.000
  23282619.598     9985192.835 7  -3773046.18226        50.000
  20531717.138    -7042004.428 9  -4867128.35129        90.000
  24137517.185    -6987520.415 6  -4569837.67324        34.000
  24100528.851    13096891.450 6    358157.51725        38.000
 96  6  8 16  1 30.0010000  0  6G 2G27G26G 7G 4G15
  21557782.098    -2234616.912 9    835786.99628        98.000
  21756213.137    28998684.008 8   5961824.02627        76.000
  23283753.173     9991119.703 7  -3768427.83226        56.000
  20531823.954    -7041424.444 9  -4866676.40729        88.000
  24127800.281    -7038534.701 6  -4609589.02224        34.000
  24105115.676    13121008.158 6    376949.75625        38.000
 96  6  8 16  1 45.0010000  0  6G 2G27G26G 7G 4G15
  21559417.736    -2226014.148 9    842490.43128        98.000
  21763986.186    29039531.258 8   5993653.02427        76.000
  23284896.192     9997156.966 7  -3763723.47626        56.000
  20531951.696    -7040747.859 9  -4866149.20929        88.000
  24118084.428    -7089555.075 6  -4649345.11125        30.000
  24109731.011    13145245.270 7    395835.78625        44.000
 96  6  8 16  2  0.0010000  0  6G 2G27G26G 7G 4G15
  21561060.928    -2217382.462 9    849216.42228        98.000
  21771774.314    29080469.637 8   6025553.03728        72.000
  23286073.147    10003305.193 7  -3758932.68926        60.000
  20532099.283    -7039975.643 9  -4865547.48629        90.000
  24108382.124    -7140579.996 6  -4689104.75425        30.000
  24114366.671    13169601.591 6    414814.76925        40.000
 96  6  8 16  2 15.0010000  0  6G 2G27G26G 7G 4G15
  21562711.825    -2208719.232 9    855967.00128       100.000
  21779585.347    29121497.589 8   6057522.85428        74.000
  23287259.276    10009563.031 7  -3754056.45226        54.000
  20532267.107    -7039110.760 9  -4864873.54829        92.000
  24098658.686    -7191610.999 6  -4728869.15225        26.000
  24119016.632    13194077.409 6    433886.78825        36.000
 96  6  8 16  2 30.0010000  0  6G 2G27G26G 7G 4G15
  21564365.570    -2200023.941 9    862742.53728       100.000
  21787410.350    29162609.137 8   6089557.80828        74.000
  23288473.465    10015930.176 7  -3749095.05926        60.000
  20532444.974    -7038156.541 9  -4864129.99329        90.000
  24088962.468    -7242649.376 6  -4768639.25025        30.000
  24123708.804    13218671.615 6    453051.08025        36.000
 96  6  8 16  2 45.0010000  0  6G 2G27G26G 7G 4G15
  21566026.900    -2191296.776 9    869542.91028       102.000
  21795244.766    29203806.123 8   6121659.34028        70.000
  23289705.672    10022408.984 7  -3744046.65526        56.000
  20532643.527    -7037112.976 9  -4863316.81829        88.000
  24079246.135    -7293691.332 6  -4808412.17725        30.000
  24128400.736    13243385.148 6    472308.36925        34.000
 96  6  8 16  3  0.0010000  0  6G 2G27G26G 7G 4G15
  21567694.945    -2182542.808 9    876364.17428       102.000
  21803105.054    29245090.100 8   6153828.63927        72.000
  23290958.415    10028999.345 7  -3738911.32426        54.000
  20532856.439    -7035981.269 9  -4862434.98729        88.000
  24069542.333    -7344737.655 6  -4848188.50025        34.000
  24133132.150    13268217.312 6    491658.06826        40.000
 96  6  8 16  3 15.0010000  0  6G 2G27G26G 7G 4G15
  21569362.121    -2173765.512 9    883203.61528       100.000
  21810975.956    29286460.326 8   6186065.14127        72.000
  23292236.071    10035700.973 7  -3733689.31526        56.000
  20533095.194    -7034761.104 9  -4861484.20329        88.000
  24059825.879    -7395788.754 6  -4887968.48825        34.000
  24137881.522    13293166.929 7    511099.31926        44.000
 96  6  8 16  3 30.0010000  0  6G 2G27G26G 7G 4G15
  21571038.021    -2164967.152 9    890059.48428       104.000
  21818864.424    29327916.885 8   6218368.94627        72.000
  23293535.671    10042516.324 7  -3728378.66826        56.000
  20533342.253    -7033453.037 9  -4860464.91029        88.000
  24050101.601    -7446845.819 6  -4927753.19525        36.000
  24142655.867    13318233.942 7    530632.09025        46.000
 96  6  8 16  3 45.0010000  0  6G 2G27G26G 7G 4G15
  21572714.341    -2156148.483 9    896931.16928       104.000
  21826769.112    29369458.780 8   6250739.22127        70.000
  23294849.631    10049445.809 7  -3722979.09126        54.000
  20533606.490    -7032059.449 9  -4859379.00829        88.000
  24040386.437    -7497910.290 6  -4967543.63725        34.000
  24147440.795    13343418.277 7    550256.22725        46.000
 96  6  8 16  4  0.0010000  0  6G 2G27G26G 7G 4G15
  21574398.964    -2147310.965 9    903817.55328       104.000
  21834694.066    29411086.698 8   6283176.54727        70.000
  23296194.260    10056486.820 7  -3717492.59326        60.000
  20533889.434    -7030580.880 9  -4858226.87529        88.000
  24030655.953    -7548984.622 6  -5007341.75325        36.000
  24152260.918    13368718.820 7    569970.91825        44.000
 96  6  8 16  4 15.0010000  0  6G 2G27G26G 7G 4G15
  21576084.128    -2138452.854 9    910719.96528       104.000
  21842627.504    29452800.023 8   6315680.41827        72.000
  23297554.539    10063634.772 7  -3711922.77426        54.000
  20534180.023    -7029018.867 9  -4857009.73429        88.000
  24020940.759    -7600068.609 6  -5047147.38025        36.000
  24157090.964    13394135.343 7    589775.98526        44.000
 96  6  8 16  4 30.0010000  0  6G 2G27G26G 7G 4G15
  21577770.850    -2129573.181 9    917639.18128       102.000
  21850586.484    29494601.126 8   6348252.69927        74.000
  23298939.730    10070891.901 7  -3706267.86826        58.000
  20534495.075    -7027369.580 9  -4855724.55829        88.000
  24011227.843    -7651160.571 6  -5086959.27225        36.000
  24161954.707    13419669.148 7    609672.44626        48.000
 96  6  8 16  4 45.0010000  0  6G 2G27G26G 7G 4G15
  21579463.149    -2120674.474 9    924573.23828       104.000
  21858556.856    29536492.269 8   6380895.09627        72.000
  23300331.246    10078260.299 7  -3700526.30626        54.000
  20534831.982    -7025629.493 9  -4854368.64129        88.000
  24001500.477    -7702254.766 6  -5126772.89025        38.000
  24166833.140    13445320.122 7    629660.18426        48.000
 96  6  8 16  5  0.0010000  0  6G 2G27G26G 7G 4G15
  21581167.109    -2111758.107 9    931521.04328       104.000
  21866542.608    29578473.859 8   6413607.97027        72.000
  23301757.749    10085738.064 7  -3694699.49826        54.000
  20535176.533    -7023799.526 9  -4852942.71529        90.000
  23991775.989    -7753351.978 6  -5166588.83225        36.000
  24171732.438    13471086.157 7    649737.61726        46.000
 96  6  8 16  5 15.0010000  0  6G 2G27G26G 7G 4G15
  21582862.975    -2102821.343 9    938484.75628       104.000
  21874555.370    29620544.322 8   6446390.15327        74.000
  23303199.990    10093324.432 7  -3688788.05626        56.000
  20535541.291    -7021879.284 9  -4851446.41729        88.000
  23982050.272    -7804452.378 6  -5206407.33725        34.000
  24176663.904    13496966.836 7    669904.38725        46.000
 96  6  8 16  5 30.0010000  0  6G 2G27G26G 7G 4G15
  21584573.800    -2093859.665 9    945467.88428       106.000
  21882572.001    29662705.355 8   6479242.88527        72.000
  23304664.237    10101017.710 7  -3682793.30426        58.000
  20535926.194    -7019864.746 9  -4849876.64529        88.000
  23972328.632    -7855554.050 6  -5246226.77725        38.000
  24181609.220    13522963.129 7    690161.24425        46.000
 96  6  8 16  5 45.0010000  0  6G 2G27G26G 7G 4G15
  21586277.281    -2084874.676 9    952469.16828       102.000
  21890611.115    29704954.536 8   6512164.30627        72.000
  23306149.289    10108816.824 7  -3676716.10026        58.000
  20536327.796    -7017758.897 9  -4848235.72729        88.000
  23962598.268    -7906659.918 6  -5286049.47525        38.000
  24186576.751    13549073.267 7    710506.77425        44.000
 96  6  8 16  6  0.0010000  0  6G 2G27G26G 7G 4G15
  21587997.161    -2075863.430 9    959490.91228       102.000
  21898668.667    29747293.209 8   6545155.46327        74.000
  23307653.257    10116722.586 7  -3670555.78926        58.000
  20536743.938    -7015558.580 9  -4846521.20229        88.000
  23952875.909    -7957768.358 6  -5325874.19325        40.000
  24191570.424    13575298.618 7    730942.09625        50.000
 96  6  8 16  6 15.0010000  0  6G 2G27G26G 7G 4G15
  21589712.183    -2066824.775 9    966534.00828       102.000
  21906740.759    29789719.330 8   6578214.73727        74.000
  23309181.929    10124733.091 7  -3664313.84526        56.000
  20537181.485    -7013261.094 9  -4844730.93629        88.000
  23943149.503    -8008876.228 7  -5365698.44625        42.000
  24196582.205    13601637.930 7    751466.26225        48.000
 96  6  8 16  6 30.0010000  0  6G 2G27G26G 7G 4G15
  21591437.789    -2057756.718 9    973600.01528        98.000
  21914834.376    29832227.267 8   6611337.78027        78.000
  23310718.485    10132850.300 7  -3657988.75326        54.000
  20537640.437    -7010865.310 9  -4842864.10029        88.000
  23933427.323    -8059981.388 6  -5405520.59225        40.000
  24201612.962    13628090.398 7    772078.54725        48.000
 96  6  8 16  6 45.0010000  0  6G 2G27G26G 7G 4G15
  21593169.840    -2048657.066 9    980690.64528       102.000
  21922934.019    29874815.870 8   6644523.67927        76.000
  23312286.100    10141077.519 7  -3651577.98126        50.000
  20538113.810    -7008369.438 9  -4840919.27429        90.000
  23923710.270    -8111081.874 7  -5445339.15325        42.000
  24206671.630    13654656.330 7    792779.27925        46.000
 96  6  8 16  7  0.0010000  0  6G 2G27G26G 7G 4G15
  21594908.426    -2039525.288 9    987806.33128       102.000
  21931057.045    29917481.492 8   6677769.59327        76.000
  23313876.949    10149414.373 7  -3645081.75626        50.000
  20538604.540    -7005775.830 9  -4838898.26929        90.000
  23913981.945    -8162179.446 6  -5485155.36725        38.000
  24211744.658    13681334.574 7    813567.53225        42.000
 96  6  8 16  7 15.0010000  0  6G 2G27G26G 7G 4G15
  21596651.239    -2030361.608 9    994946.84328       104.000
  21939187.147    29960222.472 8   6711074.23827        76.000
  23315481.588    10157860.808 7  -3638500.12626        52.000
  20539118.144    -7003086.676 9  -4836802.83329        88.000
  23904252.870    -8213278.206 6  -5524972.55525        40.000
  24216846.226    13708125.255 7    834443.38625        42.000
 96  6  8 16  7 30.0010000  0  6G 2G27G26G 7G 4G15
  21598401.608    -2021167.840 9   1002110.81228       104.000
  21947333.977    30003039.295 8   6744437.97927        76.000
  23317112.489    10166415.680 7  -3631834.00826        54.000
  20539650.066    -7000302.163 9  -4834633.09729        88.000
  23894520.528    -8264377.882 6  -5564790.46425        34.000
  24221962.784    13735028.271 6    855406.73325        40.000
 96  6  8 16  7 45.0010000  0  6G 2G27G26G 7G 4G15
  21600158.002    -2011946.100 9   1009296.57228       104.000
  21955497.026    30045928.540 8   6777858.14027        76.000
  23318754.602    10175078.604 7  -3625083.69226        46.000
  20540195.389    -6997426.418 9  -4832392.25729        92.000
  23884800.267    -8315478.033 6  -5604608.73525        36.000
  24227110.101    13762042.026 6    876456.40225        40.000
 96  6  8 16  8  0.0010000  0  6G 2G27G26G 7G 4G15
  21601913.556    -2002693.048 9   1016506.73428       100.000
  21963673.895    30088890.056 8   6811334.60227        76.000
  23320428.164    10183851.229 7  -3618247.85526        48.000
  20540760.647    -6994461.855 9  -4830082.19229        90.000
  23875082.524    -8366575.272 6  -5644424.68125        38.000
  24232261.884    13789167.289 6    897592.99025        40.000
 96  6  8 16  8 15.0010000  0  6G 2G27G26G 7G 4G15
  21603684.730    -1993406.556 9   1023742.95728       102.000
  21971861.287    30131925.319 8   6844868.54827        74.000
  23322120.822    10192731.388 7  -3611328.29326        48.000
  20541340.296    -6991404.812 9  -4827700.08229        90.000
  23865355.128    -8417665.509 6  -5684235.23325        38.000
  24237453.510    13816404.360 7    918816.70525        42.000
 96  6  8 16  8 30.0010000  0  6G 2G27G26G 7G 4G15
  21605457.343    -1984088.588 9   1031003.70828       100.000
  21980067.746    30175032.152 8   6878458.26927        74.000
  23323829.129    10201718.225 7  -3604325.58426        48.000
  20541937.093    -6988258.069 9  -4825248.07329        90.000
  23855633.069    -8468751.245 6  -5724042.26625        36.000
  24242644.956    13843751.962 6    940126.52125        40.000
 96  6  8 16  8 45.0010000  0  6G 2G27G26G 7G 4G15
  21607233.374    -1974743.947 9   1038285.24028       102.000
  21988281.969    30218213.315 8   6912105.90627        70.000
  23325558.662    10210811.085 7  -3597240.25826        52.000
  20542556.224    -6985024.942 9  -4822728.76629        90.000
  23845912.208    -8519837.213 6  -5763849.43925        36.000
  24247876.065    13871208.629 6    961521.28025        38.000
 96  6  8 16  9  0.0010000  0  6G 2G27G26G 7G 4G15
  21609016.239    -1965373.899 9   1045586.58328       102.000
  21996514.090    30261474.195 8   6945815.66627        72.000
  23327299.646    10220009.169 7  -3590072.92126        46.000
  20543188.457    -6981703.815 9  -4820140.86529        88.000
  23836192.787    -8570921.286 6  -5803655.17225        36.000
  24253119.285    13898776.134 6    983002.48425        34.000
 96  6  8 16  9 15.0010000  0  6G 2G27G26G 7G 4G15
  21610807.289    -1955980.764 9   1052905.89028       104.000
  22004765.368    30304815.392 8   6979587.98827        72.000
  23329071.060    10229308.143 7  -3582827.01026        42.000
  20543836.638    -6978295.484 9  -4817485.04329        90.000
  23826477.293    -8622005.069 6  -5843460.67025        40.000
  24258390.746    13926453.704 6   1004569.43125        32.000
 96  6  8 16  9 30.0010000  0  5G 2G27G26G 7G 4
  21612596.751    -1946562.591 9   1060244.72728       102.000
  22013026.659    30348238.639 8   7013424.25227        74.000
  23330875.481    10238703.728 7  -3575505.81326        48.000
  20544503.316    -6974800.997 9  -4814762.05429        90.000
  23816745.430    -8673087.663 6  -5883265.25325        34.000
 96  6  8 16  9 45.0010000  0  5G 2G27G26G 7G 4
  21614394.966    -1937117.986 9   1067604.14728       102.000
  22021303.629    30391743.339 8   7047323.98027        70.000
  23332671.568    10248195.130 7  -3568109.89425        52.000
  20545182.796    -6971219.237 9  -4811971.07129        90.000
  23807029.127    -8724165.832 6  -5923066.38825        40.000
 96  6  8 16 10  0.0010000  0  5G 2G27G26G 7G 4
  21616198.367    -1927647.286 9   1074983.91328       102.000
  22029602.753    30435327.667 8   7081285.76927        68.000
  23334496.404    10257781.479 7  -3560640.06425        50.000
  20545881.762    -6967549.665 9  -4809111.66729        92.000
  23797310.994    -8775240.528 7  -5962864.84025        42.000
 96  6  8 16 10 15.0010000  0  5G 2G27G26G 7G 4
  21618009.174    -1918151.864 9   1082382.93628       106.000
  22037906.465    30478996.624 8   7115313.51127        68.000
  23336335.271    10267462.409 7  -3553096.48625        48.000
  20546598.596    -6963787.985 9  -4806180.48329        92.000
  23787599.847    -8826311.756 7  -6002660.54525        42.000
 96  6  8 16 10 30.0010000  0  5G 2G27G26G 7G 4
  21619812.425    -1908636.421 9   1089797.58028       102.000
  22046234.759    30522749.426 8   7149406.58827        68.000
  23338200.340    10277236.498 7  -3545480.31525        54.000
  20547333.087    -6959937.062 9  -4803179.77029        92.000
  23777884.383    -8877381.112 7  -6042454.77325        42.000
 96  6  8 16 10 45.0010000  0  5G 2G27G26G 7G 4
  21621631.326    -1899101.839 9   1097227.11428       104.000
  22054570.878    30566584.134 8   7183563.46927        66.000
  23340075.932    10287106.153 7  -3537789.71425        48.000
  20548079.151    -6955999.612 9  -4800111.62829        92.000
  23768168.260    -8928448.683 7  -6082247.63125        44.000
 96  6  8 16 11  0.0010000  0  5G 2G27G26G 7G 4
  21623446.689    -1889546.179 9   1104673.06928       102.000
  22062930.921    30610500.427 8   7217783.91127        66.000
  23341979.044    10297069.665 7  -3530025.95225        48.000
  20548842.362    -6951973.774 9  -4796974.61629        92.000
  23758438.765    -8979511.649 6  -6122036.90225        40.000
 96  6  8 16 11 15.0010000  0  5G 2G27G26G 7G 4
  21625270.297    -1879966.422 9   1112137.80228       104.000
  22071306.462    30654493.617 8   7252064.30427        68.000
  23343897.926    10307127.419 7  -3522188.75925        48.000
  20549628.148    -6947861.617 9  -4793770.32429        92.000
  23748724.350    -9030567.188 6  -6161820.38325        40.000
 96  6  8 16 11 30.0010000  0  5G 2G27G26G 7G 4
  21627100.140    -1870362.399 9   1119621.45228       102.000
  22079690.428    30698559.769 8   7286401.53427        68.000
  23345812.820    10317280.010 7  -3514277.66026        44.000
  20550427.335    -6943665.717 9  -4790500.79329        94.000
  23739012.004    -9081616.325 7  -6201598.92825        42.000
 96  6  8 16 11 45.0010000  0  5G 2G27G26G 7G 4
  21628932.082    -1860733.487 9   1127124.48928        98.000
  22088085.337    30742697.997 8   7320794.95527        66.000
  23347765.308    10327533.386 7  -3506288.01626        48.000
  20551242.741    -6939385.291 9  -4787165.39329        94.000
  23729298.009    -9132654.055 7  -6241368.57825        42.000
 96  6  8 16 12  0.0010000  0  5G 2G27G26G 7G 4
  21630767.951    -1851080.535 9   1134646.28028        98.000
  22096502.190    30786907.869 8   7355244.16527        68.000
  23349740.131    10337891.021 7  -3498217.14226        50.000
  20552071.427    -6935018.576 9  -4783762.75829        92.000
  23719596.815    -9183679.301 7  -6281128.48525        44.000
 96  6  8 16 12 15.0010000  0  5G 2G27G26G 7G 4
  21632611.495    -1841405.815 9   1142185.02628        98.000
  22104927.437    30831189.894 8   7389749.60927        68.000
  23351731.683    10348352.462 7  -3490065.43826        48.000
  20552918.940    -6930567.220 9  -4780294.16829        94.000
  23709883.539    -9234694.129 7  -6320880.24125        48.000
 96  6  8 16 12 30.0010000  0  5G 2G27G26G 7G 4
  21634450.542    -1831707.451 9   1149742.18228        96.000
  22113371.032    30875542.233 8   7424309.83327        68.000
  23353739.273    10358918.954 7  -3481831.80826        46.000
  20553782.373    -6926032.579 9  -4776760.68629        96.000
  23700178.898    -9285699.025 7  -6360624.29525        46.000
 96  6  8 16 12 45.0010000  0  5G 2G27G26G 7G 4
  21636309.585    -1821983.895 9   1157318.96828       100.000
  22121820.442    30919960.097 8   7458921.13227        68.000
  23355776.033    10369591.346 7  -3473515.67426        48.000
  20554662.563    -6921413.471 9  -4773161.38329        94.000
  23690475.485    -9336694.741 7  -6400361.20425        46.000
 96  6  8 16 13  0.0010000  0  5G 2G27G26G 7G 4
  21638160.143    -1812233.228 9   1164916.87928        98.000
  22130287.781    30964443.031 8   7493583.14827        68.000
  23357824.724    10380372.030 7  -3465115.14426        48.000
  20555556.724    -6916705.332 9  -4769492.68829        94.000
  23680772.103    -9387679.741 7  -6440089.71325        48.000
 96  6  8 16 13 15.0010000  0  5G 2G27G26G 7G 4
  21640019.636    -1802455.612 9   1172535.78028       100.000
  22138761.684    31008991.059 8   7528295.86227        66.000
  23359895.871    10391255.942 7  -3456634.19826        50.000
  20556473.310    -6911911.019 9  -4765756.87329        96.000
  23671070.069    -9438655.618 6  -6479811.16625        40.000
 96  6  8 16 13 30.0010000  0  5G 2G27G26G 7G 4
  21641887.163    -1792651.969 9   1180174.96528        98.000
  22147252.706    31053605.950 8   7563060.69627        66.000
  23361987.433    10402243.881 7  -3448072.19426        50.000
  20557395.951    -6907031.175 9  -4761954.39729        90.000
  23661372.832    -9489623.384 7  -6519526.25925        46.000
 96  6  8 16 13 45.0010000  0  5G 2G27G26G 7G 4
  21643758.438    -1782820.711 9   1187835.70528        98.000
  22155757.968    31098292.884 8   7597881.65627        66.000
  23364100.880    10413336.509 7  -3439428.62626        48.000
  20558341.616    -6902063.273 9  -4758083.30229        92.000
  23651675.356    -9540582.513 7  -6559234.64525        42.000
 96  6  8 16 14  0.0010000  0  5G 2G27G26G 7G 4
  21645632.470    -1772960.574 9   1195518.92128        98.000
  22164271.624    31143055.872 8   7632761.87126        64.000
  23366228.716    10424533.781 7  -3430703.49826        48.000
  20559307.128    -6897007.820 9  -4754144.01729        96.000
  23641983.425    -9591532.000 7  -6598935.51325        46.000
 96  6  8 16 14 15.0010000  0  5G 2G27G26G 7G 4
  21647517.116    -1763069.602 9   1203226.16028       100.000
  22172811.602    31187898.653 8   7667704.25926        68.000
  23368388.092    10435832.471 7  -3421899.31926        54.000
  20560283.252    -6891864.940 9  -4750136.55829        96.000
  23632293.983    -9642475.157 6  -6638631.45325        40.000
 96  6  8 16 14 30.0010000  0  5G 2G27G26G 7G 4
  21649403.410    -1753145.147 9   1210959.48528        96.000
  22181359.344    31232821.842 8   7702709.31726        68.000
  23370554.062    10447232.561 7  -3413016.16226        54.000
  20561281.111    -6886635.861 9  -4746061.95929        96.000
  23622596.687    -9693411.720 7  -6678322.24725        44.000
 96  6  8 16 14 45.0010000  0  5G 2G27G26G 7G 4
  21651299.867    -1743187.947 9   1218718.34328        96.000
  22189920.128    31277824.722 8   7737776.47326        66.000
  23372739.789    10458730.275 7  -3404056.94026        52.000
  20562292.371    -6881320.772 9  -4741920.33029        98.000
  23612890.516    -9744341.183 6  -6718007.54425        38.000
 96  6  8 16 15  0.0010000  0  5G 2G27G26G 7G 4
  21653204.419    -1733198.854 9   1226502.04128        96.000
  22198500.608    31322910.695 8   7772908.39526        66.000
  23374940.625    10470324.983 7  -3395022.10525        48.000
  20563319.430    -6875921.949 9  -4737713.46129        96.000
  23603203.502    -9795261.852 7  -6757685.93825        44.000
 96  6  8 16 15 15.0010000  0  5G 2G27G26G 7G 4
  21655105.612    -1723174.892 9   1234312.91428        94.000
  22207098.656    31368083.809 8   7808108.20926        68.000
  23377170.931    10482014.309 7  -3385913.56425        50.000
  20564360.609    -6870442.392 9  -4733443.67929        98.000
  23593520.805    -9846172.594 6  -6797356.63025        38.000
 96  6  8 16 15 30.0010000  0  5G 2G27G26G 7G 4
  21657021.976    -1713118.762 9   1242148.86528        96.000
  22215710.704    31413344.082 8   7843375.91226        68.000
  23379408.462    10493798.550 7  -3376731.06225        52.000
  20565419.656    -6864883.211 9  -4729111.84329        96.000
  23583839.518    -9897073.828 7  -6837019.92325        44.000
 96  6  8 16 15 45.0010000  0  5G 2G27G26G 7G 4
  21658939.268    -1703030.932 9   1250009.49428        96.000
  22224337.231    31458691.381 8   7878711.42426        64.000
  23381672.255    10505682.682 7  -3367470.71925        50.000
  20566493.783    -6859242.359 9  -4724716.37229        94.000
  23574150.855    -9947964.371 7  -6876674.87725        42.000
 96  6  8 16 16  0.0010000  0  5G 2G27G26G 7G 4
  21660866.424    -1692912.479 9   1257893.98228        94.000
  22232983.756    31504121.630 8   7914111.60126        64.000
  23383951.997    10517665.170 7  -3358133.74525        50.000
  20567579.091    -6853521.399 9  -4720258.48729        96.000
  23564471.546    -9998844.632 7  -6916321.78825        44.000
 96  6  8 16 16 15.0010000  0  5G 2G27G26G 7G 4
  21662800.385    -1682762.187 9   1265803.29828        94.000
  22241646.618    31549634.177 8   7949575.90926        64.000
  23386251.465    10529745.120 7  -3348720.84525        48.000
  20568687.274    -6847717.767 9  -4715736.18429        96.000
  23554791.697   -10049713.753 7  -6955960.04825        44.000
 96  6  8 16 16 30.0010000  0  5G 2G27G26G 7G 4
  21664737.105    -1672582.906 9   1273735.18728        94.000
  22250321.593    31595225.379 7   7985101.48426        62.000
  23388566.402    10541920.654 7  -3339233.35325        48.000
  20569804.571    -6841831.348 9  -4711149.35429        98.000
  23545119.223   -10100570.418 7  -6995588.62625        44.000
 96  6  8 16 16 45.0010000  0  6G 9G 2G27G26G 7G 4
  24266020.703     -743320.742 6   -200759.49921        38.000
  21666680.689    -1662376.900 9   1281687.92728        94.000
  22259009.338    31640890.451 7   8020684.63526        62.000
  23390902.805    10554189.678 7  -3329673.09925        52.000
  20570943.032    -6835864.055 9  -4706499.51029        98.000
  23535439.045   -10151412.287 7  -7035205.63725        46.000
 96  6  8 16 17  0.0010000  0  6G 9G 2G27G26G 7G 4
  24256784.278     -791883.584 6   -238600.08121        40.000
  21668620.916    -1652143.860 9   1289661.72928        94.000
  22267715.341    31686630.699 7   8056326.32926        62.000
  23393254.227    10566552.587 7  -3320039.66125        50.000
  20572094.146    -6829816.914 9  -4701787.45729        98.000
  23525767.800   -10202238.294 7  -7074810.28225        44.000
 96  6  8 16 17 15.0010000  0  6G 9G 2G27G26G 7G 4
  24247543.295     -840426.943 6   -276426.13121        40.000
  21670578.711    -1641883.044 9   1297657.15828        94.000
  22276429.978    31732444.732 7   8092025.55626        62.000
  23395630.052    10579011.400 7  -3310331.55325        54.000
  20573258.210    -6823690.004 9  -4697013.24729        98.000
  23516098.864   -10253049.182 7  -7114403.14925        46.000
 96  6  8 16 17 30.0010000  0  6G 9G 2G27G26G 7G 4
  24238308.848     -888949.779 7   -314236.13421        42.000
  21672533.597    -1631593.045 9   1305675.32928        94.000
  22285166.890    31778331.013 7   8127781.07726        62.000
  23398015.651    10591569.498 7  -3300546.07325        50.000
  20574438.972    -6817479.356 9  -4692173.76229        98.000
  23506430.857   -10303842.750 7  -7153982.51725        42.000
 96  6  8 16 17 45.0010000  0  6G 9G 2G27G26G 7G 4
  24229078.268     -937450.968 7   -352029.25621        44.000
  21674498.647    -1621273.191 9   1313716.76328        92.000
  22293911.776    31824289.435 7   8163592.81626        62.000
  23400427.301    10604228.368 7  -3290682.00825        52.000
  20575634.395    -6811185.069 9  -4687269.13529        96.000
  23496767.107   -10354618.908 7  -7193548.35125        42.000
 96  6  8 16 18  0.0010000  0  6G 9G 2G27G26G 7G 4
  24219855.063     -985936.635 7   -389810.27622        44.000
  21676469.692    -1610923.442 9   1321781.49428        96.000
  22302672.881    31870314.896 7   8199456.78526        62.000
  23402852.053    10616982.628 7  -3280743.64925        52.000
  20576848.404    -6804811.302 9  -4682302.56129        96.000
  23487109.113   -10405380.425 7  -7233102.77425        44.000
 96  6  8 16 18 15.0010000  0  6G 9G 2G27G26G 7G 4
  24210627.781    -1034406.500 7   -427579.00323        44.000
  21678443.856    -1600542.506 9   1329870.52828        94.000
  22311441.960    31916410.456 7   8235375.35326        62.000
  23405300.937    10629831.315 7  -3270731.71925        52.000
  20578084.179    -6798356.582 9  -4677272.90829       100.000
  23477452.618   -10456125.589 7  -7272644.41325        44.000
 96  6  8 16 18 30.0010000  0  6G 9G 2G27G26G 7G 4
  24201408.474    -1082860.112 7   -465335.04223        42.000
  21680425.124    -1590132.042 9   1337982.57328        94.000
  22320226.449    31962576.267 7   8271348.68926        60.000
  23407758.996    10642774.621 7  -3260646.03025        52.000
  20579321.782    -6791821.023 9  -4672180.26329       100.000
  23467801.129   -10506853.197 7  -7312172.41625        44.000
 96  6  8 16 18 45.0010000  0  6G 9G 2G27G26G 7G 4
  24192192.014    -1131293.906 7   -503075.66623        42.000
  21682407.472    -1579690.962 9   1346118.49328        94.000
  22329024.158    32008812.502 7   8307376.88426        62.000
  23410239.359    10655815.370 7  -3250484.41725        50.000
  20580584.388    -6785202.839 9  -4667023.23629       100.000
  23458146.703   -10557562.673 7  -7351686.27725        42.000
 96  6  8 16 19  0.0010000  0  6G 9G 2G27G26G 7G 4
  24182977.953    -1179708.349 7   -540801.21223        42.000
  21684403.400    -1569218.205 9   1354279.05628        94.000
  22337832.271    32055119.177 7   8343460.00826        60.000
  23412737.769    10668954.947 7  -3240245.78425        50.000
  20581855.118    -6778500.956 9  -4661800.99529        98.000
  23448499.472   -10608256.106 7  -7391187.63425        44.000
 96  6  8 16 19 15.0010000  0  6G 9G 2G27G26G 7G 4
  24173768.748    -1228102.661 6   -578511.09024        40.000
  21686402.566    -1558716.672 9   1362462.05128        96.000
  22346660.079    32101495.107 8   8379597.06826        64.000
  23415264.660    10682195.308 7  -3229928.67625        50.000
  20583149.052    -6771714.105 9  -4656512.53829       100.000
  23438866.031   -10658935.064 7  -7430677.68725        46.000
 96  6  8 16 19 30.0010000  0  6G 9G 2G27G26G 7G 4
  24164565.270    -1276479.304 6   -616207.12324        40.000
  21688406.738    -1548188.668 9   1370665.68528        96.000
  22355499.520    32147935.339 7   8415784.22326        62.000
  23417803.512    10695534.971 7  -3219534.16925        54.000
  20584453.479    -6764840.849 9  -4651156.76429        98.000
  23429221.198   -10709599.157 7  -7470156.18225        46.000
 96  6  8 16 19 45.0010000  0  6G 9G 2G27G26G 7G 4
  24155360.172    -1324839.678 6   -653890.51224        38.000
  21690416.187    -1537635.796 9   1378888.70428        98.000
  22364343.577    32194438.245 7   8452020.22126        62.000
  23420358.973    10708972.494 7  -3209063.37725        48.000
  20585777.693    -6757881.794 9  -4645734.11729       102.000
  23419579.812   -10760248.952 7  -7509623.52225        44.000
 96  6  8 16 20  0.0010000  0  6G 9G 2G27G26G 7G 4
  24146159.512    -1373188.276 6   -691564.74324        38.000
  21692427.045    -1527060.777 9   1387128.97228        94.000
  22373204.153    32241001.414 7   8488303.17526        62.000
  23422933.351    10722504.689 7  -3198518.82325        52.000
  20587121.332    -6750838.513 9  -4640245.85029        98.000
  23409947.630   -10810886.341 7  -7549081.21125        46.000
 96  6  8 16 20 15.0010000  0  6G 9G 2G27G26G 7G 4
  24136961.309    -1421522.820 6   -729228.01724        36.000
  21694443.839    -1516464.332 9   1395385.94028        96.000
  22382080.978    32287627.042 7   8524634.81026        62.000
  23425528.774    10736136.128 7  -3187896.95025        48.000
  20588480.112    -6743707.456 9  -4634689.17329       100.000
  23400314.969   -10861506.666 7  -7588525.55325        44.000
 96  6  8 16 20 30.0010000  0  6G 9G 2G27G26G 7G 4
  24127769.972    -1469840.286 6   -766878.02224        36.000
  21696463.811    -1505847.889 9   1403658.50528        96.000
  22390967.816    32334316.128 8   8561015.88826        64.000
  23428140.356    10749866.462 7  -3177198.00525        50.000
  20589849.864    -6736488.388 9  -4629063.92729        98.000
  23390676.582   -10912109.568 7  -7627956.40125        44.000
 96  6  8 16 20 45.0010000  0  6G 9G 2G27G26G 7G 4
  24118577.256    -1518143.471 6   -804516.82425        34.000
  21698488.759    -1495211.872 9   1411946.28728        98.000
  22399864.696    32381065.543 8   8597443.97726        64.000
  23430773.643    10763695.092 7  -3166422.44725        52.000
  20591240.931    -6729183.253 9  -4623371.60729        98.000
  23381060.469   -10962696.734 7  -7667374.95025        44.000
 96  6  8 16 21  0.0010000  0  6G 9G 2G27G26G 7G 4
  24109384.181    -1566433.793 6   -842145.64925        32.000
  21700519.493    -1484555.137 9   1420250.22528        98.000
  22408767.903    32427875.324 7   8633919.11726        62.000
  23433424.438    10777620.761 7  -3155571.34125        56.000
  20592646.717    -6721797.104 9  -4617616.16929       100.000
  23371428.467   -11013269.868 7  -7706782.57325        42.000
 96  6  8 16 21 15.0010000  0  6G 9G 2G27G26G 7G 4
  24100201.178    -1614709.457 6   -879762.99825        32.000
  21702547.529    -1473876.754 9   1428571.04328        96.000
  22417688.737    32474748.434 7   8670443.59426        62.000
  23436088.364    10791644.468 7  -3144643.81025        52.000
  20594068.453    -6714333.127 9  -4611800.08529       102.000
  23361803.480   -11063825.710 7  -7746176.71325        42.000
 96  6  8 16 21 30.0010000  0  6G 9G 2G27G26G 7G 4
  24091015.267    -1662969.219 6   -917367.96225        32.000
  21704584.109    -1463175.783 9   1436909.46528        96.000
  22426618.925    32521684.045 7   8707016.76426        62.000
  23438774.504    10805763.304 7  -3133642.11025        52.000
  20595502.240    -6706791.954 9  -4605923.84229       100.000
  23352193.993   -11114364.008 7  -7785557.19525        42.000
 96  6  8 16 21 45.0010000  0  6G 9G 2G27G26G 7G 4
  24081831.065    -1711215.295 6   -954962.31725        34.000
  21706623.028    -1452448.930 9   1445268.04628        94.000
  22435565.062    32568684.054 7   8743640.11926        62.000
  23441482.499    10819975.054 7  -3122568.06325        52.000
  20596953.716    -6699173.979 9  -4599987.74729       100.000
  23342582.436   -11164884.255 7  -7824923.61625        44.000
 96  6  8 16 22  0.0010000  0  6G 9G 2G27G26G 7G 4
  24072655.797    -1759443.977 6   -992543.10825        36.000
  21708668.182    -1441693.715 9   1453648.72428        94.000
  22444518.153    32615753.640 7   8780317.70526        62.000
  23444209.232    10834279.060 7  -3111422.09025        56.000
  20598414.784    -6691480.236 9  -4593992.63529        96.000
  23332976.157   -11215383.725 7  -7864273.77925        44.000
 96  6  8 16 22 15.0010000  0  6G 9G 2G27G26G 7G 4
  24063481.159    -1807653.007 6  -1030108.54625        36.000
  21710723.739    -1430907.631 9   1462053.46028        94.000
  22453493.010    32662895.017 8   8817051.20826        64.000
  23446946.787    10848674.942 7  -3100204.58125        54.000
  20599893.660    -6683711.840 9  -4587939.32829        98.000
  23323363.791   -11265858.175 7  -7903604.51425        42.000
 96  6  8 16 22 30.0010000  0  6G 9G 2G27G26G 7G 4
  24054315.274    -1855839.406 6  -1067656.37125        38.000
  21712783.942    -1420089.402 9   1470483.22628        92.000
  22462475.062    32710108.419 7   8853840.83626        60.000
  23449696.333    10863160.405 7  -3088917.22825        52.000
  20601386.927    -6675868.658 9  -4581827.77029       100.000
  23313767.884   -11316308.604 7  -7942916.51725        44.000
 96  6  8 16 22 45.0010000  0  6G 9G 2G27G26G 7G 4
  24045151.008    -1904004.006 6  -1105187.16125        36.000
  21714845.915    -1409237.227 9   1478939.46828        92.000
  22471472.643    32757392.652 7   8890685.67126        60.000
  23452466.745    10877731.896 7  -3077562.83925        48.000
  20602890.236    -6667952.352 9  -4575659.21329       100.000
  23304171.348   -11366736.784 7  -7982211.18325        44.000
 96  6  8 16 23  0.0010000  0  6G 9G 2G27G26G 7G 4
  24035983.565    -1952146.274 6  -1142700.60525        36.000
  21716923.687    -1398351.046 9   1487422.19928        96.000
  22480486.893    32804747.516 7   8927585.51826        60.000
  23455262.400    10892389.437 7  -3066141.37425        54.000
  20604414.381    -6659962.884 9  -4569433.65429        98.000
  23294577.629   -11417141.614 7  -8021487.63025        46.000
 96  6  8 16 23 15.0010000  0  6G 9G 2G27G26G 7G 4
  24026834.978    -2000263.802 6  -1180194.77425        34.000
  21719002.747    -1387429.583 9   1495932.42328        96.000
  22489512.175    32852172.562 7   8964540.07226        60.000
  23458070.975    10907133.907 7  -3054652.19525        56.000
  20605947.939    -6651894.889 9  -4563146.91029        98.000
  23284992.635   -11467520.417 7  -8060743.83325        46.000
 96  6  8 16 23 30.0010000  0  6G 9G 2G27G26G 7G 4
  24017685.522    -2048356.098 6  -1217669.34025        36.000
  21721081.628    -1376472.903 9   1504470.09428        96.000
  22498546.121    32899665.283 7   9001547.36726        58.000
  23460889.954    10921965.171 7  -3043095.39925        56.000
  20607499.935    -6643742.045 9  -4556794.04229        96.000
  23275408.810   -11517871.858 7  -8099978.71825        46.000
 96  6  8 16 23 45.0010000  0  6G 9G 2G27G26G 7G 4
  24008535.976    -2096426.160 6  -1255126.50925        38.000
  21723174.629    -1365481.481 9   1513034.83028        96.000
  22507602.431    32947222.960 7   9038605.27326        58.000
  23463728.509    10936884.076 7  -3031470.31625        54.000
  20609070.637    -6635503.300 9  -4550374.23129        98.000
  23265833.918   -11568194.484 7  -8139191.12925        48.000
 96  6  8 16 24  0.0010000  0  6G 9G 2G27G26G 7G 4
  23999390.148    -2144473.962 6  -1292566.33925        40.000
  21725277.853    -1354456.189 9   1521625.95328        96.000
  22516659.821    32994847.055 7   9075714.94126        58.000
  23466582.953    10951893.953 7  -3019774.32325        52.000
  20610653.482    -6627179.904 9  -4543888.46729       102.000
  23256258.038   -11618486.499 7  -8178379.66425        46.000
 96  6  8 16 24 15.0010000  0  6G 9G 2G27G26G 7G 4
  23990251.814    -2192497.451 6  -1329987.21725        40.000
  21727375.021    -1343399.242 9   1530241.76128        94.000
  22525733.969    33042534.966 7   9112874.31026        58.000
  23469456.224    10966996.895 7  -3008005.79625        52.000
  20612251.375    -6618773.898 9  -4537338.33929       100.000
  23246699.065   -11668747.813 7  -8217544.30925        46.000
 96  6  8 16 24 30.0010000  0  6G 9G 2G27G26G 7G 4
  23981117.618    -2240499.096 6  -1367391.08525        38.000
  21729484.151    -1332314.018 9   1538879.58528        96.000
  22534817.021    33090282.065 7   9150079.80526        58.000
  23472354.947    10982193.352 7  -2996164.42625        56.000
  20613866.117    -6610285.529 9  -4530724.02029        98.000
  23237139.073   -11718981.245 7  -8256687.20625        48.000
 96  6  8 16 24 45.0010000  0  6G 9G 2G27G26G 7G 4
  23971982.492    -2288479.222 6  -1404778.16725        36.000
  21731600.536    -1321202.195 9   1547538.15228        98.000
  22543917.820    33138088.100 7   9187331.20026        58.000
  23475259.666    10997483.497 7  -2984250.05625        52.000
  20615498.158    -6601712.773 9  -4524043.95229        98.000
  23227593.861   -11769187.659 7  -8295809.07225        50.000
 96  6  8 16 25  0.0010000  0  6G 9G 2G27G26G 7G 4
  23962856.660    -2336440.594 6  -1442150.64325        36.000
  21733725.645    -1310064.789 9   1556216.64628       100.000
  22553024.796    33185951.652 7   9224627.47926        58.000
  23478183.632    11012866.947 7  -2972262.96425        54.000
  20617140.451    -6593057.945 9  -4517299.93529        96.000
  23218032.820   -11819364.459 7  -8334907.85825        48.000
 96  6  8 16 25 15.0010000  0  6G 9G 2G27G26G 7G 4
  23953732.416    -2384383.347 6  -1479508.64325        36.000
  21735846.317    -1298901.978 9   1564914.94428        98.000
  22562137.497    33233869.793 7   9261966.26826        54.000
  23481133.949    11028343.356 7  -2960203.45125        54.000
  20618808.286    -6584321.010 9  -4510491.91929        98.000
  23208490.726   -11869509.772 7  -8373982.12725        50.000
 96  6  8 16 25 30.0010000  0  6G 9G 2G27G26G 7G 4
  23944620.524    -2432306.209 6  -1516851.13125        40.000
  21737973.644    -1287711.505 9   1573634.77228        96.000
  22571277.420    33281843.914 7   9299348.66626        56.000
  23484097.068    11043912.333 7  -2948071.78025        56.000
  20620484.486    -6575505.333 9  -4503622.56129        98.000
  23198955.677   -11919622.647 7  -8413031.08125        52.000
 96  6  8 16 25 45.0010000  0  6G 9G 2G27G26G 7G 4
  23935498.559    -2480207.355 6  -1554176.67725        40.000
  21740105.378    -1276493.266 9   1582376.24128        98.000
  22580411.376    33329875.074 7   9336775.51226        56.000
  23487078.714    11059573.618 7  -2935868.20126        50.000
  20622178.793    -6566617.313 9  -4496696.84229        98.000
  23189431.511   -11969703.008 7  -8452054.71325        54.000
 96  6  8 16 26  0.0010000  0  6G 9G 2G27G26G 7G 4
  23926385.888    -2528086.016 6  -1591484.73525        40.000
  21742252.852    -1265246.325 9   1591140.09128       100.000
  22589564.370    33377965.162 7   9374248.26026        54.000
  23490076.279    11075324.220 7  -2923595.01626        52.000
  20623877.956    -6557661.996 9  -4489718.66629        96.000
  23179907.404   -12019751.892 7  -8491053.82225        54.000
 96  6  8 16 26 15.0010000  0  6G 9G 2G27G26G 7G 4
  23917281.970    -2575935.315 6  -1628769.89325        36.000
  21744396.667    -1253966.848 9   1599929.29828        98.000
  22598727.077    33426116.249 7   9411768.58126        54.000
  23493087.184    11091163.496 7  -2911252.73526        50.000
  20625597.866    -6548635.938 9  -4482685.37629        98.000
  23170383.417   -12069768.155 7  -8530027.49225        52.000
 96  6  8 16 26 30.0010000  0  6G 9G 2G27G26G 7G 4
  23908180.361    -2623758.204 6  -1666034.47825        30.000
  21746548.038    -1242656.301 9   1608742.69028        96.000
  22607901.655    33474327.600 7   9449335.85826        54.000
  23496118.356    11107085.350 7  -2898846.10526        52.000
  20627330.546    -6539539.343 9  -4475597.12629       100.000
  23160872.622   -12119752.860 7  -8568976.60025        52.000
 96  6  8 16 26 45.0010000  0  6G 9G 2G27G26G 7G 4
  23899086.697    -2671558.390 6  -1703281.39125        30.000
  21748705.614    -1231311.963 9   1617582.44528        96.000
  22617085.857    33522601.460 7   9486951.83126        54.000
  23499162.089    11123088.286 7  -2886376.30826        54.000
  20629075.638    -6530370.873 9  -4468452.85729        98.000
  23151369.261   -12169707.411 7  -8607902.22125        52.000
 96  6  8 16 27  0.0010000  0  6G 9G 2G27G26G 7G 4
  23889994.741    -2719336.164 6  -1740510.76825        34.000
  21750873.264    -1219931.422 9   1626450.38928        96.000
  22626289.186    33570936.116 7   9524615.15826        54.000
  23502220.182    11139170.761 7  -2873844.53626        52.000
  20630830.473    -6521135.103 9  -4461256.15429        96.000
  23141868.358   -12219633.244 7  -8646805.43725        50.000
 96  6  8 16 27 15.0010000  0  6G 9G 2G27G26G 7G 4
  23880909.860    -2767087.381 6  -1777719.48025        36.000
  21753047.269    -1208511.190 9   1635349.27328        96.000
  22635498.091    33619333.138 7   9562327.07426        54.000
  23505299.979    11155335.944 7  -2861248.29426        50.000
  20632601.347    -6511831.291 9  -4454006.43029        96.000
  23132374.111   -12269529.176 7  -8685685.33125        50.000
 96  6  8 16 27 30.0010000  0  6G 9G 2G27G26G 7G 4
  23871828.337    -2814810.601 6  -1814906.40125        36.000
  21755226.760    -1197052.474 9   1644278.11628        96.000
  22644714.251    33667793.453 7   9600088.32626        54.000
  23508392.698    11171583.195 7  -2848588.11026        52.000
  20634387.301    -6502459.738 9  -4446703.92429       100.000
  23122880.703   -12319398.674 7  -8724544.67025        48.000
 96  6  8 16 27 45.0010000  0  6G 9G 2G27G26G 7G 4
  23862754.699    -2862507.269 6  -1852072.60325        36.000
  21757416.684    -1185557.567 9   1653235.18328        96.000
  22653954.843    33716318.374 7   9637899.93226        54.000
  23511490.544    11187914.511 7  -2835862.41526        50.000
  20636182.278    -6493018.808 9  -4439347.35729        98.000
  23113394.640   -12369243.355 7  -8763384.67725        50.000
 96  6  8 16 28  0.0010000  0  6G 9G 2G27G26G 7G 4
  23853682.619    -2910179.675 6  -1889219.90725        38.000
  21759606.578    -1174028.982 9   1662218.49328        94.000
  22663194.747    33764907.212 7   9675761.32626        54.000
  23514621.486    11204328.005 7  -2823072.69926        52.000
  20637993.325    -6483506.151 9  -4431934.87829        96.000
  23103918.200   -12419063.981 7  -8802205.90425        52.000
 96  6  8 16 28 15.0010000  0  6G 9G 2G27G26G 7G 4
  23844613.478    -2957830.491 6  -1926350.42725        36.000
  21761805.825    -1162467.536 9   1671227.40228        94.000
  22672460.162    33813558.822 7   9713671.63826        56.000
  23517757.076    11220821.677 7  -2810220.52026        52.000
  20639815.943    -6473919.502 9  -4424464.76729        96.000
  23094440.502   -12468861.244 7  -8841008.95025        52.000
 96  6  8 16 28 30.0010000  0  6G 9G 2G27G26G 7G 4
  23835546.375    -3005461.106 6  -1963465.20825        36.000
  21764009.929    -1150876.924 9   1680259.04728        90.000
  22681728.366    33862272.097 7   9751630.00826        52.000
  23520912.811    11237397.453 7  -2797304.35426        52.000
  20641654.330    -6464259.745 9  -4416937.69029        94.000
  23084971.857   -12518635.535 7  -8879794.07225        52.000
 96  6  8 16 28 45.0010000  0  6G 9G 2G27G26G 7G 4
  23826484.698    -3053074.295 6  -2000566.38325        38.000
  21766225.546    -1139257.918 9   1689312.82028        92.000
  22690997.050    33911045.862 7   9789635.51926        48.000
  23524080.988    11254057.702 7  -2784322.37226        50.000
  20643506.478    -6454529.622 9  -4409355.77329        96.000
  23075507.139   -12568388.232 7  -8918562.37826        54.000
 96  6  8 16 29  0.0010000  0  6G 9G 2G27G26G 7G 4
  23817435.463    -3100666.097 6  -2037650.86625        40.000
  21768441.492    -1127610.689 9   1698388.57728        90.000
  22700299.819    33959877.848 7   9827686.38126        50.000
  23527272.188    11270804.220 7  -2771273.09926        48.000
  20645371.007    -6444730.358 9  -4401719.98029        96.000
  23066034.896   -12618119.402 7  -8957313.89826        52.000
 96  6  8 16 29 15.0010000  0  6G 9G 2G27G26G 7G 4
  23808377.803    -3148231.084 7  -2074714.46225        42.000
  21770660.256    -1115937.723 9   1707484.36628        92.000
  22709604.268    34008767.973 7   9865782.56326        52.000
  23530475.681    11287636.493 7  -2758157.07926        48.000
  20647250.136    -6434859.141 9  -4394028.13129        96.000
  23056587.057   -12667824.701 7  -8996045.29326        52.000
 96  6  8 16 29 30.0010000  0  6G 9G 2G27G26G 7G 4
  23799332.435    -3195769.645 7  -2111757.50325        46.000
  21772882.737    -1104240.721 9   1716598.92328        92.000
  22718917.561    34057717.813 7   9903925.24526        54.000
  23533691.794    11304553.693 7  -2744974.85526        46.000
  20649144.255    -6424913.795 9  -4386278.50529        94.000
  23047124.738   -12717502.466 7  -9034755.19326        52.000
 96  6  8 16 29 45.0010000  0  6G 9G 2G27G26G 7G 4
  23790291.894    -3243282.566 7  -2148780.59125        46.000
  21775115.291    -1092519.738 9   1725732.13528        92.000
  22728243.385    34106727.299 7   9942114.42526        52.000
  23536928.054    11321557.000 7  -2731725.58526        48.000
  20651051.924    -6414894.081 9  -4378470.93429        94.000
  23037677.917   -12767150.755 7  -9073442.15426        52.000
 96  6  8 16 30  0.0010000  0  6G 9G 2G27G26G 7G 4
  23781255.939    -3290768.499 7  -2185782.58525        44.000
  21777352.313    -1080774.848 9   1734883.99328        90.000
  22737579.461    34155793.417 7   9980347.72026        50.000
  23540178.733    11338644.243 7  -2718410.82126        48.000
  20652968.407    -6404801.474 9  -4370606.56829        94.000
  23028233.885   -12816767.770 7  -9112104.74926        52.000
 96  6  8 16 30 15.0010000  0  6G 9G 2G27G26G 7G 4
  23772230.148    -3338223.240 6  -2222760.31425        40.000
  21779595.300    -1069002.348 9   1744057.37928        90.000
  22746926.181    34204917.338 7  10018626.09426        52.000
  23543446.561    11355816.268 7  -2705030.03226        50.000
  20654904.527    -6394635.129 9  -4362684.73929        96.000
  23018802.205   -12866351.193 7  -9150741.17226        52.000
 96  6  8 16 30 30.0010000  0  6G 9G 2G27G26G 7G 4
  23763200.639    -3385643.580 6  -2259711.15825        36.000
  21781837.268    -1057202.023 9   1753252.42928        92.000
  22756287.740    34254098.320 7  10056948.90626        52.000
  23546735.075    11373077.877 7  -2691579.44426        50.000
  20656854.287    -6384394.146 9  -4354704.76429        96.000
  23009375.771   -12915900.626 7  -9189351.08526        56.000
 96  6  8 16 30 45.0010000  0  6G 9G 2G27G26G 7G 4
  23754191.665    -3433026.765 6  -2296633.08725        38.000
  21784088.739    -1045373.834 9   1762469.18528        92.000
  22765661.411    34303335.885 7  10095315.78226        52.000
  23550038.128    11390430.602 7  -2678057.85026        50.000
  20658817.868    -6374077.029 9  -4346665.45029        96.000
  22999950.176   -12965414.477 7  -9227933.29326        56.000
 96  6  8 16 31  0.0010000  0  6G 9G 2G27G26G 7G 4
  23745178.075    -3480372.874 7  -2333526.10825        46.000
  21786345.907    -1033516.635 9   1771708.55428        92.000
  22775038.439    34352628.718 7  10133725.77826        50.000
  23553351.704    11407872.856 7  -2664466.52326        46.000
  20660790.322    -6363681.343 9  -4338564.91229        94.000
  22990536.153   -13014891.554 7  -9266486.83826        56.000
 96  6  8 16 31 15.0010000  0  6G 9G 2G27G26G 7G 4
  23736177.706    -3527681.315 7  -2370389.85925        52.000
  21788601.755    -1021630.907 9   1780970.14828        88.000
  22784423.112    34401975.945 7  10172178.11126        48.000
  23556689.203    11425400.894 7  -2650808.34426        48.000
  20662788.079    -6353205.880 9  -4330402.22729        96.000
  22981123.659   -13064330.304 7  -9305010.50026        56.000
 96  6  8 16 31 30.0010000  0  6G 9G 2G27G26G 7G 4
  23727178.836    -3574955.191 7  -2407226.67625        54.000
  21790873.252    -1009717.078 9   1790253.64828        92.000
  22793823.255    34451376.651 7  10210672.16626        50.000
  23560036.656    11443014.315 7  -2637083.61126        46.000
  20664797.798    -6342652.844 9  -4322179.07829        96.000
  22971733.170   -13113731.125 7  -9343504.62826        60.000
 96  6  8 16 31 45.0010000  0  6G 9G 2G27G26G 7G 4
  23718188.210    -3622198.251 7  -2444039.44425        54.000
  21793150.506     -997773.793 9   1799560.12528        96.000
  22803236.948    34500830.781 7  10249207.81026        48.000
  23563410.640    11460713.851 7  -2623291.77326        46.000
  20666814.862    -6332024.749 9  -4313897.44329        94.000
  22962337.495   -13163097.615 7  -9381971.99026        56.000
 96  6  8 16 32  0.0010000  0  6G 9G 2G27G26G 7G 4
  23709203.280    -3669411.032 7  -2480828.59125        46.000
  21795429.858     -985802.215 9   1808888.62228        96.000
  22812653.489    34550337.353 7  10287784.33126        48.000
  23566791.909    11478498.587 7  -2609433.58126        44.000
  20668854.650    -6321321.083 9  -4305556.93129        94.000
  22952939.151   -13212429.580 7  -9420412.44826        56.000
 96  6  8 16 32 15.0010000  0  6G 9G 2G27G26G 7G 4
  23700224.316    -3716595.221 7  -2517595.45025        44.000
  21797710.409     -973802.636 9   1818238.92028        94.000
  22822092.724    34599896.097 7  10326401.47426        50.000
  23570190.357    11496366.352 7  -2595510.65725        42.000
  20670905.890    -6310543.623 9  -4297158.90729        96.000
  22943571.446   -13261728.568 7  -9458827.21226        58.000
 96  6  8 16 32 30.0010000  0  6G 9G 2G27G26G 7G 4
  23691251.858    -3763754.663 7  -2554343.02625        42.000
  21799999.624     -961775.599 9   1827610.62828        94.000
  22831532.889    34649506.700 7  10365059.05326        50.000
  23573605.383    11514316.414 7  -2581523.62125        46.000
  20672968.612    -6299695.514 9  -4288705.83029        94.000
  22934182.516   -13310995.959 7  -9497217.38626        56.000
 96  6  8 16 32 45.0010000  0  6G 9G 2G27G26G 7G 4
  23682282.187    -3810890.044 7  -2591071.87225        44.000
  21802294.506     -949720.490 9   1837004.21428        92.000
  22840984.416    34699169.420 7  10403757.25426        50.000
  23577038.876    11532346.489 7  -2567474.22225        46.000
  20675049.531    -6288778.928 9  -4280199.41929        94.000
  22924819.578   -13360229.717 7  -9535581.32826        58.000
 96  6  8 16 33  0.0010000  0  6G 9G 2G27G26G 7G 4
  23673314.046    -3858004.781 7  -2627784.65125        50.000
  21804596.822     -937636.409 9   1846420.36528        94.000
  22850439.510    34748884.348 7  10442496.10526        50.000
  23580487.208    11550450.865 7  -2553366.89625        46.000
  20677134.678    -6277795.956 9  -4271641.26229        94.000
  22915458.768   -13409427.445 7  -9573917.18026        58.000
 96  6  8 16 33 15.0010000  0  6G 9G 2G27G26G 7G 4
  23664356.667    -3905097.815 7  -2664480.52025        54.000
  21806901.176     -925520.927 9   1855860.99828        94.000
  22859915.890    34798654.697 7  10481278.17326        52.000
  23583943.366    11568626.587 7  -2539204.04026        42.000
  20679239.520    -6266747.456 9  -4263032.03929        94.000
  22906102.395   -13458587.813 7  -9612223.95526        58.000
 96  6  8 16 33 30.0010000  0  6G 9G 2G27G26G 7G 4
  23655395.301    -3952165.987 7  -2701157.01325        52.000
  21809207.720     -913371.451 9   1865328.11728        90.000
  22869397.965    34848483.652 7  10520105.88326        52.000
  23587412.564    11586877.466 6  -2524982.58025        38.000
  20681356.835    -6255634.409 9  -4254372.52229        98.000
  22896750.250   -13507708.507 7  -9650499.75526        58.000
 96  6  8 16 33 45.0010000  0  6G 9G 2G27G26G 7G 4
  23646445.956    -3999210.145 7  -2737814.78625        46.000
  21811524.156     -901189.085 9   1874820.86228        90.000
  22878888.375    34898370.702 7  10558978.88726        50.000
  23590898.970    11605204.197 6  -2510702.05025        40.000
  20683477.057    -6244458.503 9  -4245664.03929        98.000
  22887415.312   -13556789.953 7  -9688745.01826        60.000
 96  6  8 16 34  0.0010000  0  6G 9G 2G27G26G 7G 4
  23637496.312    -4046226.309 7  -2774450.75025        48.000
  21813851.295     -888971.412 9   1884341.10628        90.000
  22888394.464    34948314.837 7  10597896.35926        50.000
  23594403.334    11623605.303 6  -2496363.56425        40.000
  20685618.954    -6233218.309 9  -4236905.43929        96.000
  22878089.698   -13605829.058 7  -9726957.27726        58.000
 96  6  8 16 34 15.0010000  0  6G 9G 2G27G26G 7G 4
  23628553.143    -4093209.550 7  -2811061.05825        48.000
  21816181.762     -876716.441 9   1893890.42428        90.000
  22897913.205    34998313.675 7  10636856.44426        50.000
  23597922.778    11642080.732 7  -2481967.15725        48.000
  20687770.205    -6221913.742 9  -4228096.69329        96.000
  22868756.110   -13654821.041 7  -9765132.82826        58.000
 96  6  8 16 34 30.0010000  0  6G 9G 2G27G26G 7G 4
  23619625.893    -4140158.726 7  -2847644.80125        48.000
  21818523.381     -864423.494 9   1903469.32628        90.000
  22907433.204    35048366.265 7  10675858.44526        50.000
  23601450.106    11660630.234 6  -2467513.02625        40.000
  20689933.267    -6210547.358 9  -4219239.77329        96.000
  22859444.796   -13703764.879 7  -9803270.83526        58.000
 96  6  8 16 34 45.0010000  0  6G 9G 2G27G26G 7G 4
  23610693.037    -4187072.816 7  -2884201.20825        50.000
  21820869.946     -852094.371 9   1913076.44128        90.000
  22916961.927    35098472.561 7  10714902.29226        48.000
  23604991.854    11679255.168 6  -2453000.11025        38.000
  20692113.478    -6199117.704 9  -4210333.53529       100.000
  22850141.606   -13752659.357 7  -9841370.38826        58.000
 96  6  8 16 35  0.0010000  0  6G 9G 2G27G26G 7G 4
  23601773.852    -4233950.219 7  -2920729.01625        56.000
  21823221.428     -839730.250 9   1922710.82328        90.000
  22926508.428    35148630.381 7  10753986.25426        48.000
  23608552.249    11697956.479 6  -2438427.63625        38.000
  20694298.605    -6187622.027 9  -4201375.87129       100.000
  22840845.132   -13801503.525 7  -9879430.72726        56.000
 96  6  8 16 35 15.0010000  0  6G 9G 2G27G26G 7G 4
  23592863.121    -4280789.736 7  -2957227.35425        52.000
  21825580.255     -827332.233 9   1932371.60928        88.000
  22936063.324    35198839.113 7  10793109.89326        48.000
  23612129.643    11716735.353 6  -2423794.80125        40.000
  20696501.420    -6176060.000 9  -4192366.49429       100.000
  22831559.870   -13850301.064 7  -9917454.76526        58.000
 96  6  8 16 35 30.0010000  0  6G 9G 2G27G26G 7G 4
  23583955.118    -4327590.300 7  -2993695.33125        46.000
  21827949.545     -814901.168 9   1942058.13028        88.000
  22945629.251    35249096.072 7  10832271.13526        50.000
  23615714.021    11735596.181 6  -2409098.10325        40.000
  20698707.743    -6164432.123 9  -4183305.81929        98.000
  22822279.824   -13899055.434 7  -9955445.15526        56.000
 96  6  8 16 35 45.0010000  0  6G 9G 2G27G26G 7G 4
  23575059.166    -4374352.947 7  -3030133.74625        48.000
  21830321.473     -802439.011 9   1951768.88828        88.000
  22955203.603    35299397.814 7  10871467.23726        48.000
  23619320.465    11754540.378 6  -2394336.36725        40.000
  20700934.211    -6152737.063 9  -4174192.78929       100.000
  22813014.649   -13947766.685 7  -9993401.92126        56.000
 96  6  8 16 36  0.0010000  0  6G 9G 2G27G26G 7G 4
  23566165.673    -4421077.742 7  -3066542.66925        48.000
  21832699.756     -789945.183 9   1961504.34328        88.000
  22964782.872    35349742.412 7  10910696.75926        50.000
  23622942.437    11773563.826 6  -2379512.91325        40.000
  20703173.481    -6140974.224 9  -4165026.94029        98.000
  22803756.548   -13996435.969 7 -10031326.01326        56.000
 96  6  8 16 36 15.0010000  0  6G 9G 2G27G26G 7G 4
  23557282.882    -4467764.723 7  -3102922.13125        50.000
  21835080.948     -777418.671 9   1971265.25328        88.000
  22974376.320    35400130.672 7  10949960.32326        48.000
  23626570.885    11792667.756 6  -2364626.73425        38.000
  20705423.244    -6129142.971 9  -4155807.79829        96.000
  22794501.115   -14045064.813 7 -10069218.57826        56.000
 96  6  8 16 36 30.0010000  0  6G 9G 2G27G26G 7G 4
  23548404.199    -4514415.658 7  -3139273.49725        50.000
  21837470.474     -764861.750 9   1981049.85628        86.000
  22983974.176    35450565.586 7  10989260.21826        48.000
  23630223.617    11811855.350 6  -2349675.40825        38.000
  20707684.998    -6117243.319 9  -4146535.33029        98.000
  22785254.077   -14093655.631 7 -10107081.50026        58.000
 96  6  8 16 36 45.0010000  0  6G 9G 2G27G26G 7G 4
  23539529.263    -4561032.289 7  -3175598.11125        46.000
  21839864.406     -752276.268 9   1990856.74128        88.000
  22993570.472    35501047.791 7  11028596.97426        46.000
  23633891.637    11831125.290 6  -2334659.96325        38.000
  20709971.275    -6105274.848 9  -4137209.25929       104.000
  22776018.490   -14142212.640 7 -10144918.07926        60.000
 96  6  8 16 37  0.0010000  0  6G 9G 2G27G26G 7G 4
  23530668.357    -4607612.669 7  -3211894.49925        44.000
  21842267.843     -739658.753 9   2000688.54728        86.000
  23003193.091    35551574.625 7  11067968.49826        46.000
  23637576.476    11850478.268 6  -2319579.72725        38.000
  20712256.863    -6093234.709 9  -4127827.32929       100.000
  22766782.664   -14190736.647 7 -10182728.96426        60.000
 96  6  8 16 37 15.0010000  0  6G 9G 2G27G26G 7G 4
  23521809.430    -4654157.310 7  -3248163.02625        46.000
  21844670.859     -727007.187 9   2010546.88828        86.000
  23012815.469    35602144.506 7  11107373.55926        44.000
  23641274.386    11869911.170 7  -2304437.20625        42.000
  20714561.847    -6081124.924 9  -4118391.13729        98.000
  22757552.564   -14239228.400 7 -10220514.69226        60.000
 96  6  8 16 37 30.0010000  0  6G 9G 2G27G26G 7G 4
  23512961.625    -4700664.627 7  -3284402.51625        50.000
  21847085.148     -714320.487 9   2020432.61428        84.000
  23022446.002    35652758.687 7  11146813.15926        44.000
  23644990.284    11889423.794 6  -2289232.57525        40.000
  20716878.643    -6068945.571 9  -4108900.74229       100.000
  22748330.738   -14287686.340 7 -10258274.08626        62.000
 96  6  8 16 37 45.0010000  0  6G 9G 2G27G26G 7G 4
  23504116.459    -4747135.033 7  -3320613.23525        50.000
  21849508.730     -701598.287 9   2030346.00328        84.000
  23032086.248    35703418.098 7  11186287.99426        44.000
  23648718.503    11909015.515 6  -2273966.31925        40.000
  20719210.429    -6056695.526 9  -4099355.25229       102.000
  22739116.317   -14336104.855 7 -10296002.75726        62.000
 96  6  8 16 38  0.0010000  0  6G 9G 2G27G26G 7G 4
  23495284.033    -4793565.792 7  -3356793.02625        44.000
  21851933.062     -688839.671 9   2040287.77828        84.000
  23041733.210    35754124.011 7  11225799.05526        46.000
  23652458.744    11928686.319 6  -2258638.44825        40.000
  20721554.566    -6044375.808 9  -4089755.47629       102.000
  22729907.622   -14384481.844 7 -10333699.06926        62.000
 96  6  8 16 38 15.0010000  0  6G 9G 2G27G26G 7G 4
  23486457.334    -4839957.290 7  -3392942.18425        44.000
  21854369.445     -676042.798 8   2050259.36428        82.000
  23051391.774    35804877.635 7  11265347.29726        46.000
  23656215.143    11948438.712 6  -2243247.04225        38.000
  20723912.554    -6031988.628 9  -4080103.13229       104.000
  22720708.821   -14432816.591 7 -10371362.47726        60.000
 96  6  8 16 38 30.0010000  0  6G 9G 2G27G26G 7G 4
  23477635.131    -4886309.799 7  -3429061.01625        44.000
  21856812.484     -663211.474 9   2060257.79828        86.000
  23061059.481    35855680.777 7  11304934.08826        44.000
  23659999.333    11968275.015 7  -2227790.16025        42.000
  20726283.403    -6019533.913 9  -4070398.15829       104.000
  22711521.621   -14481105.489 7 -10408990.15326        60.000
 96  6  8 16 38 45.0010000  0  6G 9G 2G27G26G 7G 4
  23468821.833    -4932624.651 7  -3465150.53525        44.000
  21859259.839     -650347.002 9   2070282.04228        84.000
  23070735.972    35906531.980 7  11344558.36926        44.000
  23663792.188    11988191.276 7  -2212271.04625        42.000
  20728662.675    -6007012.091 9  -4060640.89029       102.000
  22702344.104   -14529345.759 7 -10446579.92826        62.000
 96  6  8 16 39  0.0010000  0  6G 9G 2G27G26G 7G 4
  23460010.093    -4978902.013 7  -3501210.75725        50.000
  21861715.799     -637447.776 9   2080333.37128        84.000
  23080425.864    35957429.631 7  11384218.85326        44.000
  23667585.492    12008183.906 6  -2196692.36625        40.000
  20731063.264    -5994424.435 9  -4050832.33329       102.000
  22693175.731   -14577533.972 8 -10484129.12326        64.000
 96  6  8 16 39 15.0010000  0  6G 9G 2G27G26G 7G 4
  23451214.152    -5025142.263 7  -3537242.12025        52.000
  21864176.046     -624514.289 8   2090411.40628        82.000
  23090117.584    36008375.875 6  11423917.20826        40.000
  23671415.910    12028252.838 7  -2181054.26625        44.000
  20733464.781    -5981771.327 9  -4040972.77229       102.000
  22684014.823   -14625666.321 7 -10521634.82326        62.000
 96  6  8 16 39 30.0010000  0  6G 9G 2G27G26G 7G 4
  23442424.537    -5071343.860 7  -3573243.33525        48.000
  21866643.008     -611548.192 8   2100514.84428        80.000
  23099820.817    36059377.392 7  11463658.57426        42.000
  23675236.195    12048396.800 6  -2165357.75225        40.000
  20735892.111    -5969049.894 9  -4031059.96929       106.000
  22674866.686   -14673740.155 8 -10559094.91526        64.000
 96  6  8 16 39 45.0010000  0  6G 9G 2G27G26G 7G 4
  23433637.920    -5117507.324 7  -3609214.87025        44.000
  21869112.369     -598551.213 8   2110642.36528        82.000
  23109540.358    36110433.849 7  11503442.79825        42.000
  23679092.395    12068613.654 7  -2149604.38625        44.000
  20738323.188    -5956262.019 9  -4021095.39129       106.000
  22665727.783   -14721757.176 7 -10596510.74126        62.000
 96  6  8 16 40  0.0010000  0  6G 9G 2G27G26G 7G 4
  23424860.027    -5163633.285 7  -3645157.15325        46.000
  21871589.374     -585521.997 8   2120795.00428        82.000
  23119265.805    36161544.628 7  11543269.34425        42.000
  23682943.889    12088902.718 6  -2133794.72425        40.000
  20740769.194    -5943408.474 9  -4011079.64029       108.000
  22656597.874   -14769720.931 7 -10633885.06026        60.000
 96  6  8 16 40 15.0010000  0  6G 9G 2G27G26G 7G 4
  23416093.436    -5209720.506 7  -3681069.24626        50.000
  21874084.786     -572459.278 8   2130973.72027        82.000
  23129000.186    36212710.953 7  11583139.17525        42.000
  23686817.957    12109262.884 6  -2117929.69125        38.000
  20743229.231    -5930488.738 9  -4001012.30929       106.000
  22647486.581   -14817633.426 7 -10671219.44626        62.000
 96  6  8 16 40 30.0010000  0  6G 9G 2G27G26G 7G 4
  23407329.483    -5255770.223 7  -3716952.14826        44.000
  21876574.892     -559366.714 9   2141175.72127        84.000
  23138754.084    36263931.725 7  11623051.40925        44.000
  23690707.914    12129688.118 6  -2102013.89925        36.000
  20745701.680    -5917503.004 9  -3990893.56829       106.000
  22638376.038   -14865496.190 7 -10708515.06726        60.000
 96  6  8 16 40 45.0010000  0  6G 9G 2G27G26G 7G 4
  23398571.076    -5301779.799 7  -3752803.72026        46.000
  21879071.354     -546242.225 9   2151402.59027        84.000
  23148502.075    36315206.678 7  11663005.88725        44.000
  23694606.835    12150174.838 6  -2086050.26325        40.000
  20748182.522    -5904447.875 9  -3980720.74329       104.000
  22629281.594   -14913310.716 7 -10745773.10626        60.000
 96  6  8 16 41  0.0010000  0  6G 9G 2G27G26G 7G 4
  23389822.713    -5347747.102 7  -3788622.39126        48.000
  21881573.902     -533082.639 9   2161656.79427        86.000
  23158275.160    36366533.578 7  11703000.81825        46.000
  23698514.120    12170721.761 6  -2070039.75825        36.000
  20750680.513    -5891326.401 9  -3970496.21229       104.000
  22620186.431   -14961081.329 7 -10782996.93026        62.000
 96  6  8 16 41 15.0010000  0  6G 9G 2G27G26G 7G 4
  23381089.339    -5393667.980 7  -3824404.91826        46.000
  21884082.775     -519886.284 9   2171939.64427        86.000
  23168050.402    36417912.737 7  11743036.51525        44.000
  23702437.084    12191332.078 6  -2053979.77225        38.000
  20753190.495    -5878137.603 9  -3960219.22229       106.000
  22611107.096   -15008807.978 7 -10820186.47326        58.000
 96  6  8 16 41 30.0010000  0  6G 9G 2G27G26G 7G 4
  23372356.714    -5439542.302 7  -3860151.10226        46.000
  21886605.948     -506654.440 9   2182250.19727        84.000
  23177836.048    36469342.401 7  11783111.52025        46.000
  23706367.543    12212006.478 7  -2037869.85625        42.000
  20755711.630    -5864883.637 9  -3949891.46129       106.000
  22602029.650   -15056491.720 7 -10857342.60526        60.000
 96  6  8 16 41 45.0010000  0  6G 9G 2G27G26G 7G 4
  23363635.332    -5485368.989 7  -3895860.20026        44.000
  21889132.059     -493385.247 9   2192589.82927        86.000
  23187631.077    36520820.102 7  11823223.98225        44.000
  23710322.945    12232747.349 7  -2021708.17725        42.000
  20758245.266    -5851567.921 9  -3939515.58429       104.000
  22592962.188   -15104132.323 7 -10894465.12126        58.000
 96  6  8 16 42  0.0010000  0  6G 9G 2G27G26G 7G 4
  23354922.344    -5531145.267 7  -3931529.98726        46.000
  21891657.811     -480076.575 9   2202960.20527        84.000
  23197432.702    36572343.327 7  11863371.90725        44.000
  23714277.897    12253559.589 6  -2005490.89825        40.000
  20760794.911    -5838190.950 9  -3929091.97129       104.000
  22583908.935   -15151728.330 7 -10931552.89426        58.000
 96  6  8 16 42 15.0010000  0  6G 9G 2G27G26G 7G 4
  23346225.784    -5576873.412 7  -3967162.31126        50.000
  21894200.920     -466731.197 9   2213359.18227        84.000
  23207251.744    36623909.697 7  11903553.45125        44.000
  23718256.713    12274443.403 6  -1989217.82325        38.000
  20763347.674    -5824754.349 9  -3918621.89429       104.000
  22574861.559   -15199276.863 7 -10968603.68126        60.000
 96  6  8 16 42 30.0010000  0  6G 9G 2G27G26G 7G 4
  23337529.465    -5622554.032 7  -4002757.58426        46.000
  21896744.539     -453348.951 9   2223786.90327        86.000
  23217066.140    36675516.447 7  11943766.45725        44.000
  23722244.552    12295398.439 6  -1972889.23325        40.000
  20765917.884    -5811261.700 9  -3908108.14129       102.000
  22565823.865   -15246773.516 7 -11005614.04026        60.000
 96  6  8 16 42 45.0010000  0  6G 9G 2G27G26G 7G 4
  23328846.965    -5668188.507 7  -4038316.85226        50.000
  21899300.480     -439928.460 9   2234244.42827        84.000
  23226899.902    36727160.789 7  11984008.75826        42.000
  23726242.494    12316425.079 6  -1956504.84825        40.000
  20768494.750    -5797713.267 9  -3897550.92229       104.000
  22556791.148   -15294215.405 7 -11042581.71426        60.000
 96  6  8 16 43  0.0010000  0  6G 9G 2G27G26G 7G 4
  23320169.143    -5713774.506 7  -4073838.40426        48.000
  21901861.097     -426464.992 9   2244735.44127        84.000
  23236733.214    36778843.733 7  12024281.16426        42.000
  23730258.094    12337528.054 6  -1940061.01725        38.000
  20771085.107    -5784110.740 9  -3886951.54729       104.000
  22547781.306   -15341597.236 7 -11079502.58326        62.000
 96  6  8 16 43 15.0010000  0  6G 9G 2G27G26G 7G 4
  23311509.608    -5759311.844 7  -4109322.04626        48.000
  21904430.169     -412960.652 9   2255258.31627        84.000
  23246568.805    36830561.847 7  12064580.92926        42.000
  23734291.262    12358707.889 6  -1923557.27425        40.000
  20773686.526    -5770457.270 9  -3876312.48829       106.000
  22538773.412   -15388915.045 7 -11116373.56726        60.000
 96  6  8 16 43 30.0010000  0  6G 9G 2G27G26G 7G 4
  23302850.792    -5804803.246 7  -4144769.84126        52.000
  21907012.911     -399416.877 9   2265811.88527        84.000
  23256419.026    36882314.460 7  12104907.58225        42.000
  23738343.677    12379961.903 7  -1906995.75225        42.000
  20776290.703    -5756751.556 9  -3865632.70029       104.000
  22529781.167   -15436167.155 7 -11153193.37826        62.000
 96  6  8 16 43 45.0010000  0  6G 9G 2G27G26G 7G 4
  23294204.838    -5850250.387 7  -4180183.21726        56.000
  21909593.014     -385833.596 8   2276396.23827        82.000
  23266281.179    36934101.996 7  12145261.51425        42.000
  23742395.462    12401290.476 7  -1890376.13925        42.000
  20778909.031    -5742993.914 9  -3854912.46129       104.000
  22520802.443   -15483355.422 7 -11189963.42526        62.000
 96  6  8 16 44  0.0010000  0  6G 9G 2G27G26G 7G 4
  23285563.620    -5895653.025 7  -4215561.88926        54.000
  21912188.737     -372210.755 8   2287011.44627        82.000
  23276146.599    36985924.998 7  12185643.02325        44.000
  23746459.148    12422690.994 6  -1873700.41025        36.000
  20781536.652    -5729180.264 9  -3844148.58229       104.000
  22511826.597   -15530481.781 7 -11226685.23626        60.000
 96  6  8 16 44 15.0010000  0  6G 9G 2G27G26G 7G 4
  23276928.728    -5941013.382 7  -4250907.61726        46.000
  21914787.758     -358548.958 9   2297657.00827        84.000
  23286007.073    37037783.523 6  12226052.24625        40.000
  23750557.131    12444162.478 6  -1856969.37425        40.000
  20784174.825    -5715307.634 9  -3833338.75929       102.000
  22502876.773   -15577544.642 7 -11263357.60026        62.000
 96  6  8 16 44 30.0010000  0  6G 9G 2G27G26G 7G 4
  23268309.604    -5986333.186 7  -4286221.71826        48.000
  21917395.743     -344846.518 9   2308334.23127        84.000
  23295876.690    37089677.560 6  12266489.06825        40.000
  23754651.907    12465700.330 6  -1840186.67625        38.000
  20786827.779    -5701376.618 9  -3822483.42529       104.000
  22493931.355   -15624543.723 8 -11299980.24726        64.000
 96  6  8 16 44 45.0010000  0  6G 9G 2G27G26G 7G 4
  23259689.372    -6031609.234 7  -4321501.72026        50.000
  21920010.832     -331103.781 9   2319042.85227        84.000
  23305762.466    37141608.528 6  12306954.70725        36.000
  23758763.440    12487303.987 7  -1823352.70425        42.000
  20789489.126    -5687384.219 9  -3811580.26129       102.000
  22485001.048   -15671483.668 8 -11336556.78926        68.000
 96  6  8 16 45  0.0010000  0  6G 9G 2G27G26G 7G 4
  23251087.007    -6076839.217 7  -4356745.85226        50.000
  21922629.699     -317322.645 8   2329781.41027        82.000
  23315654.268    37193581.892 6  12347453.38325        40.000
  23762889.664    12508976.052 7  -1806465.45425        42.000
  20792161.806    -5673326.909 9  -3800626.50829       102.000
  22476083.691   -15718365.759 8 -11373088.23926        68.000
 96  6  8 16 45 15.0010000  0  6G 9G 2G27G26G 7G 4
  23242485.452    -6122023.126 7  -4391954.08726        52.000
  21925264.006     -303506.120 9   2340547.51527        84.000
  23325559.471    37245597.035 6  12387984.61325        40.000
  23767024.281    12530716.161 6  -1789525.09825        40.000
  20794850.824    -5659204.671 9  -3789622.17129       104.000
  22467168.073   -15765191.957 8 -11409576.15826        66.000
 96  6  8 16 45 30.0010000  0  6G 9G 2G27G26G 7G 4
  23233898.707    -6167162.599 7  -4427127.68026        58.000
  21927897.772     -289655.522 9   2351340.17227        84.000
  23335465.453    37297656.963 6  12428550.78125        40.000
  23771176.587    12552525.987 6  -1772530.43925        38.000
  20797552.524    -5645013.847 9  -3778564.38229       102.000
  22458269.124   -15811963.710 8 -11446021.66726        66.000
 96  6  8 16 45 45.0010000  0  6G 9G 2G27G26G 7G 4
  23225311.781    -6212258.710 7  -4462267.50126        52.000
  21930538.104     -275772.358 9   2362158.22027        84.000
  23345373.234    37349762.189 6  12469152.21425        38.000
  23775334.558    12574406.124 6  -1755480.98425        38.000
  20800265.346    -5630755.123 9  -3767453.69229       104.000
  22449377.160   -15858683.900 8 -11482427.00126        66.000
 96  6  8 16 46  0.0010000  0  6G 9G 2G27G26G 7G 4
  23216743.023    -6257311.454 7  -4497373.51526        56.000
  21933188.390     -261857.028 9   2373001.33927        84.000
  23355298.763    37401910.777 6  12509787.43125        40.000
  23779513.905    12596354.952 6  -1738378.05625        38.000
  20802992.468    -5616430.649 9  -3756291.76129       104.000
  22440495.328   -15905352.446 8 -11518792.09026        68.000
 96  6  8 16 46 15.0010000  0  6G 9G 2G27G26G 7G 4
  23208175.255    -6302320.080 7  -4532445.15226        56.000
  21935843.202     -247911.042 9   2383868.33227        84.000
  23365230.228    37454101.538 6  12550455.50725        38.000
  23783700.357    12618371.767 6  -1721222.17425        38.000
  20805731.252    -5602041.619 9  -3745079.53829       106.000
  22431624.859   -15951966.390 8 -11555114.60826        68.000
 96  6  8 16 46 30.0010000  0  6G 9G 2G27G26G 7G 4
  23199617.919    -6347283.826 7  -4567481.82026        54.000
  21938503.800     -233932.951 9   2394760.35327        86.000
  23375165.650    37506335.485 6  12591157.23725        38.000
  23787903.567    12640457.499 6  -1704012.47425        40.000
  20808479.300    -5587589.242 9  -3733817.93929       102.000
  22422765.452   -15998522.898 8 -11591392.38926        70.000
 96  6  8 16 46 45.0010000  0  6G 9G 2G27G26G 7G 4
  23191077.581    -6392198.053 7  -4602479.87826        56.000
  21941163.049     -219923.124 8   2405677.09627        80.000
  23385115.881    37558613.695 6  12631893.49725        38.000
  23792130.911    12662613.628 7  -1686748.00425        46.000
  20811244.585    -5573073.599 9  -3722507.05829       102.000
  22413920.766   -16045023.254 8 -11627626.41026        72.000
 96  6  8 16 47  0.0010000  0  6G 9G 2G27G26G 7G 4
  23182536.794    -6437062.858 7  -4637439.50426        56.000
  21943835.729     -205883.206 8   2416617.28727        82.000
  23395074.267    37610935.156 6  12672663.41025        40.000
  23796350.699    12684841.982 6  -1669427.24625        40.000
  20814014.218    -5558492.759 9  -3711145.37329       102.000
  22405080.036   -16091464.588 8 -11663814.44326        68.000
 96  6  8 16 47 15.0010000  0  6G 9G 2G27G26G 7G 4
  23174008.778    -6481881.051 7  -4672362.75026        52.000
  21946515.843     -191812.833 9   2427581.20827        84.000
  23405037.540    37663293.311 6  12713461.90725        40.000
  23800588.535    12707137.489 6  -1652054.16525        36.000
  20816803.007    -5543850.784 9  -3699736.03129       102.000
  22396248.900   -16137843.685 8 -11699953.97726        66.000
 96  6  8 16 47 30.0010000  0  6G 9G 2G27G26G 7G 4
  23165483.939    -6526651.860 7  -4707249.07226        54.000
  21949198.776     -177709.899 9   2438570.50327        86.000
  23415005.969    37715684.958 6  12754286.47125        40.000
  23804849.665    12729498.253 6  -1634630.21225        38.000
  20819603.668    -5529146.040 9  -3688277.78729       100.000
  22387440.098   -16184158.895 8 -11736043.71926        68.000
 96  6  8 16 47 45.0010000  0  6G 9G 2G27G26G 7G 4
  23156976.189    -6571375.101 7  -4742098.32526        56.000
  21951894.720     -163572.581 9   2449586.59027        86.000
  23424980.184    37768110.788 6  12795137.76725        40.000
  23809117.361    12751923.377 6  -1617156.10625        34.000
  20822406.158    -5514377.982 9  -3676770.22429        98.000
  22378641.759   -16230410.659 8 -11772084.02926        72.000
 96  6  8 16 48  0.0010000  0  6G 9G 2G27G26G 7G 4
  23148473.355    -6616048.602 7  -4776908.82326        56.000
  21954583.978     -149399.891 9   2460630.23327        86.000
  23434967.560    37820569.682 6  12836014.75525        40.000
  23813396.089    12774409.162 6  -1599634.72325        40.000
  20825231.222    -5499548.199 9  -3665214.54929       100.000
  22369851.124   -16276598.969 8 -11808074.88626        70.000
 96  6  8 16 48 15.0010000  0  6G 9G 2G27G26G 7G 4
  23139982.543    -6660671.517 7  -4811679.89626        60.000
  21957291.134     -135191.723 9   2471701.52527        84.000
  23444959.133    37873064.422 6  12876919.74925        40.000
  23817682.851    12796955.541 6  -1582066.16825        38.000
  20828066.719    -5484654.511 9  -3653609.08029       100.000
  22361075.090   -16322723.821 8 -11844016.28926        70.000
 96  6  8 16 48 30.0010000  0  6G 9G 2G27G26G 7G 4
  23131499.796    -6705242.851 7  -4846410.81826        54.000
  21959999.878     -120948.462 9   2482800.17527        84.000
  23454953.314    37925596.506 6  12917853.80525        40.000
  23821993.747    12819563.259 7  -1564449.78425        42.000
  20830913.159    -5469693.323 9  -3641951.01529       100.000
  22352310.777   -16368786.469 8 -11879909.23426        68.000
 96  6  8 16 48 45.0010000  0  6G 9G 2G27G26G 7G 4
  23123035.396    -6749758.556 7  -4881098.38126        60.000
  21962719.416     -106666.899 9   2493928.66127        84.000
  23464955.170    37978165.651 6  12958816.71325        40.000
  23826306.351    12842232.463 6  -1546785.51125        40.000
  20833772.459    -5454663.811 9  -3630239.70729        98.000
  22343554.829   -16414786.506 8 -11915753.38726        68.000
 96  6  8 16 49  0.0010000  0  6G 9G 2G27G26G 7G 4
  23114574.803    -6794218.113 7  -4915742.15726        62.000
  21965438.473      -92345.397 8   2505088.27027        82.000
  23474965.330    38030771.333 6  12999808.09025        40.000
  23830626.361    12864963.756 6  -1529072.85525        38.000
  20836647.829    -5439566.981 9  -3618475.94029       100.000
  22334812.131   -16460723.683 8 -11951548.56726        66.000
 96  6  8 16 49 15.0010000  0  6G 9G 2G27G26G 7G 4
  23106121.165    -6838624.297 7  -4950344.38226        62.000
  21968178.876      -77985.474 9   2516277.82227        86.000
  23484984.514    38083411.803 6  13040826.57325        38.000
  23834972.122    12887755.154 6  -1511313.31425        40.000
  20839531.563    -5424408.259 9  -3606663.95329       100.000
  22326082.145   -16506599.986 8 -11987296.30026        64.000
 96  6  8 16 49 30.0000000  0  6G 9G 2G27G26G 7G 4
  23097683.027    -6882971.505 7  -4984900.61826        60.000
  21970921.168      -63585.567 9   2527498.51527        86.000
  23495002.648    38136088.271 6  13081873.18325        36.000
  23839313.117    12910607.586 6  -1493506.23725        38.000
  20842432.624    -5409188.867 9  -3594804.69629       102.000
  22317363.371   -16552413.656 8 -12022995.25426        64.000
 96  6  8 16 49 45.0000000  0  6G 9G 2G27G26G 7G 4
  23089255.531    -6927265.675 7  -5019415.55326        58.000
  21973667.866      -49142.856 9   2538752.57527        86.000
  23505040.179    38188811.406 6  13122956.03925        38.000
  23843675.037    12933526.380 6  -1475647.47525        38.000
  20845335.215    -5393908.000 9  -3582897.52429        98.000
  22308655.209   -16598173.959 8 -12058652.58826        66.000
 96  6  8 16 50  0.0000000  0  6G 9G 2G27G26G 7G 4
  23080832.592    -6971501.095 7  -5053884.72026        56.000
  21976423.379      -34655.589 9   2550041.35927        84.000
  23515087.544    38241580.713 6  13164074.94825        38.000
  23848041.634    12956511.494 6  -1457737.01125        36.000
  20848253.125    -5378568.969 9  -3570945.04029       100.000
  22299963.626   -16643874.175 8 -12094263.12626        68.000
 96  6  8 16 50 15.0000000  0  6G 9G 2G27G26G 7G 4
  23072428.570    -7015677.598 7  -5088307.95426        58.000
  21979183.748      -20125.527 8   2561363.48027        82.000
  23525137.786    38294392.460 6  13205226.88625        38.000
  23852436.892    12979563.366 6  -1439774.57725        38.000
  20851184.106    -5363173.506 9  -3558948.57029       100.000
  22291276.301   -16689513.457 8 -12129826.14426        68.000
 96  6  8 16 50 30.0000000  0  6G 9G 2G27G26G 7G 4
  23064037.139    -7059796.252 7  -5122686.09526        60.000
  21981960.455       -5551.828 8   2572719.59827        82.000
  23535186.739    38347244.367 6  13246410.15125        36.000
  23856837.035    13002681.965 6  -1421760.10925        40.000
  20854125.279    -5347722.084 9  -3546908.50729        98.000
  22282601.566   -16735090.175 8 -12165340.44326        68.000
 96  6  8 16 50 45.0000000  0  6G 9G 2G27G26G 7G 4
  23055646.368    -7103857.222 7  -5157019.30626        56.000
  21984743.009        9066.756 8   2584110.68027        82.000
  23545244.806    38400131.425 6  13287620.81925        36.000
  23861253.488    13025867.169 6  -1403693.74725        40.000
  20857077.156    -5332221.617 9  -3534830.21829       100.000
  22273944.609   -16780601.262 8 -12200803.59026        68.000
 96  6  8 16 51  0.0000000  0  6G 9G 2G27G26G 7G 4
  23047275.053    -7147862.166 7  -5191308.84626        58.000
  21987532.098       23732.077 9   2595538.20427        84.000
  23555326.467    38453053.860 6  13328859.02525        36.000
  23865668.352    13049119.790 6  -1385574.83225        38.000
  20860032.750    -5316675.334 9  -3522716.22429       100.000
  22265293.198   -16826044.711 8 -12236214.04426        68.000
 96  6  8 16 51 15.0000000  0  6G 9G 2G27G26G 7G 4
  23038911.204    -7191811.131 7  -5225554.77626        60.000
  21990331.410       38441.729 8   2607000.26627        82.000
  23565409.267    38506013.234 6  13370126.01325        34.000
  23870109.597    13072440.602 6  -1367402.78725        38.000
  20862999.016    -5301080.872 9  -3510564.71529       102.000
  22256659.925   -16871418.747 8 -12271570.40826        68.000
 96  6  8 16 51 30.0000000  0  6G 9G 2G27G26G 7G 4
  23030558.716    -7235700.888 7  -5259754.59726        58.000
  21993137.288       53196.092 8   2618497.15927        80.000
  23575494.885    38559010.042 6  13411422.15625        36.000
  23874564.273    13095828.073 6  -1349178.84925        38.000
  20865979.253    -5285433.747 9  -3498372.14329       102.000
  22248042.211   -16916720.996 8 -12306870.83426        70.000
 96  6  8 16 51 45.0000000  0  6G 9G 2G27G26G 7G 4
  23022219.269    -7279534.861 7  -5293910.91326        62.000
  21995956.506       67994.518 8   2630028.40027        80.000
  23585581.612    38612038.610 6  13452743.07225        32.000
  23879023.026    13119276.931 6  -1330907.01625        38.000
  20868964.736    -5269735.483 9  -3486139.72529       100.000
  22239429.923   -16961952.601 8 -12342116.20226        68.000
 96  6  8 16 52  0.0000000  0  7G 9G 2G27G26G 7G24G 4
  23013888.517    -7323310.752 8  -5328022.00226        64.000
  21998789.185       82836.931 8   2641593.91627        82.000
  23595676.343    38665098.128 6  13494088.13925        34.000
  23883494.551    13142787.620 6  -1312587.03925        36.000
  20871962.781    -5253985.721 9  -3473867.17829       102.000
  24445158.779   -23372678.852 6  -4038631.14725        32.000
  22230832.415   -17007108.997 8 -12377302.97126        66.000
 96  6  8 16 52 15.0000000  0  7G 9G 2G27G26G 7G24G 4
  23005570.355    -7367027.976 7  -5362087.35926        62.000
  22001616.828       97721.009 8   2653191.90127        82.000
  23605782.317    38718185.839 6  13535455.11425        34.000
  23887985.052    13166359.245 6  -1294219.54125        36.000
  20874971.348    -5238183.392 9  -3461553.67929       102.000
  24434346.134   -23429478.328 6  -4082890.41325        30.000
  22222262.128   -17052189.552 8 -12412430.63926        70.000
 96  6  8 16 52 30.0000000  0  7G 9G 2G27G26G 7G24G 4
  22997262.297    -7410685.138 7  -5396105.90126        62.000
  22004455.982      112647.295 8   2664822.73327        82.000
  23615886.852    38771302.582 6  13576844.68625        32.000
  23892482.209    13189992.838 6  -1275803.78925        38.000
  20877990.078    -5222324.240 9  -3449195.91229       102.000
  24423542.993   -23486288.776 6  -4127158.25425        30.000
  22213697.687   -17097192.234 8 -12447497.63226        70.000
 96  6  8 16 52 45.0000000  0  7G 9G 2G27G26G 7G24G 4
  22988966.979    -7454282.763 7  -5430078.05626        60.000
  22007300.383      127615.058 8   2676485.94927        82.000
  23626002.689    38824449.880 6  13618258.14225        32.000
  23896988.869    13213684.928 6  -1257342.46225        38.000
  20881016.873    -5206408.627 9  -3436794.11829       104.000
  24412731.817   -23543111.980 6  -4171436.00625        30.000
  22205146.227   -17142117.446 8 -12482504.26126        70.000
 96  6  8 16 53  0.0000000  0  7G 9G 2G27G26G 7G24G 4
  22980680.956    -7497822.771 8  -5464005.32426        64.000
  22010158.934      142623.800 8   2688181.04427        82.000
  23636121.164    38877626.276 6  13659694.25125        34.000
  23901508.870    13237433.369 7  -1238837.22725        42.000
  20884058.117    -5190434.789 9  -3424346.97629       106.000
  24401922.531   -23599948.365 6  -4215724.03125        32.000
  22196613.894   -17186964.999 8 -12517450.37626        70.000
 96  6  8 16 53 15.0000000  0  7G 9G 2G27G26G 7G24G 4
  22972408.602    -7541303.543 7  -5497886.45426        62.000
  22013022.552      157671.818 8   2699906.77127        82.000
  23646243.836    38930835.218 6  13701155.71925        34.000
  23906036.126    13261238.880 6  -1220287.49125        40.000
  20887107.576    -5174395.410 9  -3411848.75429       104.000
  24391102.151   -23656794.507 6  -4260019.71525        32.000
  22188093.762   -17231735.401 8 -12552336.42026        72.000
 96  6  8 16 53 30.0000000  0  7G 9G 2G27G26G 7G24G 4
  22964143.264    -7584725.452 7  -5531721.68426        60.000
  22015893.424      172757.156 9   2711661.59327        84.000
  23656375.712    38984074.283 6  13742640.66325        34.000
  23910578.071    13285098.630 6  -1201695.51925        38.000
  20890167.408    -5158293.647 9  -3399301.92629       100.000
  24380287.798   -23713650.380 6  -4304322.95224        32.000
  22179588.171   -17276428.786 8 -12587162.40526        72.000
 96  6  8 16 53 45.0000000  0  7G 9G 2G27G26G 7G24G 4
  22955891.687    -7628089.983 8  -5565512.19426        64.000
  22018770.682      187883.757 8   2723448.54927        82.000
  23666514.273    39037344.100 6  13784149.52625        36.000
  23915130.690    13309012.023 6  -1183061.71125        34.000
  20893248.885    -5142134.365 9  -3386710.27629       104.000
  24369464.930   -23770512.905 6  -4348631.34124        30.000
  22171101.256   -17321046.385 8 -12621929.31726        72.000
 96  6  8 16 54  0.0000000  0  7G 9G 2G27G26G 7G24G 4
  22947650.062    -7671398.144 8  -5599258.80126        64.000
  22021654.536      203048.467 8   2735265.17727        82.000
  23676659.670    39090645.586 6  13825683.11325        34.000
  23919690.863    13332980.221 6  -1164385.20525        40.000
  20896333.479    -5125920.986 9  -3374076.47429       104.000
  24358649.648   -23827379.288 6  -4392942.74124        36.000
  22162623.305   -17365589.183 8 -12656637.96626        70.000
 96  6  8 16 54 15.0000000  0  7G 9G 2G27G26G 7G24G 4
  22939418.631    -7714647.687 7  -5632959.72226        62.000
  22024549.901      218250.579 8   2747110.98727        82.000
  23686801.019    39143981.307 6  13867243.39425        34.000
  23924260.089    13357002.824 6  -1145666.35825        36.000
  20899423.740    -5109650.255 9  -3361397.98429       102.000
  24347818.956   -23884249.103 6  -4437256.82424        28.000
  22154165.261   -17410056.983 8 -12691288.16326        74.000
 96  6  8 16 54 30.0000000  0  7G 9G 2G27G26G 7G24G 4
  22931204.977    -7757839.270 8  -5666615.51226        64.000
  22027446.916      233490.609 8   2758986.31627        82.000
  23696969.619    39197349.416 6  13908828.91125        36.000
  23928837.321    13381078.041 6  -1126906.48825        36.000
  20902540.203    -5093322.543 9  -3348675.07929       106.000
  24336990.602   -23941123.446 6  -4481574.38725        32.000
  22145710.454   -17454451.460 8 -12725881.24227        74.000
 96  6  8 16 54 45.0000000  0  7G 9G 2G27G26G 7G24G 4
  22922989.914    -7800974.746 8  -5700227.57726        66.000
  22030357.361      248768.288 8   2770891.00527        82.000
  23707125.988    39250749.755 6  13950439.49525        36.000
  23933433.079    13405203.729 6  -1108107.27125        38.000
  20905658.644    -5076940.576 9  -3335909.91029       104.000
  24326165.156   -23998005.224 6  -4525897.78825        30.000
  22137277.921   -17498773.416 8 -12760417.81027        74.000
 96  6  8 16 55  0.0000000  0  7G 9G 2G27G26G 7G24G 4
  22914792.629    -7844053.481 8  -5733795.40326        64.000
  22033273.922      264083.602 8   2782825.01827        82.000
  23717289.522    39304181.762 6  13992074.75025        34.000
  23938041.429    13429382.142 6  -1089266.94425        38.000
  20908781.702    -5060506.812 9  -3323104.39029       104.000
  24315343.548   -24054895.512 6  -4570227.82525        34.000
  22128857.621   -17543024.657 8 -12794899.27027        74.000
 96  6  8 16 55 15.0000000  0  7G 9G 2G27G26G 7G24G 4
  22906609.824    -7887071.695 7  -5767316.08326        62.000
  22036192.731      279436.110 8   2794788.01227        82.000
  23727465.647    39357645.232 6  14033734.53425        32.000
  23942644.652    13453617.691 6  -1070382.13025        40.000
  20911920.109    -5044020.791 9  -3310258.14029       106.000
  24304507.999   -24111792.047 6  -4614562.72925        30.000
  22120450.181   -17587205.515 8 -12829325.90527        76.000
 96  6  8 16 55 30.0000000  0  7G 9G 2G27G26G 7G24G 4
  22898434.004    -7930027.086 7  -5800787.78726        60.000
  22039122.063      294825.544 8   2806779.76027        82.000
  23737646.839    39411140.104 6  14075418.82125        34.000
  23947267.422    13477907.986 6  -1051454.68225        40.000
  20915061.994    -5027488.422 9  -3297375.77729       102.000
  24293677.187   -24168697.024 6  -4658904.23825        32.000
  22112059.020   -17631320.015 8 -12863700.81327        76.000
 96  6  8 16 55 45.0000000  0  7G 9G 2G27G26G 7G24G 4
  22890272.004    -7972919.055 8  -5834210.07626        64.000
  22042056.882      310255.374 8   2818803.01627        80.000
  23747826.142    39464664.799 6  14117126.31925        34.000
  23951906.770    13502250.310 7  -1032486.68225        42.000
  20918214.521    -5010912.133 9  -3284459.18329       100.000
  24282865.742   -24225608.043 6  -4703250.47524        38.000
  22103676.853   -17675368.997 8 -12898024.66127        74.000
 96  6  8 16 56  0.0000000  0  7G 9G 2G27G26G 7G24G 4
  22882123.226    -8015745.044 7  -5867580.97826        62.000
  22045001.053      325725.258 8   2830857.45727        82.000
  23758020.854    39518220.457 6  14158857.93125        36.000
  23956549.806    13526646.297 6  -1013476.84425        40.000
  20921378.351    -4994288.294 9  -3271505.54629       100.000
  24272023.748   -24282523.370 6  -4747600.10424        32.000
  22095303.799   -17719351.215 8 -12932296.51327        72.000
 96  6  8 16 56 15.0000000  0  7G 9G 2G27G26G 7G24G 4
  22873986.049    -8058504.790 8  -5900900.23926        64.000
  22047949.392      341233.847 8   2842942.05227        82.000
  23768225.760    39571804.539 6  14200611.68825        38.000
  23961192.572    13551096.083 6   -994425.09525        36.000
  20924553.813    -4977612.283 9  -3258511.24329       100.000
  24261186.970   -24339444.126 6  -4791953.83824        36.000
  22086950.292   -17763265.404 8 -12966515.34027        72.000
 96  6  8 16 56 30.0000000  0  7G 9G 2G27G26G 7G24G 4
  22865862.033    -8101200.017 7  -5934169.25026        62.000
  22050911.432      356783.412 8   2855058.59827        82.000
  23778424.010    39625415.288 6  14242386.28625        36.000
  23965863.458    13575600.455 6   -975330.79425        38.000
  20927737.459    -4960884.219 9  -3245476.39329       102.000
  24250353.819   -24396369.702 6  -4836311.37825        36.000
  22078603.921   -17807109.428 8 -13000679.49227        74.000
 96  6  8 16 56 45.0000000  0  7G 9G 2G27G26G 7G24G 4
  22857747.761    -8143832.882 7  -5967389.65326        62.000
  22053878.777      372373.923 8   2867207.05827        82.000
  23788631.673    39679053.226 6  14284182.01425        36.000
  23970537.942    13600161.522 6   -956192.36225        40.000
  20930932.197    -4944105.440 9  -3232402.02529       102.000
  24239518.091   -24453297.041 6  -4880670.30425        34.000
  22070280.693   -17850880.708 8 -13034786.95127        76.000
 96  6  8 16 57  0.0000000  0  7G 9G 2G27G26G 7G24G 4
  22849646.889    -8186402.559 8  -6000560.79426        64.000
  22056853.078      388007.736 8   2879389.24227        82.000
  23798840.625    39732722.318 6  14326002.03125        34.000
  23975220.310    13624783.363 6   -937006.51825        36.000
  20934135.060    -4927273.510 9  -3219286.23829       106.000
  24228688.568   -24510223.246 6  -4925028.34525        34.000
  22061959.833   -17894577.648 8 -13068836.49827        72.000
 96  6  8 16 57 15.0000000  0  7G 9G 2G27G26G 7G24G 4
  22841558.728    -8228909.568 8  -6033683.13226        66.000
  22059837.422      403684.918 8   2891605.22627        80.000
  23809066.216    39786421.121 6  14367845.15025        34.000
  23979910.833    13649463.111 6   -917775.58525        34.000
  20937346.856    -4910388.558 9  -3206129.13029       106.000
  24217852.120   -24567145.461 6  -4969383.29725        36.000
  22053657.411   -17938200.311 8 -13102828.17827        72.000
 96  6  8 16 57 30.0000000  0  7G 9G 2G27G26G 7G24G 4
  22833483.338    -8271355.667 8  -6066757.99226        64.000
  22062831.060      419409.450 8   2903858.09727        82.000
  23819284.492    39840151.428 6  14409712.87225        32.000
  23984621.892    13674198.341 6   -898501.40725        34.000
  20940569.775    -4893448.648 9  -3192929.20129       102.000
  24207028.443   -24624062.818 6  -5013734.46425        40.000
  22045371.747   -17981745.895 8 -13136759.77127        72.000
 96  6  8 16 57 45.0000000  0  7G 9G 2G27G26G 7G24G 4
  22825418.292    -8313742.281 8  -6099786.52426        64.000
  22065832.552      435183.013 8   2916149.18027        80.000
  23829517.878    39893913.468 6  14451605.32925        34.000
  23989337.657    13698988.018 6   -879184.77825        34.000
  20943802.557    -4876453.997 9  -3179686.61829       102.000
  24196210.882   -24680972.554 7  -5058079.70124        42.000
  22037100.413   -18025210.997 8 -13170628.67327        72.000
 96  6  8 16 58  0.0000000  0  7G 9G 2G27G26G 7G24G 4
  22817362.269    -8356069.722 8  -6132768.94326        66.000
  22068841.719      451004.001 8   2928477.20727        80.000
  23839752.433    39947707.457 6  14493522.67425        32.000
  23994070.810    13723835.765 6   -859822.92025        40.000
  20947051.258    -4859401.533 9  -3166398.98929       104.000
  24185384.537   -24737874.175 7  -5102418.62224        42.000
  22028846.377   -18068591.535 8 -13204431.67427        72.000
 96  6  8 16 58 15.0000000  0  7G 9G 2G27G26G 7G24G 4
  22809318.028    -8398341.119 7  -6165707.68026        62.000
  22071862.727      466867.996 8   2940838.76427        78.000
  23849986.688    40001529.278 6  14535461.66825        30.000
  23998808.191    13748743.166 6   -840414.61325        36.000
  20950304.786    -4842293.596 9  -3153068.13429       104.000
  24174537.386   -24794771.244 6  -5146753.95124        36.000
  22020605.652   -18111888.630 8 -13238169.64427        72.000
 96  6  8 16 58 30.0000000  0  7G 9G 2G27G26G 7G24G 4
  22801285.329    -8440552.758 7  -6198599.84326        62.000
  22074890.092      482778.086 8   2953236.23827        78.000
  23860244.387    40055378.557 6  14577422.05625        32.000
  24003561.010    13773712.057 6   -820958.37025        36.000
  20953572.074    -4825130.044 9  -3139693.93129       102.000
  24163725.011   -24851662.088 6  -5191084.45625        40.000
  22012386.002   -18155099.958 8 -13271840.79827        74.000
 96  6  8 16 58 45.0000000  0  7G 9G 2G27G26G 7G24G 4
  22793262.223    -8482704.202 8  -6231445.10626        66.000
  22077922.163      498734.117 8   2965669.50727        76.000
  23870487.785    40109255.421 6  14619403.99325        32.000
  24008326.811    13798741.559 6   -801454.89225        36.000
  20956848.056    -4807912.294 9  -3126277.50929       102.000
  24152895.668   -24908547.086 6  -5235410.36125        38.000
  22004172.139   -18198226.726 8 -13305446.04927        72.000
 96  6  8 16 59  0.0000000  0  7G 9G 2G27G26G 7G24G 4
  22785253.687    -8524790.551 8  -6264239.64726        64.000
  22080967.574      514738.284 8   2978140.26527        78.000
  23880748.182    40163160.648 6  14661408.03925        32.000
  24013094.411    13823830.726 6   -781904.88825        34.000
  20960135.670    -4790639.529 9  -3112818.21629       102.000
  24142076.098   -24965426.198 6  -5279731.70625        38.000
  21995985.736   -18241270.359 8 -13338986.52927        74.000
 96  6  8 16 59 15.0000000  0  7G 9G 2G27G26G 7G24G 4
  22777261.280    -8566808.317 8  -6296980.74526        66.000
  22084024.408      530790.257 8   2990648.30027        78.000
  23891010.318    40217091.730 6  14703432.18925        32.000
  24017875.891    13848977.541 6   -762309.98025        32.000
  20963432.757    -4773313.568 9  -3099317.46029       104.000
  24131241.569   -25022298.691 6  -5324047.84325        36.000
  21987809.136   -18284231.462 8 -13372462.69727        72.000
 96  6  8 16 59 30.0000000  0  7G 9G 2G27G26G 7G24G 4
  22769280.985    -8608754.163 8  -6329665.83226        70.000
  22087092.124      546889.294 8   3003192.97627        78.000
  23901277.400    40271046.932 6  14745475.13625        30.000
  24022685.341    13874180.545 6   -742671.35325        38.000
  20966738.719    -4755935.363 9  -3085776.00029       102.000
  24120424.877   -25079163.435 6  -5368357.97925        36.000
  21979651.964   -18327107.943 8 -13405872.92227        76.000
 96  6  8 16 59 45.0000000  0  7G 9G 2G27G26G 7G24G 4
  22761308.274    -8650625.702 8  -6362293.00626        66.000
  22090160.140      563033.485 8   3015772.85727        78.000
  23911551.138    40325025.472 6  14787536.26525        32.000
  24027483.729    13899441.551 6   -722987.51225        34.000
  20970053.074    -4738507.466 9  -3072195.82629       102.000
  24109619.278   -25136021.669 6  -5412663.09225        38.000
  21971507.322   -18369901.210 8 -13439218.30527        72.000
 96  6  8 17  0  0.0000000  0  7G 9G 2G27G26G 7G24G 4
  22753350.643    -8692423.906 7  -6394862.99926        62.000
  22093240.898      579218.497 8   3028384.55327        80.000
  23921820.738    40379024.319 6  14829613.26125        32.000
  24032295.188    13924757.575 6   -703260.75525        32.000
  20973380.951    -4721030.498 9  -3058577.41429       102.000
  24098783.579   -25192875.840 6  -5456964.98125        36.000
  21963381.387   -18412614.456 8 -13472501.32627        72.000
 96  6  8 17  0 15.0000000  0  7G 9G 2G27G26G 7G24G 4
  22745411.749    -8734146.506 8  -6427374.09926        64.000
  22096326.721      595446.464 8   3041029.71527        78.000
  23932110.275    40433046.645 6  14871708.50825        36.000
  24037134.768    13950128.344 6   -683491.32125        36.000
  20976713.443    -4703500.358 9  -3044917.57029       100.000
  24087976.421   -25249724.634 6  -5501262.73525        38.000
  21955269.603   -18455246.711 8 -13505721.26527        74.000
 96  6  8 17  0 30.0000000  0  7G 9G 2G27G26G 7G24G 4
  22737491.592    -8775791.013 8  -6459824.33026        68.000
  22099423.098      611720.757 8   3053710.97427        78.000
  23942389.559    40487095.018 6  14913824.04525        36.000
  24041970.630    13975553.188 6   -663679.74925        38.000
  20980062.365    -4685915.076 9  -3031214.74729       102.000
  24077145.789   -25306565.070 6  -5545553.91725        36.000
  21947169.391   -18497797.031 8 -13538877.34027        74.000
 96  6  8 17  0 45.0000000  0  7G 9G 2G27G26G 7G24G 4
  22729582.348    -8817351.822 8  -6492209.37926        68.000
  22102529.247      628048.900 8   3066434.18427        76.000
  23952686.800    40541180.721 6  14955968.66425        34.000
  24046816.445    14001034.809 6   -643823.98625        38.000
  20983424.448    -4668266.423 9  -3017462.55629       104.000
  24066339.440   -25363392.221 6  -5589834.75625        38.000
  21939087.945   -18540260.630 8 -13571965.83127        74.000
 96  6  8 17  1  0.0000000  0  7G 9G 2G27G26G 7G24G 4
  22721691.570    -8858832.971 8  -6524532.34626        70.000
  22105647.749      644428.359 8   3079197.39227        78.000
  23962985.270    40595303.016 6  14998141.84625        38.000
  24051674.822    14026568.795 6   -623927.46625        36.000
  20986791.327    -4650559.345 9  -3003664.83429       102.000
  24055528.474   -25420206.269 6  -5634105.38425        40.000
  21931023.318   -18582640.175 8 -13604988.84527        74.000
 96  6  8 17  1 15.0000000  0  7G 9G 2G27G26G 7G24G 4
  22713809.217    -8900236.015 8  -6556794.44526        68.000
  22108777.672      660858.507 8   3092000.09827        78.000
  23973290.996    40649461.339 6  15040343.13825        36.000
  24056543.302    14052154.489 6   -603990.55025        34.000
  20990173.136    -4632794.795 9  -2989822.31529       102.000
  24044721.646   -25477005.145 6  -5678364.16225        40.000
  21922977.998   -18624935.863 8 -13637946.50727        76.000
 96  6  8 17  1 30.0000000  0  7G 9G 2G27G26G 7G24G 4
  22705945.901    -8941571.007 8  -6589003.52226        70.000
  22111917.458      677329.206 8   3104834.39127        80.000
  23983599.120    40703646.177 6  15082565.02325        38.000
  24061423.353    14077783.520 6   -584019.90525        36.000
  20993560.041    -4614979.732 9  -2975940.45429       100.000
  24033909.721   -25533795.563 6  -5722616.41325        40.000
  21914941.252   -18667153.315 8 -13670843.19927        78.000
 96  6  8 17  1 45.0000000  0  7G 9G 2G27G26G 7G24G 4
  22698089.929    -8982832.254 8  -6621155.13726        66.000
  22115053.827      693849.799 8   3117707.57027        76.000
  23993915.068    40757864.231 6  15124812.74325        36.000
  24066302.176    14103463.213 6   -564009.77025        32.000
  20996962.625    -4597104.690 9  -2962011.85629       100.000
  24023108.378   -25590572.580 6  -5766858.16325        38.000
  21906921.714   -18709286.995 8 -13703674.61327        78.000
 96  6  8 17  2  0.0000000  0  7G 9G 2G27G26G 7G24G 4
  22690255.483    -9024021.125 8  -6653250.33726        70.000
  22118206.414      710419.060 8   3130618.67927        76.000
  24004240.850    40812114.124 6  15167085.32625        36.000
  24071207.140    14129193.995 6   -543959.85125        36.000
  21000380.739    -4579167.458 9  -2948034.78829       100.000
  24012309.314   -25647337.013 6  -5811090.13725        40.000
  21898922.202   -18751336.986 8 -13736440.82527        78.000
 96  6  8 17  2 15.0000000  0  7G 9G 2G27G26G 7G24G 4
  22682432.669    -9065138.609 8  -6685289.90526        72.000
  22121367.366      727035.789 8   3143566.76927        78.000
  24014574.786    40866394.796 6  15209381.92325        36.000
  24076120.918    14154975.928 6   -523870.08725        34.000
  21003801.131    -4561169.353 9  -2934010.29529        98.000
  24001507.402   -25704090.454 7  -5855313.48925        44.000
  21890936.330   -18793303.056 8 -13769141.64827        80.000
 96  6  8 17  2 30.0000000  0  7G 9G 2G27G26G 7G24G 4
  22674620.947    -9106183.604 8  -6717273.03526        68.000
  22124535.453      743698.152 8   3156550.41527        76.000
  24024908.392    40920703.046 6  15251700.01525        38.000
  24081031.459    14180810.359 6   -503739.41125        34.000
  21007240.680    -4543115.775 9  -2919942.57229       102.000
  23990709.477   -25760834.147 6  -5899529.30625        40.000
  21882966.677   -18835184.833 8 -13801776.78027        80.000
 96  6  8 17  2 45.0000000  0  7G 9G 2G27G26G 7G24G 4
  22666817.019    -9147156.354 8  -6749199.82126        66.000
  22127720.538      760409.078 8   3169571.90527        78.000
  24035243.437    40975037.794 6  15294038.73925        36.000
  24085950.723    14206699.079 6   -483566.35725        32.000
  21010687.873    -4525008.028 9  -2905832.64729       100.000
  23979918.358   -25817567.824 7  -5943737.31625        46.000
  21875015.072   -18876981.571 8 -13834345.64127        80.000
 96  6  8 17  3  0.0000000  0  7G 9G 2G27G26G 7G24G 4
  22659038.814    -9188056.733 8  -6781070.22826        70.000
  22130907.242      777169.296 8   3182631.82327        78.000
  24045592.753    41029395.938 6  15336395.61725        36.000
  24090891.333    14232641.669 6   -463351.38225        32.000
  21014141.692    -4506846.643 9  -2891680.91229        98.000
  23969111.529   -25874288.387 6  -5987935.14725        40.000
  21867079.446   -18918688.594 8 -13866844.61227        78.000
 96  6  8 17  3 15.0000000  0  7G 9G 2G27G26G 7G24G 4
  22651269.123    -9228884.367 8  -6812883.94426        72.000
  22134103.389      793979.612 8   3195730.75527        76.000
  24055935.382    41083772.321 6  15378766.79925        32.000
  24095833.322    14258639.713 6   -443093.17525        34.000
  21017606.574    -4488633.493 9  -2877488.84829       100.000
  23958326.706   -25930994.277 6  -6032121.49725        40.000
  21859158.989   -18960302.276 8 -13899270.83127        78.000
 96  6  8 17  3 30.0000000  0  7G 9G 2G27G26G 7G24G 4
  22643515.680    -9269638.065 8  -6844640.06226        68.000
  22137320.402      810837.626 8   3208866.86727        78.000
  24066284.158    41138164.279 6  15421150.10625        34.000
  24100801.512    14284691.668 6   -422792.98525        34.000
  21021081.708    -4470367.509 9  -2863255.61229       100.000
  23947527.642   -25987689.617 6  -6076299.62425        38.000
  21851259.068   -19001822.276 8 -13931624.06727        80.000
 96  6  8 17  3 45.0000000  0  7G 9G 2G27G26G 7G24G 4
  22635776.508    -9310312.036 8  -6876334.06226        70.000
  22140535.706      827744.646 8   3222041.16527        76.000
  24076635.812    41192574.655 6  15463547.76125        30.000
  24105765.446    14310797.780 6   -402450.64825        30.000
  21024565.896    -4452049.031 9  -2848981.46629       100.000
  23936756.608   -26044377.315 6  -6120471.76625        40.000
  21843373.867   -19043247.464 8 -13963903.41227        78.000
 96  6  8 17  4  0.0000000  0  7G 9G 2G27G26G 7G24G 4
  22628050.437    -9350908.159 8  -6907967.41126        70.000
  22143758.805      844698.416 8   3235251.87827        76.000
  24086996.070    41247004.623 6  15505960.71125        32.000
  24110740.022    14336957.057 6   -382066.82925        28.000
  21028059.677    -4433680.428 9  -2834668.27629        96.000
  23925960.602   -26101060.376 7  -6164640.33825        42.000
  21835511.840   -19084578.313 8 -13996109.23827        80.000
 96  6  8 17  4 15.0000000  0  7G 9G 2G27G26G 7G24G 4
  22620340.644    -9391427.103 8  -6939540.58526        70.000
  22146991.167      861698.689 8   3248498.83327        76.000
  24097358.126    41301455.803 6  15548390.12125        30.000
  24115726.230    14363168.890 6   -361642.00025        32.000
  21031566.080    -4415265.036 9  -2820318.62929       100.000
  23915178.057   -26157738.166 6  -6208804.76425        38.000
  21827664.083   -19125813.643 8 -14028240.63427        80.000
 96  6  8 17  4 30.0000000  0  7G 9G 2G27G26G 7G24G 4
  22612641.674    -9431870.057 8  -6971054.56126        72.000
  22150243.855      878750.905 8   3261786.27126        76.000
  24107727.647    41355927.547 6  15590835.52525        30.000
  24120734.233    14389430.502 6   -341178.45325        32.000
  21035080.487    -4396803.591 9  -2805933.08729        98.000
  23904385.378   -26214409.353 6  -6252964.07025        40.000
  21819831.195   -19166951.492 8 -14060296.08727        78.000
 96  6  8 17  4 45.0000000  0  7G 9G 2G27G26G 7G24G 4
  22604959.252    -9472236.356 8  -7002508.81526        74.000
  22153498.552      895859.713 8   3275117.79826        74.000
  24118097.588    41410421.776 6  15633298.51925        30.000
  24125735.131    14415742.451 6   -320675.66625        28.000
  21038604.427    -4378290.086 9  -2791506.98529       100.000
  23893619.951   -26271069.490 7  -6297114.71525        42.000
  21812025.529   -19207989.035 8 -14092273.36827        80.000
 96  6  8 17  5  0.0000000  0  7G 9G 2G27G26G 7G24G 4
  22597293.139    -9512524.481 8  -7033902.13826        70.000
  22156765.301      913024.725 8   3288493.13526        76.000
  24128472.596    41464941.400 6  15675781.32325        28.000
  24130744.064    14442102.679 6   -300135.29125        30.000
  21042137.601    -4359721.857 9  -2777038.23129       102.000
  23882833.988   -26327715.746 6  -6341254.59825        38.000
  21804232.844   -19248924.239 8 -14124170.89927        80.000
 96  6  8 17  5 15.0000000  0  7G 9G 2G27G26G 7G24G 4
  22589643.245    -9552730.500 8  -7065231.48626        70.000
  22160036.726      930241.532 8   3301908.82026        74.000
  24138857.287    41519486.835 6  15718284.19425        28.000
  24135784.024    14468511.401 6   -279557.13525        36.000
  21045677.970    -4341100.660 9  -2762528.20629        98.000
  23872054.890   -26384348.581 6  -6385383.98725        38.000
  21796465.011   -19289758.666 8 -14155989.90427        78.000
 96  6  8 17  5 30.0000000  0  7G 9G 2G27G26G 7G24G 4
  22582011.309    -9592850.591 8  -7096493.88126        74.000
  22163323.560      947507.571 8   3315362.87326        76.000
  24149238.380    41574061.016 6  15760809.42625        26.000
  24140811.694    14494969.917 6   -258940.05525        34.000
  21049236.297    -4322428.227 9  -2747978.26829       102.000
  23861279.810   -26440970.006 6  -6429504.49625        38.000
  21788710.789   -19330496.565 8 -14187733.70727        78.000
 96  6  8 17  5 45.0000000  0  7G 9G 2G27G26G 7G24G 4
  22574391.904    -9632881.533 8  -7127686.82626        68.000
  22166615.312      964821.409 8   3328854.16326        74.000
  24159618.454    41628666.583 6  15803359.20525        26.000
  24145856.931    14521477.668 6   -238284.73325        34.000
  21052797.831    -4303704.647 9  -2733388.45529       100.000
  23850509.106   -26497578.413 6  -6473614.84325        38.000
  21780979.142   -19371139.079 8 -14219403.17127        82.000
 96  6  8 17  6  0.0000000  0  7G 9G 2G27G26G 7G24G 4
  22566790.516    -9672825.154 8  -7158811.71726        70.000
  22169920.164      982186.470 8   3342385.36726        72.000
  24170027.278    41683301.209 6  15845931.59525        28.000
  24150915.899    14548036.608 6   -217589.39525        34.000
  21056368.989    -4284930.442 9  -2718759.21929        98.000
  23839739.991   -26554170.005 6  -6517712.10825        40.000
  21773261.585   -19411686.118 8 -14250998.23227        80.000
 96  6  8 17  6 15.0000000  0  7G 9G 2G27G26G 7G24G 4
  22559206.246    -9712684.773 8  -7189871.12426        72.000
  22173239.076      999605.377 8   3355958.54926        74.000
  24180423.871    41737961.881 6  15888524.26425        26.000
  24155967.881    14574646.245 6   -196854.70925        32.000
  21059949.920    -4266106.581 9  -2704091.27329        98.000
  23828971.386   -26610739.575 6  -6561792.22625        36.000
  21765563.844   -19452137.959 8 -14282519.12927        80.000
 96  6  8 17  6 30.0000000  0  7G 9G 2G27G26G 7G24G 4
  22551633.789    -9752456.895 8  -7220862.38626        72.000
  22176561.556     1017082.289 8   3369576.90426        74.000
  24190835.213    41792646.457 6  15931135.51825        28.000
  24161040.400    14601304.943 6   -176081.78425        34.000
  21063541.404    -4247231.799 9  -2689383.65929        96.000
  23818210.726   -26667282.490 6  -6605851.54825        40.000
  21757885.739   -19492492.469 8 -14313964.18127        80.000
 96  6  8 17  6 45.0000000  0  7G 9G 2G27G26G 7G24G 4
  22544084.685    -9792137.223 8  -7251782.10826        72.000
  22179897.616     1034616.326 8   3383239.78626        72.000
  24201248.894    41847358.229 6  15973767.98825        28.000
  24166127.518    14628013.423 6   -155269.92725        34.000
  21067142.541    -4228303.957 9  -2674634.69829        98.000
  23807456.451   -26723795.808 6  -6649887.79325        38.000
  21750223.614   -19532747.260 8 -14345331.53827        80.000
 96  6  8 17  7  0.0000000  0  7G 9G 2G27G26G 7G24G 4
  22536551.380    -9831721.568 8  -7282627.03326        74.000
  22183245.609     1052205.318 8   3396945.50426        74.000
  24211660.716    41902101.159 6  16016424.76225        28.000
  24171221.052    14654774.507 6   -134417.14525        36.000
  21070753.781    -4209322.775 9  -2659844.16729        98.000
  23796703.255   -26780278.178 6  -6693899.96025        40.000
  21742582.114   -19572899.738 8 -14376619.15727        80.000
 96  6  8 17  7 15.0000000  0  6G 9G 2G26G 7G24G 4
  22529037.442    -9871210.102 8  -7313397.30226        74.000
  22186606.672     1069847.698 8   3410692.81226        74.000
  24176321.211    14681586.887 6   -113524.37725        34.000
  21074375.184    -4190291.732 9  -2645014.78329        98.000
  23785968.916   -26836729.003 6  -6737887.50625        40.000
  21734964.357   -19612949.545 8 -14407826.77427        80.000
 96  6  8 17  7 30.0000000  0  6G 9G 2G26G 7G24G 4
  22521544.069    -9910604.959 8  -7344094.61826        72.000
  22189974.360     1087545.919 8   3424483.62926        76.000
  24181440.737    14708452.694 6    -92589.99525        38.000
  21078005.550    -4171209.763 9  -2630145.72429        94.000
  23775236.346   -26893149.438 7  -6781851.42925        42.000
  21727358.623   -19652897.632 8 -14438955.14227        78.000
 96  6  8 17  7 45.0000000  0  6G 9G 2G26G 7G24G 4
  22514063.588    -9949908.683 8  -7374720.85726        70.000
  22193349.244     1105302.652 8   3438320.01326        74.000
  24186561.702    14735370.552 6    -71615.11425        36.000
  21081651.356    -4152072.748 9  -2615233.77429        96.000
  23764505.665   -26949538.536 7  -6825790.89125        42.000
  21719778.190   -19692742.331 8 -14470002.92127        80.000
 96  6  8 17  8  0.0000000  0  6G 9G 2G26G 7G24G 4
  22506600.015    -9989124.794 8  -7405278.84426        70.000
  22196739.267     1123122.758 8   3452205.81126        72.000
  24191694.119    14762339.938 6    -50600.04725        36.000
  21085301.390    -4132877.313 9  -2600276.29829        98.000
  23753771.836   -27005894.018 7  -6869704.14325        42.000
  21712217.784   -19732481.343 8 -14500968.36527        80.000
 96  6  8 17  8 15.0000000  0  6G 9G 2G26G 7G24G 4
  22499154.070   -10028257.211 8  -7435771.59926        74.000
  22200142.211     1141009.298 8   3466143.37626        70.000
  24196831.992    14789360.553 6    -29545.03725        38.000
  21088967.312    -4113620.581 9  -2585271.05329        98.000
  23743066.367   -27062215.964 7  -6913591.26925        44.000
  21704674.257   -19772110.945 8 -14531848.56627        82.000
 96  6  8 17  8 30.0000000  0  6G 9G 2G26G 7G24G 4
  22491722.904   -10067305.681 8  -7466199.01026        74.000
  22203559.126     1158956.796 8   3480128.45326        72.000
  24201984.255    14816429.050 6     -8452.71725        34.000
  21092642.467    -4094304.574 9  -2570219.61529       100.000
  23732344.470   -27118507.991 6  -6957455.13225        40.000
  21697155.522   -19811631.582 8 -14562643.83727        82.000
 96  6  8 17  8 45.0000000  0  6G 9G 2G26G 7G24G 4
  22484309.247   -10106269.636 8  -7496560.51626        76.000
  22206983.895     1176960.983 8   3494157.69826        72.000
  24207141.135    14843546.953 6     12678.11825        36.000
  21096327.756    -4074928.613 9  -2555121.47829        98.000
  23721634.414   -27174773.408 7  -7001298.23725        42.000
  21689657.323   -19851044.995 8 -14593355.55727        82.000
 96  6  8 17  9  0.0000000  0  6G 9G 2G26G 7G24G 4
  22476910.099   -10145151.150 8  -7526857.78326        72.000
  22210418.227     1195019.271 8   3508229.06926        74.000
  24212313.274    14870716.571 6     33849.22125        38.000
  21100025.516    -4055493.978 9  -2539977.60729        98.000
  23710933.292   -27231016.094 6  -7045123.66425        40.000
  21682176.122   -19890354.585 8 -14623986.39627        80.000
 96  6  8 17  9 15.0000000  0  6G 9G 2G26G 7G24G 4
  22469527.500   -10183950.186 8  -7557090.78326        76.000
  22213870.607     1213131.117 8   3522342.17226        74.000
  24217497.945    14897938.838 6     55061.36824        38.000
  21103734.279    -4036000.228 9  -2524787.67029        98.000
  23700242.064   -27287236.785 7  -7088931.91025        42.000
  21674711.769   -19929561.891 8 -14654537.51427        80.000
 96  6  8 17  9 30.0000000  0  6G 9G 2G26G 7G24G 4
  22462160.910   -10222667.791 8  -7587260.33326        78.000
  22217327.065     1231296.401 8   3536496.94426        76.000
  24222684.654    14925213.139 6     76313.99824        36.000
  21107457.281    -4016448.630 9  -2509552.66629        98.000
  23689542.171   -27343436.825 7  -7132724.07625        42.000
  21667269.002   -19968670.925 8 -14685012.07527        80.000
 96  6  8 17  9 45.0000000  0  6G 9G 2G26G 7G24G 4
  22454807.630   -10261301.604 8  -7617364.59226        80.000
  22220792.306     1249517.460 8   3550695.15626        72.000
  24227885.274    14952539.061 6     97606.95625        36.000
  21111185.800    -3996837.328 9  -2494271.13729        96.000
  23678848.664   -27399614.519 6  -7176498.79925        38.000
  21659848.119   -20007680.663 8 -14715409.26027        82.000
 96  6  8 17 10  0.0000000  0  6G 9G 2G26G 7G24G 4
  22447471.799   -10299851.330 8  -7647403.33326        76.000
  22224272.057     1267795.227 8   3564937.56726        74.000
  24233091.290    14979913.586 6    118937.73725        36.000
  21114931.347    -3977169.117 9  -2478945.26429        98.000
  23668164.960   -27455768.845 7  -7220255.32725        42.000
  21652443.635   -20046589.572 8 -14745727.85327        82.000
 96  6  8 17 10 15.0000000  0  6G 9G 2G26G 7G24G 4
  22440151.706   -10338315.830 8  -7677375.65526        74.000
  22227754.925     1286129.936 8   3579224.36826        72.000
  24238316.822    15007336.795 7    140306.46925        42.000
  21118685.768    -3957448.393 9  -2463578.45829       100.000
  23657486.803   -27511900.763 6  -7263994.41825        38.000
  21645061.816   -20085397.250 8 -14775967.57727        82.000
 96  6  8 17 10 30.0000000  0  6G 9G 2G26G 7G24G 4
  22432850.381   -10376691.055 8  -7707278.42826        76.000
  22231256.921     1304519.548 8   3593553.94426        74.000
  24243545.053    15034809.648 6    161713.86825        40.000
  21122448.733    -3937676.955 9  -2448172.15029       100.000
  23646809.155   -27568007.784 7  -7307714.10825        42.000
  21637694.056   -20124103.609 9 -14806128.35627        84.000
 96  6  8 17 10 45.0000000  0  6G 9G 2G26G 7G24G 4
  22425563.895   -10414972.931 8  -7737108.45526        74.000
  22234769.529     1322963.442 8   3607925.80526        74.000
  24248780.029    15062333.122 6    183160.68125        40.000
  21126217.454    -3917856.278 9  -2432727.46929        98.000
  23636136.873   -27624087.157 6  -7351412.25525        40.000
  21630346.503   -20162711.204 9 -14836212.18428        84.000
 96  6  8 17 11  0.0000000  0  6G 9G 2G26G 7G24G 4
  22418295.697   -10453160.776 8  -7766865.18726        76.000
  22238288.853     1341465.401 8   3622342.90626        74.000
  24254022.500    15089907.515 6    204647.20825        36.000
  21130004.462    -3897982.582 9  -2417241.47229       102.000
  23625470.287   -27680137.119 7  -7395087.45825        42.000
  21623016.997   -20201216.392 8 -14866216.20528        82.000
 96  6  8 17 11 15.0000000  0  6G 9G 2G26G 7G24G 4
  22411047.734   -10491253.891 8  -7796548.13626        76.000
  22241822.147     1360026.091 8   3636805.75726        76.000
  24259283.677    15117529.088 6    226170.46425        38.000
  21133795.788    -3878056.703 9  -2401714.81329       102.000
  23614818.062   -27736153.887 7  -7438736.80125        42.000
  21615713.903   -20239615.812 9 -14896137.81228        86.000
 96  6  8 17 11 30.0000000  0  6G 9G 2G26G 7G24G 4
  22403819.618   -10529251.922 8  -7826156.98426        76.000
  22245363.355     1378648.966 8   3651317.09726        72.000
  24264554.838    15145195.603 6    247728.82025        34.000
  21137594.698    -3858078.753 9  -2386147.57629       104.000
  23604163.887   -27792133.563 6  -7482357.27625        40.000
  21608427.237   -20277907.914 9 -14925975.77828        88.000
 96  6  8 17 11 45.0000000  0  6G 9G 2G26G 7G24G 4
  22396604.843   -10567160.315 8  -7855695.95726        74.000
  22248920.963     1397335.985 8   3665878.40026        74.000
  24269825.340    15172904.146 6    269319.89325        36.000
  21141400.593    -3838049.732 9  -2370540.55429        98.000
  23593523.294   -27848075.168 7  -7525948.05825        46.000
  21601158.919   -20316092.209 9 -14955729.77128        84.000
 96  6  8 17 12  0.0000000  0  6G 9G 2G26G 7G24G 4
  22389408.475   -10604977.228 8  -7885163.69126        78.000
  22252490.861     1416087.310 8   3680489.82826        72.000
  24275097.999    15200653.648 6    290942.86325        34.000
  21145227.024    -3817969.548 9  -2354893.65529       100.000
  23582878.173   -27903978.515 6  -7569509.02025        40.000
  21593913.595   -20354166.358 9 -14985397.93428        88.000
 96  6  8 17 12 15.0000000  0  6G 9G 2G26G 7G24G 4
  22382226.107   -10642703.848 8  -7914561.04626        74.000
  22256070.353     1434899.077 8   3695148.35526        70.000
  24280390.655    15228446.321 6    312599.44525        36.000
  21149062.059    -3797839.085 9  -2339207.57729       100.000
  23572238.719   -27959845.834 7  -7613041.94025        42.000
  21586686.738   -20392129.538 9 -15014979.59228        84.000
 96  6  8 17 12 30.0000000  0  6G 9G 2G26G 7G24G 4
  22375063.436   -10680339.457 8  -7943887.48426        76.000
  22259658.089     1453769.739 8   3709852.77426        70.000
  24285681.842    15256282.664 6    334290.05525        32.000
  21152895.475    -3777657.836 9  -2323481.94029        98.000
  23561627.715   -28015675.271 7  -7656545.33025        46.000
  21579491.089   -20429982.176 9 -15044475.14628        86.000
 96  6  8 17 12 45.0000000  0  6G 9G 2G26G 7G24G 4
  22367923.039   -10717883.367 8  -7973142.46526        78.000
  22263264.533     1472698.546 8   3724602.47626        72.000
  24290992.186    15284164.147 6    356015.91425        30.000
  21156753.055    -3757424.238 9  -2307715.50129       102.000
  23550997.464   -28071465.837 6  -7700018.42125        40.000
  21572303.805   -20467724.426 9 -15073884.67128        86.000
 96  6  8 17 13  0.0000000  0  6G 9G 2G26G 7G24G 4
  22360796.013   -10755337.108 8  -8002327.16526        74.000
  22266874.514     1491686.039 8   3739397.93726        72.000
  24296303.069    15312086.655 6    377773.68925        30.000
  21160607.216    -3737138.220 9  -2291908.21329       100.000
  23540400.850   -28127222.593 7  -7743465.17225        46.000
  21565143.742   -20505356.027 9 -15103207.97028        88.000
 96  6  8 17 13 15.0000000  0  6G 9G 2G26G 7G24G 4
  22353686.315   -10792700.400 8  -8031441.42926        74.000
  22270499.634     1510730.496 8   3754237.75626        70.000
  24301625.495    15340051.055 6    399564.10125        28.000
  21164481.614    -3716800.950 9  -2276060.99229       102.000
  23529789.785   -28182947.412 7  -7786887.05125        44.000
  21558004.454   -20542876.631 9 -15132444.78728        88.000
 96  6  8 17 13 30.0000000  0  6G 9G 2G26G 7G24G 4
  22346592.866   -10829970.677 8  -8060483.20826        72.000
  22274137.645     1529832.283 8   3769122.25726        72.000
  24306949.509    15368059.088 6    421388.56525        26.000
  21168360.659    -3696414.811 9  -2260175.70629       102.000
  23519195.600   -28238639.227 7  -7830283.21825        46.000
  21550883.874   -20580286.912 9 -15161595.63428        88.000
 96  6  8 17 13 45.0000000  0  6G 9G 2G26G 7G24G 4
  22339520.012   -10867149.889 8  -8089453.99126        72.000
  22277780.483     1548990.680 8   3784050.87926        70.000
  24312293.639    15396111.265 6    443247.38425        30.000
  21172246.958    -3675982.282 9  -2244254.25429       102.000
  23508602.943   -28294302.553 7  -7873657.18525        46.000
  21543785.358   -20617588.390 9 -15190661.70128        86.000
 96  6  8 17 14  0.0000000  0  6G 9G 2G26G 7G24G 4
  22332465.056   -10904233.129 8  -8118350.00727        72.000
  22281439.480     1568204.199 8   3799022.45426        72.000
  24317634.742    15424207.181 6    465140.23325        24.000
  21176146.809    -3655503.608 9  -2228296.85029       102.000
  23498013.494   -28349938.914 7  -7917010.15625        44.000
  21536711.545   -20654779.686 9 -15219641.91528        88.000
 96  6  8 17 14 15.0000000  0  6G 9G 2G26G 7G24G 4
  22325422.092   -10941214.043 8  -8147166.30327        74.000
  22285099.647     1587471.849 8   3814036.21526        70.000
  24322996.680    15452348.881 6    487068.78925        26.000
  21180049.597    -3634978.947 9  -2212303.61229       102.000
  23487430.520   -28405549.240 7  -7960342.82025        44.000
  21529656.739   -20691861.420 9 -15248536.75328        88.000
 96  6  8 17 14 30.0000000  0  6G 9G 2G26G 7G24G 4
  22318403.831   -10978091.680 8  -8175902.11027        70.000
  22288779.059     1606796.914 8   3829094.68926        72.000
  24328358.468    15480536.198 6    509032.90825        24.000
  21183966.025    -3614407.400 9  -2196273.83529       102.000
  23476854.352   -28461130.658 7  -8003652.97925        48.000
  21522617.732   -20728833.568 9 -15277346.19828        88.000
 96  6  8 17 14 45.0000000  0  6G 9G 2G26G 7G24G 4
  22311411.681   -11014866.674 8  -8204557.93027        72.000
  22292469.445     1626179.431 8   3844197.93226        70.000
  24333737.104    15508767.230 6    531031.13225        30.000
  21187891.208    -3593789.559 9  -2180207.97529       102.000
  23466284.539   -28516684.287 7  -8046941.46825        46.000
  21515603.488   -20765697.464 9 -15306071.28628        90.000
 96  6  8 17 15  0.0000000  0  6G 9G 2G26G 7G24G 4
  22304428.406   -11051538.667 8  -8233133.51127        74.000
  22296166.545     1645621.448 8   3859347.55826        70.000
  24339113.882    15537042.428 6    553063.69825        24.000
  21191816.840    -3573124.188 9  -2164105.10429        98.000
  23455715.566   -28572210.071 7  -8090208.23925        48.000
  21508607.081   -20802450.264 9 -15334709.80628        88.000
 96  6  8 17 15 15.0000000  0  6G 9G 2G26G 7G24G 4
  22297471.452   -11088108.577 8  -8261629.51227        72.000
  22299879.475     1665121.464 8   3874542.36426        70.000
  24344490.360    15565360.407 6    575129.59625        24.000
  21195758.212    -3552412.530 9  -2147966.15329        96.000
  23445157.745   -28627708.463 7  -8133453.68125        46.000
  21501636.427   -20839091.071 9 -15363261.05428        90.000
 96  6  8 17 15 30.0000000  0  6G 9G 2G26G 7G24G 4
  22290531.016   -11124573.570 8  -8290043.77627        74.000
  22303602.237     1684682.024 8   3889784.36626        72.000
  24349907.040    15593722.591 6    597230.00225        24.000
  21199712.444    -3531653.164 9  -2131790.03129       100.000
  23434605.920   -28683171.827 7  -8176671.84825        46.000
  21494685.409   -20875618.194 9 -15391723.74128        88.000
 96  6  8 17 15 45.0000000  0  6G 9G 2G26G 7G24G 4
  22283608.209   -11160935.954 8  -8318378.10627        70.000
  22307337.681     1704304.942 8   3905074.95926        70.000
  24355304.174    15622122.545 6    619359.80125        26.000
  21203672.583    -3510847.557 9  -2115577.87529       102.000
  23424055.714   -28738600.051 7  -8219862.59725        46.000
  21487757.805   -20912032.973 9 -15420098.85928        88.000
 96  6  8 17 16  0.0000000  0  6G 9G 2G26G 7G24G 4
  22276707.167   -11197197.376 8  -8346633.73227        70.000
  22311086.346     1723989.486 8   3920413.56226        72.000
  24360713.659    15650558.134 6    641517.39325        24.000
  21207640.396    -3489994.758 9  -2099328.93129       100.000
  23413508.445   -28793992.820 7  -8263025.73025        42.000
  21480847.079   -20948336.023 9 -15448386.92228        88.000
 96  6  8 17 16 15.0000000  0  6G 9G 2G26G 7G24G 4
  22269833.045   -11233347.227 8  -8374802.44027        76.000
  22314842.326     1743744.284 8   3935806.90326        70.000
  24366130.339    15679040.187 6    663711.23425        24.000
  21211618.942    -3469083.231 9  -2083034.24829        98.000
  23402985.161   -28849337.310 7  -8306151.26625        48.000
  21473964.414   -20984515.135 9 -15476578.44128        90.000
 96  6  8 17 16 30.0000000  0  6G 9G 2G26G 7G24G 4
  22262975.982   -11269397.365 8  -8402893.37927        74.000
  22318614.615     1763562.819 8   3951249.90426        70.000
  24371562.788    15707564.648 6    685937.98925        26.000
  21215610.498    -3448117.309 9  -2066697.17229       100.000
  23392469.041   -28904637.694 7  -8349242.44325        46.000
  21467098.927   -21020573.949 9 -15504676.21728        94.000
